GFSMA_sfc_rhum_000.txt.gz
RH
68 66 67 69 69 68 70 69 65 59 58 50 45 40 37 38 38 42 40 82 78 65 58 58 58 58 58 53 53 55 56 57 58 58 59 60 61 61 61 61 61 60 60
69 67 65 67 69 68 66 66 64 60 61 61 53 43 38 38 39 39 46 53 78 72 56 52 53 53 53 54 53 54 55 56 57 57 58 59 60 60 62 62 62 62 63
69 67 66 68 70 68 65 67 65 64 64 59 62 52 44 40 40 39 40 45 64 75 66 50 49 49 50 51 53 53 54 62 63 64 63 61 64 64 60 61 61 61 60
67 72 72 68 68 70 71 73 73 73 73 71 70 67 56 50 46 42 41 39 44 50 70 68 62 54 52 52 52 52 54 61 64 65 66 66 67 65 58 59 60 61 62
60 65 68 68 65 70 72 72 74 76 79 78 72 68 67 64 55 38 43 43 47 49 47 67 73 68 66 58 54 53 53 60 63 65 66 66 66 62 59 61 62 63 63
58 63 65 67 66 65 71 76 76 78 76 78 59 57 64 62 65 66 61 50 54 52 55 52 60 70 76 68 58 54 54 57 63 65 66 67 64 60 62 63 64 64 65
58 61 64 66 68 67 64 66 71 75 75 80 83 84 81 74 70 64 68 65 61 61 60 51 52 51 52 76 72 61 58 58 58 62 66 68 62 63 64 64 66 66 64
63 62 64 68 68 70 71 67 69 76 74 83 79 91 88 84 71 62 58 56 56 57 58 52 54 56 59 58 65 76 72 60 58 59 61 64 64 65 66 66 65 64 61
67 68 66 68 72 71 74 73 70 74 79 87 72 75 93 88 88 75 65 59 59 75 73 65 59 54 54 58 63 64 79 75 62 63 64 66 67 66 66 66 64 60 60
67 68 69 71 72 73 75 76 73 72 71 75 80 68 68 73 88 84 78 70 63 57 56 61 52 58 55 60 66 71 74 74 64 62 67 67 65 67 65 62 61 63 65
66 68 70 73 73 72 70 74 74 71 69 76 78 76 77 76 74 80 82 72 70 62 59 57 58 59 54 62 64 67 77 76 68 67 67 66 67 64 63 62 70 68 66
69 75 73 74 74 75 76 77 77 77 78 76 75 76 77 80 82 82 85 82 76 64 63 56 56 54 60 68 68 70 78 75 71 68 69 67 65 63 67 70 68 66 64
71 71 73 77 75 75 77 78 79 82 83 83 78 77 74 74 71 74 80 81 82 72 71 61 61 56 54 63 65 76 81 79 78 70 69 66 64 71 70 68 65 63 64
70 68 71 72 75 73 74 76 79 82 82 85 84 80 78 76 72 71 74 77 83 76 69 68 63 57 55 55 68 80 72 80 80 71 70 65 68 71 68 66 64 64 64
44 46 57 65 68 69 66 67 74 74 78 79 83 84 82 77 73 74 74 74 80 86 77 67 72 67 60 58 67 71 70 80 79 78 74 70 74 70 68 66 64 65 63
46 48 49 51 54 60 65 70 72 71 71 73 73 77 79 78 76 76 77 76 76 82 88 67 68 82 74 78 87 77 67 79 78 76 74 75 72 71 68 66 66 64 61
48 47 46 47 49 52 52 55 58 63 71 71 74 76 77 75 76 78 78 77 81 80 90 75 71 77 85 88 90 80 80 78 81 78 73 73 72 69 67 67 64 60 61
52 50 49 48 47 48 51 57 56 57 63 66 68 74 71 72 80 80 78 80 80 78 86 88 78 86 86 87 87 84 80 69 80 75 72 72 71 69 66 65 61 62 63
54 54 54 55 54 54 52 50 52 54 58 62 66 69 69 72 75 76 81 83 79 81 85 90 87 86 95 87 89 87 84 76 70 76 72 71 67 65 66 62 62 63 62
53 54 52 52 53 53 53 52 52 61 72 66 70 73 71 73 74 73 75 84 86 87 87 91 89 91 93 91 91 90 88 83 78 68 67 65 65 65 64 62 60 60 62
50 51 50 50 49 51 45 59 59 60 66 67 67 68 70 76 83 84 81 80 85 91 88 92 93 97 97 96 94 93 93 86 85 73 68 65 78 74 72 60 64 62 64
52 50 50 52 50 46 64 69 70 70 68 70 72 69 70 81 80 85 88 89 88 90 89 89 94 97 96 93 96 95 95 96 94 78 78 77 69 77 72 70 57 54 55
45 50 52 51 53 51 64 69 83 74 73 71 73 75 72 72 83 82 83 89 94 93 96 94 97 96 92 91 93 97 95 92 88 84 73 69 72 75 73 52 55 54 55
43 42 44 51 52 50 67 80 83 60 65 69 72 73 74 78 79 84 86 89 86 91 93 95 95 94 93 92 93 91 92 92 89 84 75 76 74 76 73 72 56 53 54
41 38 37 42 51 48 66 75 63 56 66 70 65 64 65 74 77 87 94 93 88 91 98 98 99 97 97 96 94 94 96 92 84 74 75 70 71 67 68 66 64 52 51
32 33 31 36 47 48 60 67 61 57 62 68 67 67 76 78 80 82 90 95 97 93 99 100 99 98 98 97 92 90 89 88 95 91 84 75 72 68 74 67 67 67 66

GFSMA_sfc_rhum_003.txt.gz
RH
82 83 88 90 93 90 92 96 90 78 76 68 56 55 54 57 55 50 47 85 82 72 60 59 60 62 62 62 58 57 58 60 60 60 61 61 62 62 62 62 62 62 61
76 77 77 75 78 77 77 80 78 72 68 67 56 52 49 46 44 44 50 53 84 79 68 57 56 57 58 58 59 58 63 61 60 61 61 61 61 62 62 63 63 63 63
76 74 72 71 69 73 72 75 77 74 72 66 70 64 51 45 42 41 44 51 56 81 76 53 52 52 55 55 55 56 63 65 66 67 67 68 67 67 61 62 62 62 62
72 76 73 68 69 74 73 77 76 77 79 74 74 71 66 58 50 43 41 40 45 44 70 72 63 61 60 54 53 53 58 63 66 67 68 68 69 69 62 60 60 60 61
67 68 68 71 76 77 74 73 79 77 78 75 73 72 69 68 62 48 48 44 42 44 48 59 73 67 65 63 52 52 55 62 64 66 68 69 69 69 63 61 63 61 63
66 72 69 71 82 75 73 88 75 87 73 72 66 63 71 64 64 64 56 46 45 47 47 45 49 65 73 68 62 54 53 60 63 66 67 68 69 70 63 60 61 64 64
69 74 70 79 84 75 70 71 75 82 75 92 88 77 81 76 69 63 59 59 57 56 53 50 51 51 51 75 70 65 61 58 62 65 67 69 69 68 62 61 64 65 66
75 74 70 72 76 76 77 75 76 75 75 87 78 94 84 82 76 66 65 64 60 56 58 60 56 54 55 57 62 72 69 62 57 58 64 68 70 66 62 63 65 66 67
74 75 70 72 74 79 77 79 78 77 78 90 81 77 95 94 94 86 76 65 63 64 63 58 58 56 55 59 65 66 72 72 62 58 59 62 66 64 65 66 68 67 66
76 74 74 76 78 80 80 79 78 78 74 78 91 77 72 85 91 92 88 81 76 67 68 70 66 64 60 61 65 68 69 74 64 60 60 63 64 66 68 70 68 68 66
79 79 77 78 82 82 82 78 76 83 82 80 78 78 87 80 78 82 83 70 86 71 66 64 59 57 54 57 62 66 74 71 64 62 62 62 64 68 69 69 69 66 67
77 78 85 84 82 81 83 81 80 77 82 84 82 78 81 88 83 90 89 82 76 67 74 62 56 54 54 55 60 67 74 75 72 65 62 64 66 68 68 71 68 70 71
79 72 76 74 76 80 81 81 85 89 87 88 84 84 80 81 76 76 80 81 76 65 72 75 65 58 54 60 63 75 74 75 75 72 64 64 69 74 73 69 71 72 69
62 58 56 58 61 67 76 81 88 90 89 90 88 89 86 81 79 82 82 84 84 74 68 70 73 64 60 57 60 74 66 79 77 76 72 69 72 77 76 74 72 70 68
47 49 53 53 51 52 56 73 74 84 81 81 79 82 84 82 84 82 82 81 86 94 79 63 67 70 63 60 62 61 62 68 81 79 79 77 78 80 81 78 72 69 68
59 58 59 57 54 53 52 54 57 58 64 68 76 82 80 80 83 85 85 83 85 91 95 69 64 68 79 74 72 68 69 83 85 84 83 82 83 84 84 80 72 70 68
61 58 56 57 57 57 56 57 56 57 58 61 67 73 77 78 82 80 82 84 89 89 94 80 70 67 90 82 88 89 86 82 85 87 84 86 86 88 84 78 75 70 69
57 56 55 58 58 56 56 58 59 57 58 61 65 73 76 72 80 80 84 85 83 87 91 90 80 78 90 91 84 89 86 81 86 85 84 84 88 88 82 78 74 72 68
51 52 54 56 52 53 52 52 53 57 63 60 71 76 76 77 79 79 82 85 83 81 85 90 88 81 85 93 91 87 88 89 86 86 87 88 86 86 84 79 73 72 67
53 54 53 50 49 52 52 50 59 52 56 63 70 74 73 77 80 79 81 83 83 87 86 86 89 91 88 96 91 91 96 92 91 82 86 88 84 84 83 79 76 69 68
50 51 47 45 54 50 47 57 54 58 69 80 79 73 71 77 86 83 84 86 90 90 90 88 86 86 94 99 98 96 95 93 94 92 93 94 91 92 89 78 80 78 67
46 46 46 55 47 49 61 66 67 75 72 66 62 63 69 77 76 82 86 90 93 94 91 90 88 89 87 94 96 96 95 99 99 94 94 97 94 96 89 89 77 67 66
41 39 50 43 46 49 57 68 69 61 51 57 68 66 72 60 65 67 75 80 83 87 90 96 96 92 93 91 94 94 95 94 93 99 93 97 96 96 92 74 68 60 60
36 35 39 34 41 33 54 65 77 47 50 57 65 66 71 61 67 78 82 84 84 83 83 88 89 87 89 92 94 94 92 98 98 99 96 97 96 94 86 80 68 58 59
34 31 30 35 30 34 51 69 54 46 44 50 57 68 52 57 66 74 80 87 84 84 79 83 94 97 98 98 98 99 99 99 97 96 97 95 95 95 91 77 70 58 58
30 30 27 28 41 37 60 54 47 43 50 52 67 57 61 62 69 73 74 84 94 86 84 85 90 89 97 96 98 97 96 98 98 97 98 95 94 93 88 74 66 66 68

GFSMA_sfc_rhum_006.txt.gz
RH
92 96 96 97 97 98 98 98 98 94 95 91 80 72 66 75 79 69 62 66 70 77 64 61 60 61 64 65 64 61 61 61 61 62 62 62 63 63 62 62 62 62 61
81 85 85 89 90 96 94 94 94 93 89 83 75 67 60 59 61 60 57 53 65 81 75 58 59 60 60 61 63 66 69 67 64 65 66 66 67 66 64 64 64 64 64
77 74 77 77 79 90 90 90 90 90 88 79 73 67 58 55 51 48 44 44 50 70 82 65 57 61 63 59 59 61 68 71 70 70 70 72 72 72 69 65 64 64 64
77 81 80 80 80 83 85 84 79 80 85 81 70 73 63 65 58 50 44 41 42 40 53 76 70 62 61 60 54 56 63 66 69 71 71 71 72 73 73 70 69 66 63
76 81 82 82 82 82 82 80 77 84 73 80 78 73 74 71 67 57 54 47 42 43 43 51 66 72 65 63 56 52 58 62 64 67 69 71 72 72 72 72 70 69 65
73 80 75 77 85 85 80 87 79 82 78 72 71 69 69 72 68 65 62 56 52 48 44 42 44 53 72 68 63 60 59 60 62 64 67 69 70 72 72 72 71 69 62
72 76 74 74 83 81 74 74 77 79 79 91 95 78 78 78 76 70 66 65 61 57 53 50 48 46 46 66 73 68 65 63 63 63 65 66 69 71 72 72 71 70 65
77 75 74 72 75 81 81 79 80 79 78 89 87 85 88 73 73 72 70 68 66 62 61 58 53 50 50 53 56 72 72 67 60 62 65 66 68 70 70 72 71 69 68
83 82 76 76 75 81 80 80 85 86 82 74 81 84 97 94 92 89 86 77 72 72 70 63 60 61 57 57 63 65 72 72 64 61 60 63 66 69 69 70 71 68 69
88 87 84 82 81 80 84 82 80 84 82 88 80 80 77 78 92 84 81 88 86 78 73 72 70 66 63 63 64 68 70 74 68 67 62 58 59 61 63 64 66 68 71
74 78 87 91 90 86 84 83 84 87 84 89 88 86 89 89 84 93 95 78 69 77 72 71 68 68 67 68 67 68 74 74 69 66 63 60 61 62 64 64 67 70 73
75 68 62 75 91 94 92 87 86 89 89 91 90 88 89 93 90 92 96 88 85 71 67 73 70 65 62 64 67 70 73 74 71 66 62 59 63 66 66 65 69 72 73
67 57 59 57 58 61 65 80 92 94 94 95 93 89 84 89 86 84 87 90 89 77 72 62 69 67 62 61 62 70 71 72 72 70 63 60 66 69 70 71 69 73 74
69 64 61 58 57 56 56 60 72 79 83 89 91 91 89 83 81 84 90 94 90 84 74 72 60 63 65 63 63 72 66 72 74 72 70 68 66 70 72 74 77 78 77
55 57 63 66 61 61 59 60 63 65 69 75 79 84 86 82 83 85 86 87 92 95 84 73 78 61 61 64 66 63 63 69 76 76 77 74 72 74 74 77 79 81 80
58 59 58 57 58 60 61 62 62 60 64 66 67 72 74 76 79 85 90 88 87 91 94 73 68 74 74 78 74 73 70 76 75 77 77 80 78 77 77 79 81 85 86
55 55 54 56 57 60 55 56 57 56 58 62 70 69 75 76 81 82 86 86 88 88 92 76 76 74 85 90 84 82 76 73 74 78 77 79 82 82 82 84 88 87 83
49 50 52 53 51 48 51 56 58 56 64 56 58 67 73 72 81 81 83 84 85 85 91 89 79 81 83 83 86 84 85 82 82 80 84 83 83 87 86 86 90 89 84
48 46 48 47 45 48 54 49 54 59 53 58 61 72 80 82 79 79 83 85 84 82 86 84 84 82 85 85 93 93 89 90 91 90 87 88 87 89 88 90 90 88 89
44 43 42 39 43 50 42 46 55 49 60 60 75 85 79 66 68 78 83 85 83 85 84 85 86 82 81 80 95 96 97 96 93 91 90 88 89 91 92 94 95 93 93
39 41 37 36 37 46 31 53 45 47 57 74 76 59 62 68 81 82 67 67 77 86 86 88 88 87 88 87 92 93 97 94 97 96 98 94 97 98 98 96 95 95 90
36 37 36 36 44 29 50 57 53 48 60 52 49 48 58 62 71 60 62 71 78 88 91 92 91 90 87 88 88 91 93 97 98 98 98 96 98 98 98 97 93 93 91
36 35 33 34 31 32 50 54 60 46 42 43 41 44 49 55 64 51 60 68 69 74 80 87 93 87 89 82 89 94 91 96 93 97 97 98 99 98 99 98 94 92 90
32 31 33 31 32 27 50 57 62 36 33 35 47 47 58 70 62 64 66 71 69 72 73 76 85 84 83 86 90 94 96 97 99 99 95 99 99 98 98 98 93 92 88
34 34 32 32 32 32 50 60 51 39 46 51 50 52 64 68 68 68 69 76 78 77 73 78 83 85 86 87 88 95 98 99 99 99 99 96 99 98 99 99 97 92 89
35 35 35 34 39 33 47 49 49 45 53 54 55 56 68 65 66 66 69 78 88 83 84 84 85 85 87 90 94 98 97 99 100 98 98 96 98 96 97 98 99 100 94

GFSMA_sfc_rhum_009.txt.gz
RH
97 97 97 98 98 98 98 98 99 98 98 96 94 91 83 77 74 71 76 74 70 62 61 62 65 63 62 63 62 61 64 62 62 63 63 63 64 64 63 63 62 62 62
96 97 96 97 98 99 98 98 97 97 96 97 92 89 79 70 68 68 70 70 70 68 61 58 61 62 61 62 63 70 71 71 69 68 69 70 70 69 65 64 64 64 63
93 90 94 94 92 97 96 96 97 97 97 93 90 82 78 72 65 60 56 54 56 67 68 62 56 61 65 61 60 66 70 72 74 73 72 72 73 73 74 71 71 70 65
86 92 85 85 85 88 88 89 86 88 89 87 81 77 73 69 66 60 55 51 50 46 50 60 66 66 67 65 54 60 64 67 70 72 74 75 74 74 75 75 75 74 73
83 82 84 80 89 85 86 83 82 86 78 79 84 77 76 74 69 62 62 59 55 51 48 54 61 66 69 66 59 56 59 61 63 67 69 71 74 75 75 75 76 76 75
78 82 78 79 87 86 84 89 84 84 82 75 71 71 74 75 76 72 69 64 62 58 53 49 50 52 66 66 66 61 62 62 62 63 65 67 69 71 73 74 75 75 74
76 80 76 76 81 83 76 76 86 86 85 88 87 79 75 75 76 74 71 70 69 66 63 57 53 51 50 64 67 65 68 67 65 65 64 65 66 68 70 71 72 74 75
84 82 81 78 78 84 86 85 87 88 86 86 86 92 94 81 85 79 76 75 73 70 69 67 63 57 57 57 59 65 69 67 63 67 68 67 67 67 68 69 70 71 75
91 94 93 91 88 92 87 85 90 92 93 85 82 88 99 96 91 87 89 80 77 78 76 71 67 65 62 60 64 65 70 69 64 64 65 69 69 70 70 71 71 71 72
75 76 83 91 95 95 96 92 84 86 90 95 88 82 82 83 95 91 79 86 78 77 75 77 74 70 66 67 69 70 72 74 70 69 67 65 67 67 66 69 70 71 72
71 68 66 73 73 77 86 94 94 92 89 93 92 91 90 92 91 98 95 80 73 78 72 73 70 70 67 67 70 70 75 76 72 71 70 69 68 65 62 63 67 69 72
72 62 60 64 69 71 74 73 76 83 90 93 94 91 90 91 90 94 97 92 89 81 70 70 72 68 66 68 71 74 77 78 74 72 71 69 68 67 65 64 68 70 73
67 64 68 66 65 66 70 74 80 84 83 87 84 85 86 88 85 86 89 88 86 78 86 77 71 71 68 69 70 76 78 78 78 74 72 70 71 71 70 70 68 70 75
72 64 62 62 62 63 65 67 75 86 83 87 86 84 82 81 82 85 89 91 87 81 75 74 65 72 69 74 73 77 70 76 79 78 76 72 73 73 72 71 71 73 75
52 54 61 60 60 61 63 65 62 67 68 75 82 88 89 78 80 85 86 88 91 94 77 64 70 62 75 77 77 72 73 76 80 78 81 81 78 77 75 73 74 74 75
56 56 55 58 58 58 52 52 59 60 61 63 66 68 68 71 78 86 91 88 88 92 93 72 69 75 79 79 82 79 73 80 79 84 83 84 84 83 80 78 77 77 76
51 50 47 49 46 45 47 56 53 52 60 60 55 63 67 71 84 85 82 82 84 88 93 76 73 73 80 84 81 90 88 84 78 81 82 84 86 88 86 84 83 80 79
43 44 41 41 37 41 46 50 44 55 51 52 58 64 70 76 83 79 75 77 85 85 91 92 78 77 80 75 76 85 86 88 88 81 81 83 84 85 86 88 84 84 82
41 38 39 39 37 39 47 40 37 51 42 44 53 62 82 70 78 67 74 87 82 66 74 82 86 79 76 77 82 81 87 91 92 90 88 87 86 86 90 93 88 87 88
37 36 37 36 36 37 36 32 44 43 45 52 60 76 60 59 66 66 76 70 60 76 83 84 81 81 78 76 82 92 92 92 96 91 91 90 88 88 93 95 92 90 91
34 35 35 33 34 33 25 38 42 47 58 43 38 42 42 54 58 65 71 71 69 77 84 82 82 80 80 81 83 84 87 83 85 91 93 94 93 94 94 92 90 96 95
35 35 34 34 35 29 43 47 49 54 46 37 36 36 47 53 51 67 67 66 68 75 81 83 82 84 83 82 84 89 90 93 94 89 97 96 94 96 93 94 91 95 96
37 36 35 35 35 35 46 50 52 47 42 44 49 52 52 48 62 72 70 69 71 68 68 74 84 85 84 80 81 87 86 90 96 90 98 96 98 98 93 97 94 96 96
38 38 38 37 38 35 49 52 52 44 49 50 52 54 57 62 67 66 65 60 69 69 71 70 79 81 82 80 88 89 90 91 92 93 97 98 96 98 99 99 97 95 94
42 41 40 41 42 40 51 53 54 52 55 57 56 57 64 63 64 62 63 71 71 70 63 74 77 78 79 79 82 91 90 95 95 97 99 98 100 99 99 99 99 95 92
43 42 44 43 48 44 52 59 58 57 64 64 79 76 67 63 63 64 63 72 93 95 89 84 82 81 78 81 84 94 98 98 98 98 98 99 99 96 98 98 99 98 96

GFSMA_sfc_rhum_012.txt.gz
RH
98 97 98 98 98 98 98 98 98 98 98 97 96 96 93 91 87 78 74 75 71 67 65 60 58 61 62 67 68 69 69 68 67 68 69 69 68 65 64 64 64 64 63
98 98 98 98 98 98 97 98 97 97 97 97 95 96 93 89 84 77 70 70 71 69 67 64 61 56 58 61 67 70 72 72 71 70 70 71 72 72 70 67 67 66 64
97 95 97 98 94 97 96 98 98 98 98 96 96 91 90 89 82 76 70 66 66 73 71 67 62 59 56 55 57 66 69 71 73 75 74 73 74 74 74 74 74 73 70
94 96 96 92 91 96 96 97 94 94 96 91 87 84 83 80 76 74 69 64 62 58 60 65 65 63 62 58 55 58 64 66 68 70 73 76 77 76 76 76 76 76 75
90 93 91 85 92 96 95 91 86 93 83 82 87 82 80 80 77 68 69 67 64 62 58 61 68 68 69 67 59 56 61 62 63 65 67 70 72 75 78 78 77 77 77
84 90 88 87 90 96 94 96 88 78 82 78 75 73 71 72 78 80 75 70 68 67 63 60 59 61 70 68 65 63 65 66 65 64 64 65 66 69 71 74 77 79 78
81 84 86 86 87 93 84 78 77 87 87 90 90 84 82 80 79 78 76 77 76 72 71 67 64 62 60 69 70 67 66 67 70 69 68 68 67 66 68 69 70 72 76
91 90 95 95 94 95 94 95 93 89 87 86 93 93 96 88 90 82 80 80 79 75 75 73 70 66 63 63 64 70 71 67 67 67 72 73 72 70 69 68 68 69 71
63 66 74 82 88 97 99 98 96 94 96 86 85 95 98 94 88 78 89 85 82 80 79 76 74 72 68 65 68 70 73 73 68 68 67 70 73 74 73 72 71 70 70
70 63 66 69 75 81 80 85 73 94 94 93 87 86 91 94 97 94 76 90 83 81 78 78 78 74 72 72 71 72 73 75 71 71 70 68 68 67 67 74 74 73 74
72 65 62 71 70 72 78 81 79 80 84 90 89 91 92 91 90 93 91 78 71 78 79 78 75 74 72 71 72 73 77 77 73 72 72 72 71 70 68 68 71 73 74
71 65 63 66 71 73 75 77 82 85 86 88 89 85 86 90 90 93 92 87 87 76 70 70 77 78 74 72 73 76 77 79 76 74 74 71 71 72 70 70 72 72 72
63 61 61 64 64 66 69 74 84 87 85 90 86 85 86 84 85 87 89 82 82 77 78 71 72 74 81 83 79 81 80 81 81 77 75 75 76 75 77 75 74 74 73
67 57 60 60 62 62 63 59 68 81 78 86 88 87 88 80 79 80 86 91 88 79 70 70 61 62 72 79 84 85 79 81 80 82 79 77 76 78 79 79 78 78 76
46 51 59 57 55 51 47 52 61 62 60 72 86 87 74 71 76 80 86 92 92 91 78 65 70 64 76 74 73 74 83 82 82 82 82 83 81 83 86 88 80 79 78
50 51 47 45 44 39 43 45 62 44 51 68 45 60 65 70 75 83 93 87 83 87 88 63 62 67 71 69 70 74 72 80 82 83 82 82 84 85 86 90 91 87 81
48 44 40 42 39 39 39 43 52 39 52 53 46 52 61 65 79 78 84 74 73 84 94 75 61 56 64 74 76 77 74 73 75 82 86 85 85 85 86 87 89 93 93
40 40 37 40 37 37 38 44 40 38 52 47 50 60 66 67 65 74 78 66 77 86 77 81 64 66 74 70 72 77 72 72 76 76 80 82 86 86 87 87 88 89 92
39 37 38 38 36 37 38 34 36 42 44 49 57 52 41 53 53 55 57 63 70 68 77 81 80 76 73 70 78 77 73 72 71 79 80 87 88 86 89 88 88 88 88
41 38 36 36 36 36 35 33 40 46 50 58 47 43 38 41 47 57 54 60 73 82 80 84 82 82 78 74 80 82 78 76 76 67 76 76 80 86 88 88 89 90 92
39 39 37 36 36 36 27 42 45 49 52 50 46 44 48 56 59 56 59 67 75 79 75 85 87 78 78 79 84 81 84 79 78 74 81 82 83 90 92 90 90 90 92
41 41 40 40 40 33 48 52 52 51 50 50 54 52 52 58 58 64 64 62 61 67 68 76 84 77 73 76 81 85 89 88 89 74 86 86 81 88 84 87 86 88 89
45 43 42 42 42 42 51 55 56 50 55 57 57 59 58 52 66 68 67 64 64 62 62 66 75 76 78 77 85 88 83 84 91 80 83 86 84 89 86 79 85 88 90
46 45 44 44 45 42 55 58 60 55 58 59 60 62 65 78 70 62 63 80 88 65 64 66 76 87 83 86 84 80 88 90 89 91 87 96 87 92 92 94 93 93 93
48 47 46 47 50 48 57 61 59 58 60 62 61 65 81 68 64 65 73 76 67 81 68 68 72 72 71 69 71 80 96 98 96 96 92 97 94 93 99 99 98 90 91
48 48 49 50 54 52 60 63 59 57 64 64 74 78 64 60 66 65 57 66 87 73 67 77 82 81 74 72 72 80 98 99 98 97 98 100 100 98 99 96 99 99 99

GFSMA_sfc_rhum_015.txt.gz
RH
72 71 71 72 72 73 71 71 70 66 66 65 65 67 67 64 61 60 58 74 77 74 66 59 60 60 58 60 66 72 72 74 72 71 71 71 71 71 67 65 65 64 64
72 74 71 71 71 70 67 68 68 68 68 66 67 64 66 63 62 62 58 57 75 76 74 69 62 59 60 58 59 68 71 74 75 74 72 72 72 73 73 73 72 71 69
74 74 72 71 68 67 69 69 69 71 71 67 68 64 63 61 62 62 60 58 57 75 75 73 70 66 62 60 59 61 66 69 72 75 75 75 73 74 74 75 75 74 74
73 73 72 68 66 69 69 68 67 68 70 72 70 67 66 62 60 58 58 57 57 54 63 72 72 70 68 65 62 60 64 65 66 70 74 76 77 77 76 76 76 76 76
67 70 68 66 64 68 69 70 68 70 72 71 73 70 66 65 63 60 59 58 58 59 55 64 74 74 75 70 67 64 66 66 66 66 68 70 75 78 79 79 79 79 79
66 68 68 68 68 71 71 72 76 71 72 72 74 73 69 66 64 64 62 59 58 60 59 60 58 58 74 72 70 70 68 71 70 68 67 67 68 70 73 77 78 80 80
65 66 65 63 65 70 71 72 75 77 76 72 89 84 74 66 65 64 61 61 62 62 61 59 58 56 55 73 71 71 72 70 72 74 73 71 69 69 68 68 70 73 77
47 44 50 51 51 54 54 56 62 69 70 64 86 89 88 67 56 70 62 62 62 60 61 61 59 59 59 57 62 73 74 71 71 70 73 75 74 73 72 71 70 69 69
46 47 49 48 51 52 55 58 58 63 64 55 56 78 82 80 80 58 58 56 60 62 63 63 62 61 60 59 65 67 76 75 72 71 69 72 75 76 77 77 76 74 72
50 46 48 51 51 52 54 56 50 59 60 64 59 46 66 71 73 72 41 51 48 51 57 54 60 61 61 63 70 74 75 76 75 76 73 70 71 72 72 76 77 78 76
50 45 46 50 50 50 54 58 56 60 58 67 67 67 67 67 65 75 81 58 55 49 50 52 51 55 58 61 65 70 79 79 78 78 79 77 76 74 73 72 74 76 76
45 42 42 43 45 45 49 47 52 58 63 65 68 67 71 77 78 80 81 73 69 55 48 49 50 51 53 56 68 79 82 81 78 78 78 84 87 80 83 77 77 79 78
41 40 40 36 39 40 38 40 50 63 63 66 66 70 67 62 57 61 71 73 75 60 59 51 48 49 52 54 59 82 78 83 82 78 75 75 76 84 86 85 84 83 81
36 36 36 32 33 31 30 34 42 62 52 59 67 59 54 47 51 59 70 86 86 72 57 50 40 41 41 47 59 70 52 69 72 76 71 70 76 80 81 81 86 86 88
27 31 33 32 32 30 30 35 37 41 36 41 52 47 49 50 58 63 71 79 80 88 60 42 42 38 47 48 49 38 47 64 74 77 79 79 81 81 83 83 84 83 90
31 31 29 29 30 28 28 30 33 34 31 37 36 42 49 52 57 66 66 61 66 70 77 46 45 51 47 44 45 45 43 65 66 69 71 72 76 80 83 83 84 85 86
30 29 27 28 27 27 26 28 29 28 33 39 40 47 52 47 44 46 56 55 56 56 68 52 53 51 52 52 50 52 50 45 54 70 73 72 73 79 82 83 83 84 87
28 28 27 27 26 27 28 27 29 32 37 42 43 52 44 34 42 42 44 49 56 58 66 73 73 57 55 56 58 63 54 54 55 60 63 74 71 69 74 81 84 86 87
29 28 29 29 28 30 30 29 31 37 40 42 44 46 42 42 44 47 53 57 60 56 67 76 68 58 62 61 62 61 63 61 56 65 61 62 68 72 74 74 77 84 89
32 31 30 30 31 31 32 30 39 42 43 43 44 46 44 46 47 52 53 59 58 66 66 71 70 66 63 59 66 68 69 64 65 55 61 62 66 70 75 77 81 86 92
33 34 34 32 33 34 26 42 44 46 47 47 48 46 47 54 62 59 56 60 65 68 70 72 72 70 67 65 68 65 70 69 71 79 68 64 68 71 83 71 74 89 92
35 36 35 35 36 32 50 55 54 50 50 51 52 51 49 58 58 67 66 64 62 74 77 92 78 72 67 68 72 75 82 82 94 65 74 82 71 74 71 68 71 78 80
38 37 36 36 37 38 54 58 60 51 52 51 52 53 54 50 65 64 68 67 78 68 61 64 74 81 83 71 85 96 97 97 84 70 81 89 77 87 80 74 77 79 82
39 38 37 39 40 38 58 60 63 50 51 50 51 54 56 68 62 58 58 93 59 53 58 61 63 65 68 72 72 72 78 80 84 80 77 98 93 89 83 87 82 86 88
40 39 40 41 42 44 58 64 59 51 52 53 51 52 72 55 57 63 94 66 58 60 59 62 62 65 66 68 68 76 94 92 89 83 82 96 89 96 94 91 90 86 87
43 44 43 44 51 46 60 64 58 51 56 55 60 67 60 53 62 87 60 59 72 68 68 65 66 66 67 69 72 75 92 98 95 92 86 97 87 92 97 89 93 94 96

GFSMA_sfc_rhum_018.txt.gz
RH
48 46 47 47 48 46 47 49 49 48 48 47 46 47 49 49 48 47 46 72 75 72 75 70 67 61 59 62 62 68 72 74 75 75 73 73 74 74 72 69 69 69 68
51 52 52 51 50 49 48 49 50 51 51 48 48 48 49 48 48 50 48 49 78 76 75 77 72 69 66 61 59 66 68 71 74 76 77 75 74 74 75 75 74 73 73
56 57 55 55 51 49 51 51 51 51 52 51 52 49 47 46 47 48 48 48 50 77 78 74 76 73 70 69 66 64 68 69 70 73 75 77 78 75 75 75 75 75 75
55 56 55 53 50 52 52 54 55 56 56 56 56 53 52 51 49 48 48 46 47 46 61 76 74 75 76 73 71 69 70 70 70 70 72 73 77 79 77 76 76 76 76
54 55 55 56 55 57 57 57 56 57 61 60 64 59 56 56 54 49 49 49 49 50 49 60 78 78 76 73 74 73 72 74 72 71 70 70 70 75 79 79 78 78 78
54 54 50 45 46 47 46 47 50 49 50 51 51 51 49 48 49 47 47 44 47 50 50 52 51 52 80 76 74 75 74 73 76 76 74 71 70 70 71 76 81 81 80
34 36 36 34 34 36 36 35 37 39 38 38 39 40 41 39 43 37 43 47 42 42 43 46 45 48 50 76 76 72 73 75 74 76 78 79 77 74 72 71 72 76 80
33 33 35 35 35 35 36 38 40 43 39 37 42 45 43 37 30 36 34 32 33 31 36 41 43 47 49 52 59 73 74 72 74 74 74 78 79 80 80 77 73 72 72
33 34 36 35 36 38 39 40 40 46 44 40 37 45 50 50 49 36 33 31 29 33 32 33 36 38 38 40 53 59 76 78 74 74 76 74 76 78 78 79 80 78 76
32 29 30 32 32 32 34 35 30 36 36 41 38 33 44 44 53 53 34 36 32 36 37 35 34 35 36 38 50 66 76 77 74 73 73 74 77 78 79 78 78 82 81
30 26 26 29 28 27 29 31 31 31 32 37 39 41 44 44 42 50 58 39 33 29 30 31 32 34 34 39 41 50 75 74 75 75 78 78 78 80 77 80 86 84 83
25 25 23 23 24 26 27 25 28 33 40 39 37 40 48 52 50 47 42 43 42 34 29 32 35 36 42 46 51 66 71 62 60 60 62 65 68 71 74 84 88 83 86
22 24 23 20 21 24 23 25 32 40 43 41 40 43 42 34 33 33 37 42 44 41 40 36 32 32 30 35 36 63 62 63 50 51 57 61 62 64 67 72 74 79 84
20 22 22 20 20 20 20 22 27 34 34 33 31 34 36 30 34 38 48 58 66 58 44 40 32 28 26 29 40 64 40 55 55 52 60 54 52 68 70 66 70 72 72
17 19 20 19 20 20 20 23 24 23 24 26 27 31 31 32 36 38 42 52 62 67 56 44 39 26 25 28 36 42 40 49 57 54 54 58 65 71 75 76 74 77 81
18 19 18 18 18 18 18 20 20 21 22 25 26 30 32 33 36 35 37 35 39 45 52 36 35 32 31 29 42 41 36 55 57 54 56 59 62 69 70 72 78 79 80
18 18 17 17 17 18 18 18 19 21 25 28 29 31 34 37 35 32 34 34 36 40 52 45 41 38 37 40 37 36 39 37 39 51 54 60 61 67 71 75 72 72 78
17 18 18 18 18 18 19 20 21 23 27 30 31 33 34 29 36 34 34 38 42 42 54 67 48 43 44 40 40 42 36 32 37 44 52 54 59 63 69 71 77 75 76
19 19 20 20 20 22 23 22 21 26 29 31 32 35 36 37 37 38 40 43 44 45 54 60 58 50 49 44 45 44 44 41 33 51 52 53 54 55 61 69 71 70 76
22 22 22 22 23 22 24 21 29 32 33 33 36 38 37 38 40 43 44 45 54 57 53 60 66 61 55 51 49 52 50 46 51 43 51 55 60 65 64 63 70 73 81
24 24 25 23 23 25 19 35 39 39 39 38 38 36 37 45 55 52 49 58 63 59 66 70 71 60 53 52 55 53 67 57 56 59 62 62 66 65 61 60 65 70 72
25 26 25 23 24 22 40 50 53 46 42 40 40 37 36 44 44 58 62 58 56 65 71 78 65 59 56 57 61 59 68 76 80 61 74 65 57 60 59 57 64 72 77
27 26 25 24 24 26 42 55 60 48 43 39 38 38 37 33 49 54 53 56 61 83 76 57 61 63 70 60 63 75 83 84 81 62 66 76 64 74 65 66 77 76 78
26 25 25 26 29 26 46 55 63 46 40 39 38 39 39 46 54 50 48 63 79 52 48 43 52 59 69 74 69 68 77 81 78 71 71 96 76 81 70 69 75 83 80
27 26 28 29 29 30 48 58 56 44 42 40 38 39 50 51 52 56 67 94 66 54 45 55 62 63 61 62 63 72 92 89 88 78 77 86 86 94 97 84 70 67 73
29 29 29 27 37 33 48 57 54 45 46 43 47 50 55 49 56 68 72 51 73 58 58 63 57 56 59 60 65 69 88 96 93 90 81 95 90 86 88 79 92 86 82

GFSMA_sfc_rhum_021.txt.gz
RH
44 41 43 44 45 46 47 49 49 48 47 45 45 45 47 46 47 48 49 69 79 72 66 67 71 72 68 65 63 69 72 72 74 76 76 77 75 76 76 74 72 72 72
49 51 50 50 49 48 47 48 49 50 51 48 48 46 46 46 45 46 46 48 74 80 73 70 70 73 75 71 68 69 70 72 73 74 76 77 78 76 76 77 75 74 74
53 54 54 55 51 48 49 50 51 54 57 56 58 54 49 45 46 46 47 47 50 75 81 72 70 70 73 75 72 72 74 71 71 72 72 75 78 79 77 77 77 77 76
50 54 54 53 53 55 59 63 62 56 52 50 50 52 52 48 46 44 46 46 49 48 59 81 77 71 70 70 72 74 74 76 76 73 72 73 73 76 78 78 78 78 77
53 55 58 56 46 50 46 45 43 44 48 46 45 44 44 44 44 39 42 44 46 51 51 62 76 83 82 72 69 70 72 76 78 78 78 76 74 74 74 75 77 78 78
36 39 36 34 34 36 35 37 38 37 38 36 30 33 35 36 39 39 43 38 42 44 38 44 49 54 79 80 73 70 69 70 74 79 80 81 81 79 76 74 74 76 81
32 34 34 32 34 34 34 35 38 44 43 39 42 42 40 37 35 34 36 33 34 33 32 32 34 40 45 75 69 72 70 69 70 72 76 80 80 82 82 81 78 75 76
30 30 34 35 34 36 36 37 39 42 40 38 43 45 47 39 36 36 32 32 32 33 34 34 34 37 40 41 46 65 66 64 62 65 69 72 76 78 78 79 81 82 80
27 28 30 30 31 33 36 37 36 43 41 38 36 42 47 46 47 38 36 32 32 31 34 34 30 31 34 36 44 46 55 66 60 61 64 68 69 69 69 74 74 81 84
28 24 25 26 27 28 29 33 26 32 35 41 39 28 43 42 52 52 35 35 30 26 28 30 28 28 31 36 48 60 73 67 68 70 69 66 68 70 71 74 78 75 79
25 24 22 24 24 26 27 30 30 31 31 40 41 40 40 42 42 44 45 38 31 28 27 28 29 31 31 35 44 52 62 60 58 60 63 65 62 61 61 63 66 70 80
23 24 21 21 22 25 27 26 29 34 37 46 42 39 41 49 45 41 42 42 42 37 34 34 36 36 36 34 41 59 58 57 54 57 58 59 58 58 62 65 65 72 72
22 23 21 19 20 24 24 26 34 43 44 46 42 36 34 37 38 36 40 45 48 45 45 39 36 29 27 31 31 49 46 52 50 51 57 59 58 57 59 60 59 59 60
20 20 19 18 18 19 19 23 31 36 38 36 37 34 34 34 34 36 42 48 56 49 39 37 32 31 29 29 38 46 33 46 51 54 56 57 54 54 57 61 59 55 61
15 17 18 18 18 18 18 24 26 24 25 28 30 33 33 34 37 37 42 45 50 55 47 38 38 31 35 34 39 36 36 50 53 51 51 53 58 58 55 58 63 65 64
16 17 17 17 17 17 18 20 22 23 23 26 27 30 32 33 34 40 44 40 41 46 52 39 39 39 39 37 40 39 37 53 52 48 48 56 56 53 55 62 61 62 62
15 16 16 16 17 18 18 19 21 22 23 27 30 32 34 33 36 36 40 41 43 45 53 47 42 46 46 44 42 42 43 42 41 48 47 49 50 54 55 58 61 59 60
16 17 17 18 18 19 20 20 22 22 24 29 31 34 35 29 39 40 40 43 45 45 52 60 55 52 47 47 48 49 41 36 41 46 51 49 51 50 52 57 62 66 67
18 18 20 21 21 22 22 21 21 22 28 31 33 36 37 39 40 42 43 48 48 46 59 66 63 52 53 54 55 45 39 41 37 49 49 52 52 54 58 59 65 67 69
21 22 22 23 24 22 23 23 25 32 35 35 38 39 39 39 40 43 45 50 55 65 66 67 62 64 63 58 52 52 52 53 54 40 46 50 54 55 57 59 67 76 73
23 24 25 24 24 25 19 30 36 41 44 43 41 37 37 45 50 47 42 53 63 75 63 67 78 79 87 62 60 55 61 58 57 56 58 58 60 65 64 58 58 63 64
25 26 26 25 25 22 36 42 44 47 47 46 44 39 36 46 42 48 53 56 57 60 64 78 87 93 69 57 56 63 70 78 84 60 68 66 59 62 59 58 58 61 62
26 27 25 25 25 27 39 44 50 48 50 45 41 40 37 32 46 50 57 59 58 60 71 71 72 72 62 55 66 81 89 85 76 63 70 80 68 77 68 60 62 61 63
26 25 26 26 29 25 40 45 52 49 45 44 41 40 41 47 53 55 52 75 78 72 61 46 54 53 57 66 83 72 69 79 82 75 72 88 86 80 73 68 69 67 67
27 27 28 29 28 27 40 47 50 47 49 46 42 43 48 51 56 59 69 92 64 54 49 56 58 59 58 59 60 65 91 92 88 82 77 83 87 96 83 81 70 64 87
28 28 28 26 31 28 42 49 49 48 53 50 52 56 59 51 58 70 68 54 68 59 73 65 58 56 57 60 63 67 83 96 92 93 78 88 88 88 93 85 88 83 74

GFSMA_sfc_rhum_024.txt.gz
RH
68 67 68 68 71 70 70 71 72 68 65 65 64 61 55 57 57 59 64 74 75 76 68 64 64 66 67 69 75 75 73 73 74 74 76 77 78 79 77 76 75 74 74
74 76 75 73 69 67 66 64 64 68 66 62 61 59 57 55 58 59 59 61 73 79 74 65 64 66 68 67 68 74 78 77 74 74 75 76 76 77 78 78 78 76 76
73 75 78 77 71 66 64 68 67 69 71 70 72 68 67 68 62 59 59 58 61 72 74 71 68 66 66 67 66 65 72 75 79 79 75 75 76 76 75 76 78 78 78
65 74 68 63 62 69 67 69 69 65 68 69 70 70 70 68 65 63 58 57 62 55 69 75 78 70 69 62 64 64 64 72 74 77 80 81 78 76 75 75 76 78 79
50 54 50 50 51 58 57 55 56 60 61 58 52 47 52 48 53 44 52 46 49 42 35 51 67 77 74 70 64 63 64 69 73 76 78 79 80 82 82 79 77 77 79
44 52 52 49 52 55 56 55 55 58 60 61 40 44 51 46 54 50 53 34 32 36 41 38 42 46 64 62 56 53 56 60 69 69 75 75 76 76 77 79 83 83 80
45 49 55 51 51 53 52 46 53 56 58 57 60 50 51 44 46 42 32 32 38 32 38 36 40 42 36 52 54 49 51 51 53 57 63 69 68 68 70 72 77 79 81
38 36 44 47 44 49 48 48 48 56 55 52 59 55 65 50 49 36 41 43 36 43 31 35 28 26 30 35 43 54 52 48 51 57 60 61 63 67 69 69 70 72 76
34 35 38 39 42 45 49 46 48 48 56 54 51 58 69 69 51 49 42 43 35 30 38 29 23 27 27 28 44 50 58 56 55 56 59 61 64 64 64 66 66 67 70
34 31 33 35 37 43 42 43 34 45 48 59 60 41 54 58 58 61 56 39 35 30 30 32 29 28 36 36 43 51 56 64 52 55 58 59 59 59 65 64 65 65 66
34 31 31 34 35 42 40 39 40 45 50 58 66 61 55 59 53 62 61 47 37 37 37 36 40 36 36 33 40 40 56 50 50 50 53 55 56 58 60 61 67 67 68
39 33 29 30 32 36 38 39 40 44 52 57 62 57 57 56 48 52 55 48 45 39 39 42 43 37 35 29 36 52 50 49 50 51 55 53 49 47 50 59 60 59 61
37 32 30 28 31 33 33 34 44 48 55 55 61 50 54 48 43 47 46 48 49 44 46 41 38 34 29 31 35 48 50 47 48 53 53 53 54 52 54 57 56 56 56
31 27 28 27 26 27 28 30 42 49 41 48 41 48 46 44 47 44 47 54 54 56 48 42 36 34 32 36 39 52 38 50 49 49 51 53 53 52 53 52 52 57 56
19 24 26 26 26 26 26 30 39 35 35 37 41 44 44 43 46 47 49 49 60 63 56 45 45 37 40 40 43 42 40 47 50 50 53 50 51 50 51 50 51 52 54
22 24 24 24 25 26 27 28 34 35 31 36 32 36 37 41 43 44 53 49 53 55 62 46 46 44 40 40 46 42 41 53 53 55 52 49 50 51 50 51 51 52 49
23 23 24 25 26 27 27 30 31 29 30 34 34 35 40 38 43 45 48 51 52 53 61 55 48 44 54 51 46 46 48 47 49 52 48 48 47 48 49 51 51 51 54
24 25 26 28 28 30 31 31 30 31 34 37 38 41 42 36 45 45 50 48 53 53 57 62 59 62 56 53 50 51 50 44 44 45 50 49 53 55 52 52 54 55 55
27 29 30 32 32 34 33 32 29 34 39 42 45 47 48 47 48 49 49 52 51 47 64 75 74 64 61 55 59 60 61 52 41 47 48 53 53 53 55 55 55 55 59
30 33 34 34 36 34 31 30 34 41 45 46 51 52 50 49 48 47 46 48 48 61 68 73 79 87 65 62 67 93 64 55 50 40 50 54 58 58 57 58 58 58 61
33 35 36 36 36 33 25 33 38 45 50 53 54 51 50 51 54 48 43 50 58 60 73 95 91 80 78 76 75 64 62 56 59 59 62 66 58 61 60 60 59 60 61
36 36 37 37 37 27 39 43 41 44 50 55 58 53 46 48 48 53 55 56 54 70 80 95 94 82 62 59 66 69 70 77 86 68 70 66 61 66 65 64 64 66 65
38 38 38 36 37 38 41 42 44 42 53 56 55 52 48 40 53 53 60 65 90 79 70 68 65 63 64 77 86 84 88 92 90 73 74 79 70 73 72 62 65 63 64
38 38 38 38 40 32 40 42 46 47 53 55 54 53 53 54 59 57 58 80 83 78 62 54 55 56 67 62 64 64 69 78 80 73 72 93 78 90 67 68 71 66 63
41 41 38 38 38 33 42 44 45 48 51 54 52 53 59 61 61 60 65 95 80 65 60 57 70 70 59 59 59 62 91 94 88 80 77 85 85 89 80 78 68 69 70
38 36 34 34 40 34 44 46 46 47 53 55 58 65 69 59 59 67 69 59 72 62 62 78 60 59 60 64 66 69 82 96 93 91 77 88 88 90 92 78 84 86 72

GFSMA_sfc_rhum_027.txt.gz
RH
78 79 80 79 78 77 77 74 70 68 68 73 68 64 63 66 64 69 73 79 79 76 66 60 60 66 67 68 70 72 75 74 76 77 77 77 77 78 78 79 79 77 75
81 82 82 79 73 71 69 70 70 70 69 71 77 73 74 72 70 70 69 72 76 71 67 61 60 59 58 58 63 68 72 72 73 74 78 79 78 78 77 76 77 79 78
79 81 78 71 70 68 58 53 48 60 65 59 60 59 69 71 69 69 67 70 71 74 71 52 50 56 59 63 66 66 66 69 71 73 76 77 80 81 80 79 78 78 80
66 64 46 45 48 50 56 58 62 63 65 65 63 59 60 55 56 58 58 59 57 42 50 56 54 49 52 55 57 58 59 67 72 74 73 75 77 78 78 82 82 80 78
48 46 48 54 56 61 61 58 62 65 65 63 49 49 59 48 59 50 53 39 37 42 48 52 60 61 53 48 48 50 51 52 58 59 64 66 66 70 73 76 78 80 83
46 53 54 51 54 60 56 54 55 54 60 61 37 50 45 54 61 55 48 28 41 42 46 43 51 50 50 40 42 44 44 45 45 47 50 58 58 60 63 65 67 69 73
42 46 52 48 49 55 50 43 53 53 56 57 64 48 57 52 47 42 26 50 39 41 37 30 33 27 26 42 42 43 49 50 49 49 54 56 56 59 61 62 64 64 67
39 36 44 46 43 50 45 45 49 55 58 57 65 68 67 61 52 32 47 38 46 39 32 30 26 25 30 31 39 49 48 46 48 53 50 51 54 55 56 57 57 56 64
34 37 37 41 44 49 50 45 48 50 58 60 62 61 67 73 49 56 36 50 41 37 42 30 33 31 31 43 46 46 48 49 54 55 56 57 57 56 61 63 62 65 66
33 34 35 38 40 46 43 46 39 49 56 62 67 53 59 64 74 64 60 36 42 39 36 39 38 35 43 42 42 48 45 47 52 54 55 56 56 54 53 53 54 59 61
33 33 33 36 37 44 41 41 44 45 50 61 64 69 61 64 65 64 53 49 43 40 38 39 39 43 41 35 36 39 46 50 50 53 53 52 51 54 57 53 52 50 50
40 34 30 32 34 38 39 40 44 42 49 57 57 65 62 58 56 51 48 48 49 40 42 38 45 49 38 39 38 45 47 48 51 55 58 57 56 54 54 54 59 62 59
36 32 31 30 33 34 34 36 43 47 51 53 55 52 51 60 53 46 50 49 48 45 42 42 45 43 36 37 37 47 49 48 52 58 60 58 54 53 55 56 55 54 54
32 29 29 28 28 29 31 34 44 50 42 48 41 44 53 49 47 51 49 55 59 49 47 45 41 41 41 40 46 48 39 54 52 53 56 55 52 53 53 57 54 54 55
21 26 27 27 28 30 30 34 43 38 40 42 45 50 50 41 49 53 56 52 60 70 59 50 50 42 47 45 44 42 47 51 52 53 53 53 54 55 53 52 51 51 52
25 26 27 28 29 31 32 33 38 39 38 42 39 45 43 43 46 48 56 62 56 60 71 50 48 46 43 40 50 48 45 53 55 54 55 54 54 62 52 52 52 51 54
26 27 29 30 31 33 33 35 35 34 36 42 47 44 49 47 51 51 53 54 59 61 64 54 48 46 51 57 51 51 53 48 48 57 58 58 57 55 53 53 51 63 56
28 30 31 32 33 35 36 37 37 37 42 48 50 55 52 46 56 55 54 55 57 54 60 62 56 63 64 57 56 62 50 44 57 73 59 56 55 53 53 52 54 54 54
31 33 34 36 37 39 41 39 38 38 46 50 56 58 57 58 60 59 57 55 54 48 60 75 85 68 62 73 74 64 73 70 62 52 52 53 53 53 55 57 59 58 55
34 35 36 39 41 41 39 38 38 47 52 52 59 61 57 60 60 56 52 52 52 60 60 64 68 86 73 70 81 71 57 53 58 47 51 54 59 59 61 58 58 58 59
36 39 40 41 42 39 27 38 41 48 55 59 61 56 56 58 57 53 49 53 57 64 83 95 83 90 87 66 62 59 63 64 70 64 64 62 67 71 60 61 61 63 63
39 41 42 42 42 31 42 45 43 43 50 58 62 55 56 57 56 58 59 60 59 65 76 90 96 87 68 64 64 65 76 92 90 67 74 80 66 66 64 64 66 64 67
42 43 42 42 43 44 44 44 46 41 52 62 59 59 56 48 60 63 67 66 68 76 81 75 73 73 72 65 74 95 93 90 86 73 72 81 69 71 67 58 63 66 63
43 44 44 44 46 36 44 44 48 46 56 61 61 59 60 63 70 62 61 68 90 88 68 60 63 62 72 76 64 62 69 80 84 73 69 89 76 78 67 65 69 67 65
46 46 44 45 45 42 47 49 50 53 54 56 56 59 66 65 64 60 66 97 87 78 56 58 71 67 60 61 61 71 93 94 88 79 73 83 84 86 82 77 68 70 70
44 44 41 43 45 44 54 56 56 55 60 59 70 75 67 58 59 76 74 66 76 60 70 81 58 59 61 63 69 73 90 96 93 92 74 89 92 90 93 80 82 82 83

GFSMA_sfc_rhum_030.txt.gz
RH
83 84 86 85 86 85 77 74 73 70 66 62 66 70 69 77 75 76 81 80 74 65 59 60 59 60 64 66 66 69 73 74 74 74 76 77 80 80 79 77 77 76 78
86 88 90 88 77 72 69 54 51 53 54 58 57 59 66 65 64 64 68 75 70 56 48 48 49 52 53 57 60 63 67 68 67 70 71 71 74 75 78 80 81 79 78
85 72 53 52 53 48 46 47 51 60 61 58 59 57 54 56 56 58 65 61 54 55 52 48 49 51 56 55 55 54 55 57 58 59 62 64 69 74 76 75 76 81 81
47 46 47 50 50 50 56 61 64 59 61 63 58 54 56 55 54 62 53 40 43 46 51 46 47 46 45 46 48 49 50 52 52 52 53 53 55 58 61 66 70 73 76
48 49 52 58 60 59 57 56 56 58 60 57 46 46 55 52 61 45 40 33 46 48 50 42 50 42 41 43 45 46 46 46 49 51 52 52 52 55 55 58 62 63 66
48 52 51 49 56 53 50 50 51 50 59 58 44 48 44 55 63 48 37 42 54 47 45 39 48 38 41 43 43 47 49 52 50 49 48 49 50 50 52 57 58 60 62
43 47 52 47 52 49 46 44 50 55 56 62 66 58 59 59 49 34 43 47 45 41 37 40 30 32 35 43 47 51 53 53 50 48 49 56 58 57 57 56 55 54 54
38 36 45 46 46 47 43 46 51 53 57 65 67 74 70 63 52 27 49 41 49 37 44 35 32 34 40 41 54 49 49 51 50 49 52 55 56 55 55 55 56 55 56
37 38 40 42 46 48 49 48 52 53 59 62 62 64 64 71 58 55 37 48 31 48 43 43 36 36 36 51 51 50 47 45 47 54 54 53 55 56 55 55 54 53 52
35 35 37 39 42 47 43 46 44 49 54 62 65 53 64 65 68 68 58 38 49 32 50 47 43 44 40 48 48 46 44 45 49 54 56 55 56 55 55 54 54 53 52
34 34 34 37 38 45 42 41 46 44 52 63 63 70 70 65 67 79 56 48 39 39 41 41 51 39 45 50 45 48 45 48 54 57 57 58 58 57 56 55 54 53 53
40 34 31 34 35 38 40 41 43 43 49 53 56 59 60 59 63 58 47 47 49 41 44 42 42 42 47 46 43 46 48 52 55 57 60 61 59 58 58 56 57 57 54
37 32 32 31 35 36 36 39 44 49 51 51 49 50 54 60 61 49 51 53 52 47 45 44 50 49 43 44 44 48 52 52 53 58 62 62 58 56 56 57 56 56 56
33 30 30 30 30 32 34 37 47 50 44 49 44 47 56 55 55 51 57 62 64 54 52 52 44 50 51 48 51 49 44 51 53 56 58 58 56 54 54 55 54 57 66
23 28 30 30 32 34 34 38 46 41 42 45 48 52 54 55 57 54 58 61 69 77 65 54 56 48 50 50 48 42 43 53 56 56 55 54 54 54 54 54 54 57 61
28 29 31 32 34 36 36 38 43 43 41 46 44 51 54 57 55 58 64 62 62 68 76 57 53 47 46 41 48 47 50 56 58 59 58 56 55 57 63 62 62 67 66
29 30 33 34 36 37 38 41 41 39 40 46 51 54 60 59 59 60 63 64 66 65 74 60 52 50 55 60 56 56 55 54 59 62 59 55 54 57 57 56 59 58 53
31 34 35 36 38 40 42 43 44 43 44 50 54 60 63 49 62 64 65 65 65 62 66 72 73 69 62 55 56 60 66 57 60 61 58 56 56 56 54 54 54 54 54
35 36 38 40 42 45 45 45 44 43 48 52 57 62 66 63 63 66 66 66 62 54 64 68 68 59 59 64 73 70 70 50 44 50 53 54 56 57 58 58 59 66 66
37 39 41 43 44 44 44 43 46 51 54 53 60 66 66 66 64 66 59 58 58 62 64 70 77 85 78 65 94 68 61 56 56 45 53 59 63 60 60 60 60 60 59
39 41 43 43 44 42 29 43 48 54 57 59 61 61 61 60 59 56 52 57 61 74 90 95 76 75 92 70 68 63 67 64 62 66 84 62 61 66 66 64 62 62 62
40 42 44 45 47 34 46 46 46 48 52 58 60 59 58 60 61 62 64 63 62 64 71 80 96 81 72 68 68 69 75 94 89 62 67 67 64 65 63 63 66 66 64
43 45 46 46 47 49 46 49 51 50 59 62 64 61 59 52 66 70 70 62 65 72 90 74 77 74 71 68 84 95 86 86 85 72 75 80 67 70 63 56 66 66 65
45 47 47 47 50 41 49 54 57 59 63 64 64 66 68 72 69 58 56 75 95 77 74 58 59 64 75 70 64 68 82 90 87 74 67 92 75 77 67 66 69 70 70
49 49 48 50 49 50 52 56 57 61 61 64 60 67 75 66 62 62 90 83 72 66 52 63 72 64 62 63 65 81 93 93 88 76 70 83 85 86 82 78 70 72 71
48 49 47 46 50 50 55 57 56 57 64 63 70 82 68 60 63 77 58 61 73 63 85 85 58 59 63 65 70 72 94 96 93 91 73 90 90 88 94 80 81 82 78

GFSMA_sfc_rhum_036.txt.gz
RH
91 90 94 96 96 92 70 56 52 48 45 43 48 52 52 54 54 60 73 59 52 51 50 53 54 57 56 55 56 57 58 59 60 61 61 62 64 65 66 68 72 74 74
79 86 74 58 52 51 50 48 47 49 52 48 39 41 48 54 49 67 43 55 54 52 50 53 53 53 51 51 52 53 53 54 54 54 56 57 57 58 58 58 61 64 69
64 58 56 54 55 50 44 42 47 50 46 43 41 41 48 49 58 43 40 50 57 50 51 50 50 48 49 48 50 50 49 51 53 56 57 56 55 54 55 58 60 61 61
49 51 51 49 45 49 50 52 51 52 49 50 46 48 53 48 69 34 44 51 58 46 48 48 46 46 47 47 49 48 50 52 54 56 56 55 54 55 55 56 56 57 58
45 48 50 51 46 48 49 48 50 60 55 47 39 50 47 54 60 31 45 51 47 46 49 41 45 45 45 46 48 50 52 53 54 52 53 53 54 53 54 54 58 60 59
40 43 46 46 45 46 46 45 46 52 62 62 42 39 58 61 61 42 50 43 43 44 51 42 50 48 44 44 48 51 51 54 54 52 54 53 52 53 58 58 57 58 57
41 44 49 45 45 44 46 42 50 48 59 64 58 58 62 58 60 49 47 50 42 41 51 39 47 51 46 46 49 48 50 54 54 54 53 52 55 56 57 57 58 58 57
40 40 44 45 42 45 46 47 46 48 55 68 64 74 60 48 52 35 49 50 45 50 41 26 42 46 47 55 56 46 51 54 54 55 54 56 58 58 58 58 58 58 57
41 41 42 44 45 49 53 52 49 52 55 57 68 53 45 51 75 56 49 60 41 50 37 42 44 43 45 55 52 54 55 50 54 56 58 58 59 59 59 58 59 58 57
39 40 41 42 44 48 46 47 43 52 56 60 58 49 62 73 59 62 57 41 49 33 42 51 48 48 51 50 53 52 50 50 54 59 60 60 60 60 61 60 59 57 56
37 38 38 40 42 48 44 44 45 47 55 57 62 65 66 66 71 79 55 56 39 37 38 47 56 43 43 51 59 60 50 52 56 60 61 62 61 62 61 60 59 62 57
43 37 35 38 40 44 43 46 46 44 49 51 55 56 59 61 67 66 65 53 53 44 43 41 47 54 53 60 52 50 53 54 58 61 63 63 62 61 61 60 59 57 58
40 35 34 36 40 41 42 45 48 50 51 51 50 51 59 61 63 65 67 62 59 53 54 54 53 56 42 48 51 52 54 56 57 60 64 65 61 59 59 59 62 63 60
38 34 34 36 36 38 40 44 52 53 49 52 47 50 57 58 62 64 69 71 71 61 48 60 50 56 59 55 56 55 49 56 57 58 60 60 58 56 56 56 58 57 62
30 34 36 37 38 39 41 45 51 47 49 50 51 54 58 62 66 70 73 76 77 81 65 55 68 53 56 54 56 49 50 57 58 58 57 56 56 56 58 58 61 67 67
34 36 37 38 40 42 44 46 49 50 47 51 48 54 58 64 67 73 78 77 78 80 86 59 61 58 55 51 58 51 48 56 59 61 60 58 58 58 60 63 56 57 56
35 37 39 40 42 44 46 47 48 45 49 54 55 58 62 63 70 74 78 74 76 78 86 71 62 58 65 61 54 54 56 54 56 65 68 64 60 59 57 57 58 62 63
38 39 41 42 44 46 47 47 47 49 54 58 59 63 65 50 67 71 73 74 77 73 79 87 77 66 62 59 61 65 64 65 83 67 60 59 57 56 56 57 60 67 64
41 42 43 44 45 48 47 46 46 52 58 62 64 67 68 70 72 75 74 75 74 67 76 77 72 66 66 65 78 75 64 56 45 52 57 59 60 60 61 66 70 72 69
41 44 44 45 47 46 46 44 53 62 64 62 66 68 69 70 73 73 72 67 61 67 68 75 73 78 91 73 68 63 61 57 58 49 59 63 64 63 62 62 62 60 60
43 45 45 46 47 45 32 54 60 66 70 69 70 67 67 68 64 61 57 62 64 74 79 94 91 79 76 70 68 63 66 66 76 70 63 61 62 61 60 64 64 64 65
45 47 47 48 49 36 47 50 54 69 71 70 73 68 71 67 69 66 66 64 62 70 96 86 84 79 71 69 66 71 91 89 86 63 67 75 69 68 65 64 67 67 66
48 49 49 50 50 52 50 54 54 65 71 76 75 72 66 57 69 73 78 73 76 79 66 67 72 71 71 69 94 93 86 89 86 72 75 87 69 70 62 55 66 67 68
50 52 51 52 54 46 56 55 57 69 73 76 74 75 77 74 78 67 65 97 88 73 62 58 63 67 85 74 66 70 88 91 84 69 63 91 70 73 64 62 69 70 70
53 53 52 53 56 60 59 58 60 70 71 71 68 75 78 71 66 66 84 84 67 64 58 64 74 68 65 67 69 80 91 92 87 74 68 79 81 84 78 73 65 71 69
48 48 49 55 60 63 62 61 58 63 70 64 66 66 64 62 64 75 60 64 76 66 82 87 60 63 66 68 71 71 84 96 93 91 71 91 90 89 92 73 79 73 68

GFSMA_sfc_rhum_039.txt.gz
RH
72 62 65 67 66 59 49 49 45 40 34 26 23 25 28 30 28 39 27 63 55 53 53 56 55 56 54 54 55 56 55 56 56 57 58 59 60 60 60 60 61 64 66
72 79 58 56 53 48 44 39 35 32 27 23 21 24 30 26 36 29 31 40 54 53 53 54 53 52 53 52 52 52 52 53 53 57 59 59 58 58 58 58 61 62 61
76 61 55 54 48 39 32 30 32 29 26 24 21 25 28 25 39 27 32 33 32 52 52 51 50 50 50 51 51 50 50 52 53 55 58 57 57 57 58 58 59 58 59
56 54 49 40 38 33 32 30 32 32 28 27 24 25 26 31 25 29 32 32 31 29 37 46 44 44 46 47 49 50 51 52 53 56 55 55 55 55 56 55 56 59 61
46 46 44 34 29 31 33 29 34 36 32 28 26 25 32 37 27 27 30 32 32 34 31 35 42 42 44 45 49 51 52 50 52 54 54 55 56 55 54 54 57 57 58
40 39 38 32 31 31 29 33 30 34 32 34 26 23 37 42 33 30 28 28 29 32 31 29 26 25 41 45 49 50 50 53 53 54 54 56 55 55 56 57 59 58 58
35 34 33 32 32 31 28 25 31 32 34 37 30 29 32 34 40 38 25 30 31 31 29 23 20 22 25 42 45 48 51 52 54 54 55 56 55 56 59 59 59 58 58
34 31 32 33 31 32 30 29 31 32 34 43 33 38 32 24 31 26 35 32 30 28 25 21 22 24 27 28 37 48 50 54 55 56 56 55 57 59 59 59 58 57 56
31 32 33 32 34 34 34 35 36 39 34 40 37 30 28 28 38 29 28 33 27 27 24 25 25 25 28 29 37 40 48 52 55 57 59 59 59 60 59 59 58 58 56
33 30 32 31 32 34 33 33 32 34 37 35 36 31 39 36 31 30 31 28 29 25 28 28 26 28 30 31 39 47 50 53 56 60 61 62 62 61 60 59 58 58 56
30 31 32 35 33 33 33 33 33 34 32 36 37 38 38 35 42 45 33 30 29 28 29 29 29 29 30 33 36 41 49 55 59 61 64 63 62 62 61 60 58 58 57
31 32 31 33 32 33 34 34 34 36 34 38 38 38 36 36 35 37 38 38 40 30 32 32 32 29 30 32 38 49 54 58 61 62 64 64 62 61 61 60 59 58 58
30 30 30 29 31 35 36 36 40 44 42 40 37 34 38 40 40 41 44 42 42 38 35 31 31 30 30 33 36 51 56 57 58 61 65 66 62 59 59 60 60 59 58
28 30 29 29 30 32 32 35 40 41 43 40 38 37 38 38 41 44 45 49 52 38 34 34 30 33 35 36 46 56 43 55 58 61 62 61 58 57 57 57 58 58 64
26 29 30 31 32 32 33 38 37 34 35 36 37 39 40 41 44 45 47 49 54 56 51 37 38 35 40 42 45 41 42 54 59 61 61 60 59 58 62 64 64 62 63
28 30 30 31 32 33 33 33 33 36 34 38 38 40 41 43 45 47 50 50 52 57 63 43 45 44 43 41 47 44 42 57 61 63 62 59 58 58 58 62 63 62 62
28 30 30 31 32 32 32 31 32 34 38 42 43 44 47 46 48 47 50 52 54 54 62 55 49 46 47 46 43 44 49 49 50 60 60 61 60 59 59 59 62 63 64
30 31 31 31 31 33 32 31 33 38 42 45 47 49 49 44 50 48 49 52 56 54 61 70 59 54 47 47 49 56 50 42 48 52 59 59 60 60 60 60 60 62 62
32 32 32 32 32 34 34 32 36 41 46 48 50 52 52 50 49 50 53 57 58 56 63 69 61 54 55 60 57 49 44 42 38 52 58 60 62 63 64 64 64 62 62
33 34 33 34 35 34 34 34 43 48 50 50 53 53 52 52 53 56 58 58 59 60 58 65 67 82 66 54 59 56 52 49 50 45 57 59 62 62 63 64 64 63 63
35 36 35 35 35 34 27 42 47 51 54 55 54 51 50 56 63 60 55 57 57 65 73 82 88 66 68 59 55 53 57 58 64 56 56 52 50 52 55 62 62 65 66
36 36 36 37 36 30 48 51 51 50 53 55 54 50 51 62 62 64 64 64 63 66 91 89 82 70 56 54 56 61 80 80 79 53 57 61 55 55 53 52 62 66 66
36 37 36 37 37 38 52 54 54 50 54 53 52 52 52 50 61 60 67 69 68 89 70 66 62 58 61 58 86 93 82 82 78 62 66 73 55 56 51 46 63 66 68
36 36 37 38 40 39 58 55 57 51 54 53 54 54 56 57 59 62 58 90 88 62 52 50 55 59 75 76 62 64 76 80 73 60 55 84 59 61 54 54 67 69 69
37 38 39 41 44 48 60 59 56 52 53 53 54 54 57 53 61 61 74 88 58 53 53 61 71 70 65 66 67 74 87 86 82 66 60 68 66 74 69 66 56 65 66
37 39 40 44 56 49 61 60 56 52 56 54 54 50 58 59 62 69 62 59 68 55 71 82 51 52 57 58 69 62 79 95 90 89 59 83 83 81 85 60 64 63 59

GFSMA_sfc_rhum_042.txt.gz
RH
48 46 46 46 48 48 43 42 39 35 29 24 21 20 22 21 20 23 22 63 54 52 55 56 54 55 54 54 54 54 54 55 57 58 61 63 62 62 62 62 64 64 64
61 55 55 53 49 44 41 36 31 28 25 19 17 17 19 18 21 23 22 36 57 55 54 52 52 51 52 51 52 53 52 53 54 56 57 60 60 60 61 61 62 62 61
62 61 53 50 42 34 28 27 26 22 20 19 18 17 18 16 24 22 24 24 31 52 49 48 45 44 46 47 48 49 50 53 54 53 57 57 56 57 57 58 58 59 60
62 53 48 41 32 30 26 24 23 24 22 21 19 18 18 20 21 22 25 23 25 21 33 43 45 44 45 45 47 49 50 51 51 52 55 56 55 56 57 57 56 56 56
48 46 36 33 25 26 26 22 26 23 24 22 19 17 22 26 24 19 23 23 27 27 24 26 32 31 38 45 48 49 50 51 52 54 54 56 57 58 56 57 56 57 60
41 40 31 26 24 25 24 25 25 24 23 22 17 16 25 29 24 24 23 18 23 26 24 24 20 20 29 37 43 46 52 53 52 53 55 56 56 58 57 57 58 59 59
34 34 28 25 25 24 22 20 23 25 26 25 22 20 23 24 31 29 24 20 24 23 21 18 17 17 18 32 35 44 51 53 54 55 56 57 58 57 59 59 60 59 59
34 33 26 26 24 23 23 22 24 26 26 28 25 28 24 20 23 26 20 23 20 21 19 18 19 19 21 22 29 44 46 52 56 57 57 58 59 60 60 60 60 58 58
26 30 26 25 25 25 27 27 28 30 27 28 26 25 25 24 24 19 21 19 21 20 20 22 22 21 22 22 29 32 42 52 57 60 61 62 61 60 60 60 59 58 57
29 25 24 24 25 25 26 26 23 24 26 27 27 22 29 24 24 23 20 19 20 19 22 23 22 22 23 24 33 39 44 50 58 62 63 63 62 62 61 60 59 58 58
30 27 24 26 25 25 26 27 26 25 22 27 28 27 26 25 26 31 30 22 21 21 22 23 23 24 23 24 27 34 44 54 61 64 65 64 63 62 62 60 59 57 57
32 25 24 25 25 26 27 27 27 28 26 30 28 27 28 28 26 29 29 30 30 23 22 24 25 24 24 24 30 41 49 56 61 65 66 66 64 63 63 62 61 59 59
30 26 24 22 24 28 28 28 33 38 36 33 30 26 27 28 29 31 33 32 31 26 25 24 22 23 22 26 29 43 52 57 57 61 66 67 63 61 61 62 62 61 62
26 24 22 22 24 25 25 28 32 33 37 32 31 29 29 28 30 33 36 38 39 30 26 25 22 23 27 27 37 49 37 49 54 58 62 63 61 59 59 60 62 62 64
21 23 23 23 24 24 24 30 27 25 26 28 28 31 32 32 34 34 35 37 42 44 37 28 26 24 28 31 37 33 34 47 53 57 60 60 59 58 59 59 60 59 61
21 23 23 23 24 24 24 24 23 25 25 26 29 32 33 32 34 35 38 38 39 42 46 32 29 30 32 31 37 34 34 49 54 57 58 57 57 58 60 62 63 62 62
21 21 21 22 23 23 22 21 22 24 28 31 33 35 37 36 37 34 36 36 39 40 44 41 36 35 38 38 34 36 40 40 38 48 52 56 58 60 61 61 62 64 65
20 21 21 21 22 23 21 20 22 26 31 34 35 38 38 33 37 34 35 38 40 41 47 53 48 45 41 39 42 46 37 29 33 43 53 56 59 60 61 62 62 64 64
22 23 23 23 22 24 23 21 25 28 33 35 38 40 40 38 37 38 40 44 45 42 53 62 59 46 46 50 49 43 39 37 32 46 51 55 58 61 63 63 63 62 62
24 24 24 24 25 23 24 26 32 35 36 36 40 42 41 40 40 42 43 44 43 49 47 51 57 66 72 52 52 48 43 43 44 39 50 53 57 58 60 60 60 61 62
26 26 26 25 25 27 20 35 36 37 38 38 38 38 38 44 57 57 51 50 50 55 66 76 76 79 67 53 43 45 50 51 55 52 51 49 45 48 50 57 56 59 60
28 28 27 26 27 23 42 51 50 40 38 39 38 37 36 46 46 57 59 60 62 71 94 95 85 69 48 43 48 54 69 84 72 50 51 57 52 52 50 48 57 60 62
28 28 27 27 26 28 46 54 54 43 40 39 40 40 38 37 48 45 53 60 63 67 70 62 58 46 49 49 75 92 79 76 72 57 61 68 52 51 48 42 59 62 64
27 26 27 28 30 28 53 56 57 42 39 40 40 41 44 45 45 49 51 74 78 58 44 41 46 48 59 70 68 60 69 74 68 58 53 79 57 58 51 50 63 66 67
27 26 29 30 30 31 47 58 55 41 40 41 40 40 44 45 52 60 65 91 51 44 43 51 59 68 68 61 61 67 86 85 80 66 60 66 64 71 68 65 54 56 58
29 29 28 29 36 33 43 57 54 43 43 41 42 40 49 49 58 64 66 53 58 44 56 76 56 46 48 49 60 58 76 95 88 88 60 80 81 77 85 62 64 62 57

GFSMA_sfc_rhum_045.txt.gz
RH
45 44 44 45 46 49 48 45 41 37 33 29 26 23 23 22 21 26 37 65 57 57 57 57 55 55 54 53 54 54 55 55 56 57 58 60 62 61 61 62 63 64 65
45 47 48 51 49 46 44 39 36 34 31 24 21 18 18 21 20 25 27 49 59 57 53 52 48 46 46 46 46 47 49 51 54 55 55 58 59 58 57 58 59 60 61
55 53 51 53 47 39 34 33 30 27 24 23 21 19 19 18 21 22 28 30 48 52 47 46 44 44 46 46 46 47 49 50 52 52 54 55 57 57 56 58 58 57 56
56 53 52 47 38 36 32 30 27 26 26 24 22 24 21 23 22 21 26 27 34 28 46 38 37 38 38 45 50 49 50 51 51 53 55 55 56 56 57 58 56 57 57
56 50 46 39 33 32 30 25 28 24 26 26 25 21 28 30 27 20 24 26 31 33 32 30 27 30 28 35 45 48 50 52 54 54 54 56 57 58 57 58 58 58 58
50 46 39 33 30 30 28 29 28 26 25 25 18 19 28 31 33 33 27 22 25 28 28 31 30 27 30 28 37 41 48 53 54 53 56 57 59 58 58 59 59 58 58
44 41 36 32 30 28 26 23 26 28 30 28 30 31 30 30 34 34 33 26 26 26 25 24 23 24 23 31 32 36 48 50 52 56 56 57 58 59 59 60 59 58 58
41 35 35 32 27 26 25 25 26 30 30 31 29 36 38 32 30 32 29 25 24 26 23 22 22 24 27 28 34 38 39 46 57 57 58 59 62 61 62 60 59 58 58
46 45 43 31 30 31 34 32 33 37 36 33 29 32 36 36 31 26 26 24 24 27 25 26 25 25 25 27 32 35 39 46 53 59 62 62 62 62 61 60 59 59 58
39 34 31 29 29 31 31 31 26 27 34 33 33 23 36 30 30 30 28 25 24 21 25 26 25 26 27 30 34 36 39 43 53 61 64 64 63 62 61 60 59 58 57
34 29 33 34 30 30 28 30 28 27 24 31 32 32 30 30 28 34 38 31 26 25 26 25 25 26 27 30 34 35 37 46 55 61 66 66 64 62 62 60 58 59 62
37 31 30 30 29 31 31 29 30 31 29 33 31 29 31 33 31 35 35 36 36 28 26 26 28 28 29 29 30 37 41 48 57 62 64 64 64 62 62 62 62 61 64
39 36 29 26 28 32 30 30 38 44 41 39 34 29 28 30 31 32 36 39 38 32 30 26 25 25 22 28 32 40 45 50 52 56 62 64 61 60 60 61 63 63 64
34 29 25 24 26 26 27 32 38 38 41 38 35 34 34 31 32 34 39 44 46 39 33 31 26 25 28 29 34 42 37 46 49 53 57 59 58 58 58 60 64 61 60
27 26 26 24 24 24 24 33 31 26 26 28 31 34 35 35 37 38 39 41 48 52 46 35 32 28 29 32 36 35 36 45 48 51 54 55 55 55 56 58 60 65 67
30 25 24 24 24 23 23 24 24 25 24 27 30 32 34 35 36 39 43 42 42 47 52 38 36 33 34 33 39 37 36 46 49 51 54 53 51 54 56 58 60 62 63
26 23 22 22 22 22 21 21 21 22 26 29 32 34 36 36 39 38 40 40 43 44 50 44 42 40 42 44 41 39 42 43 43 50 51 52 53 55 57 59 60 61 62
21 20 20 20 20 21 20 19 20 23 27 30 32 36 37 31 40 38 38 41 44 43 51 56 49 50 49 46 43 48 44 38 39 43 49 52 54 56 57 59 60 61 62
21 20 21 21 21 23 21 20 22 24 28 32 35 38 40 40 40 41 42 45 47 42 49 54 56 50 50 50 57 56 47 43 35 45 50 52 55 58 59 58 58 59 59
23 23 22 23 23 22 23 24 29 32 34 34 36 39 38 41 41 42 46 51 48 53 54 58 62 69 67 70 62 56 50 47 49 40 50 56 56 56 58 56 58 60 60
24 25 25 24 24 27 20 35 37 38 37 36 37 36 37 44 48 50 49 56 57 61 70 79 80 80 81 62 56 50 53 57 58 62 59 56 54 54 56 58 56 59 59
28 28 27 25 26 22 43 48 51 44 40 38 40 36 36 43 42 48 54 54 54 61 83 95 90 81 69 55 52 58 72 82 88 58 61 63 58 59 57 55 57 58 60
29 28 27 26 26 27 42 52 54 46 43 40 39 40 39 34 46 45 50 53 58 63 65 65 68 59 57 53 72 84 86 83 76 65 67 77 66 64 57 49 60 61 63
28 26 27 27 29 26 44 52 56 46 39 39 39 41 43 44 45 48 51 70 74 73 61 45 50 52 56 63 83 90 73 74 72 65 62 86 67 68 60 60 65 66 66
28 26 30 29 29 28 41 50 55 45 42 42 39 40 42 45 48 53 60 81 74 56 48 50 55 61 64 60 56 61 85 88 85 72 66 75 75 78 74 71 63 60 60
31 31 30 27 28 32 34 45 53 46 46 44 46 43 48 45 52 57 58 63 67 57 60 68 63 57 51 52 57 58 74 97 93 90 70 85 89 86 91 68 73 68 68

GFSMA_sfc_rhum_048.txt.gz
RH
62 64 68 67 72 62 65 59 56 52 47 39 36 30 28 32 28 48 76 74 65 60 59 56 54 51 49 48 47 48 50 50 53 54 55 55 58 59 59 58 58 59 61
65 68 70 71 69 64 61 60 55 46 44 33 31 27 28 30 28 32 65 75 62 56 54 49 47 46 46 46 46 46 48 49 52 54 52 55 54 57 57 56 57 58 58
70 75 74 72 67 58 52 46 41 38 39 34 35 29 28 28 27 30 43 65 64 56 46 43 41 41 42 45 48 48 49 50 52 52 54 56 55 56 56 57 58 58 57
72 73 74 69 52 54 49 45 43 43 41 38 38 35 33 34 33 32 36 43 54 48 45 37 33 33 34 37 44 49 50 52 54 56 54 55 57 57 58 59 58 59 58
70 70 67 56 51 49 45 40 42 40 41 41 34 30 38 40 36 26 35 34 36 39 43 32 30 33 29 34 37 43 47 52 54 56 55 57 57 58 59 59 59 59 58
68 68 58 52 48 46 42 45 41 40 41 41 26 29 40 44 40 40 37 30 37 33 35 32 36 36 34 33 38 40 42 51 51 55 58 57 58 59 59 59 59 58 58
62 55 56 46 45 45 42 36 40 42 47 44 45 44 44 40 46 42 42 40 36 33 31 32 34 36 36 33 35 37 43 44 50 57 57 59 60 61 62 60 60 59 58
62 53 50 44 39 37 34 33 42 43 46 43 42 50 50 45 41 39 49 34 33 32 31 27 30 30 35 40 42 36 38 44 51 55 57 60 61 62 61 61 60 59 58
66 70 68 51 37 42 46 42 43 46 50 45 39 48 49 52 45 40 36 40 30 39 34 34 32 31 33 37 41 42 37 42 48 55 58 62 62 62 61 60 59 58 57
61 57 62 50 39 47 44 42 39 39 48 46 46 35 45 42 46 46 42 37 33 29 35 38 35 33 33 40 42 40 37 40 46 54 60 62 63 62 61 59 58 57 56
59 51 43 47 42 44 37 40 39 37 39 49 48 47 42 45 42 48 55 48 42 39 39 40 38 39 35 36 44 42 36 40 48 55 61 63 62 62 61 60 61 61 62
51 41 36 39 40 43 43 42 42 43 44 46 45 43 46 48 48 51 54 52 50 43 41 39 39 40 39 43 38 37 38 41 49 54 59 60 60 60 59 59 59 59 62
47 46 44 41 44 43 43 47 55 56 53 56 45 46 44 44 46 46 52 58 60 50 47 42 41 40 30 41 41 45 44 45 48 54 59 61 58 57 57 58 59 60 63
48 42 42 38 34 38 44 51 57 58 55 59 44 45 48 46 47 49 54 61 61 62 51 50 40 41 42 43 45 44 47 48 50 53 56 57 55 55 56 57 58 58 61
35 38 34 31 35 35 38 46 51 41 39 41 42 45 48 50 52 54 56 58 67 65 58 56 52 41 46 46 49 43 43 48 51 52 53 53 53 54 55 55 56 59 62
31 31 37 30 31 33 32 36 36 33 33 40 42 41 46 50 52 56 60 61 63 67 62 51 47 51 50 42 46 44 45 51 51 53 55 53 53 54 55 56 57 60 63
29 29 33 28 30 30 29 30 30 31 33 38 41 45 48 48 55 57 59 59 61 64 62 52 50 51 59 56 49 51 49 47 50 55 54 54 52 53 55 56 57 59 59
27 26 25 27 28 28 26 26 28 30 35 40 43 47 50 39 54 56 58 57 61 62 62 64 59 58 61 56 52 54 51 52 53 49 53 51 54 55 56 58 59 58 58
28 29 27 29 30 31 28 27 30 34 38 42 46 49 52 54 58 60 59 64 68 55 67 69 69 62 60 62 66 69 65 53 45 47 50 54 55 60 61 59 59 58 58
28 29 31 32 32 29 29 31 37 42 46 46 49 52 51 53 56 58 59 66 62 72 70 72 73 79 76 77 79 72 64 58 53 47 53 60 65 60 61 59 61 61 61
31 33 34 32 31 34 31 48 52 54 54 52 51 48 48 54 49 49 49 68 72 76 77 85 87 81 76 75 76 68 62 61 61 64 72 65 62 62 62 62 61 62 62
36 35 35 32 40 23 43 47 54 60 58 55 56 52 50 51 51 48 51 53 54 61 81 83 87 92 89 79 62 65 70 80 86 69 76 69 64 66 65 64 63 63 63
38 34 34 34 32 42 44 47 51 60 62 61 56 54 50 39 54 58 59 53 57 60 63 67 77 72 64 61 78 84 85 93 87 70 73 81 67 70 64 55 65 66 65
36 36 34 33 35 37 44 47 54 62 58 57 54 54 57 58 59 54 56 83 84 83 78 66 60 59 62 64 68 91 84 78 75 71 71 91 71 72 65 67 68 69 69
33 33 35 34 37 42 44 43 53 63 59 60 53 55 56 59 55 52 64 85 75 77 57 59 58 62 64 63 59 62 85 89 85 74 70 79 78 82 78 74 67 67 62
37 37 35 36 37 41 37 41 49 61 69 66 66 62 59 51 56 57 60 67 75 68 69 75 68 68 62 66 61 67 78 96 94 90 75 87 88 88 91 70 79 68 71

GFSMA_sfc_rhum_051.txt.gz
RH
75 77 84 83 87 84 80 71 60 56 46 36 33 29 31 34 51 70 91 76 68 62 58 54 50 49 48 48 48 48 49 50 52 55 54 55 55 55 58 58 56 58 59
66 72 79 82 77 72 69 64 60 52 40 34 34 30 31 32 40 69 81 82 64 58 53 49 46 45 45 45 48 49 49 51 53 53 56 57 57 56 57 57 58 58 58
70 80 78 77 72 64 54 46 44 41 41 35 35 33 31 31 34 52 74 76 69 58 44 39 37 38 39 40 45 49 50 52 55 56 56 55 56 58 57 59 59 58 59
77 78 76 74 67 62 54 48 46 44 44 42 39 37 36 38 35 42 62 64 60 54 47 35 33 34 33 38 40 44 47 52 54 55 55 58 58 58 60 59 60 59 59
72 72 74 66 58 52 49 40 43 42 43 42 35 33 43 45 38 35 42 43 47 50 48 34 36 35 34 36 40 44 43 47 52 54 57 58 60 59 60 60 60 59 58
70 69 64 60 53 49 50 44 40 46 45 42 27 35 45 49 45 44 39 35 40 37 38 35 39 37 33 33 36 40 42 47 48 52 57 58 59 60 60 60 59 59 58
66 61 60 54 50 46 43 40 46 43 45 45 43 43 49 46 46 46 48 44 39 36 33 34 36 37 36 34 34 38 40 43 48 50 55 58 59 60 60 60 59 58 58
65 58 54 51 47 44 40 38 38 48 44 44 39 56 46 41 44 45 54 40 38 36 32 28 31 32 37 41 44 36 36 40 46 50 53 57 58 59 60 59 59 58 57
69 63 65 62 45 44 46 44 44 46 50 46 42 46 47 48 47 42 43 44 35 42 37 40 35 34 34 38 42 42 39 39 44 49 53 55 58 60 60 59 58 57 56
72 63 69 60 61 57 48 45 41 43 50 48 46 39 48 45 39 33 42 44 40 34 40 42 42 38 36 42 43 46 41 38 43 48 52 56 59 60 59 58 57 56 59
62 60 53 49 57 63 56 46 38 39 42 49 52 50 45 50 47 49 49 50 46 43 43 46 43 43 40 42 49 48 44 39 44 49 53 57 59 59 59 57 57 57 59
70 50 45 52 56 56 63 49 49 40 43 47 48 47 49 48 52 52 56 57 54 50 46 44 46 46 46 48 39 46 43 45 48 52 55 57 59 59 59 58 57 58 60
59 45 46 52 55 54 52 49 54 54 54 51 44 48 48 48 51 51 55 58 61 60 53 51 47 48 36 47 49 46 47 48 50 54 58 60 58 57 57 57 58 57 58
55 47 46 48 46 47 52 55 57 60 58 58 45 46 50 49 51 53 55 61 70 68 62 55 51 50 50 52 46 47 55 52 53 55 58 58 57 56 56 56 56 59 59
46 42 44 45 48 50 48 49 50 41 46 46 45 47 51 54 56 58 60 63 67 75 62 64 58 50 53 55 54 51 51 52 55 55 55 57 56 55 55 56 55 60 61
36 39 41 40 43 46 38 41 38 35 36 43 46 43 48 53 54 58 62 64 68 74 71 60 54 58 55 47 52 49 48 54 56 58 58 57 56 56 56 56 59 58 65
36 36 35 35 37 34 31 32 36 33 34 38 42 46 48 50 57 60 63 64 65 69 70 61 61 62 67 66 57 56 57 52 54 60 59 57 56 55 56 56 57 59 62
32 31 32 33 30 28 28 32 34 31 36 38 42 46 48 41 54 58 63 63 67 68 75 70 68 66 69 66 61 63 58 54 62 58 58 54 55 56 58 60 61 64 59
32 30 28 28 28 31 28 31 33 35 38 42 46 49 51 54 58 64 64 67 71 57 76 77 73 70 72 72 74 73 73 68 55 56 54 55 58 62 64 62 61 61 61
35 32 30 31 32 31 32 40 44 48 52 49 52 54 55 56 59 62 60 67 64 77 82 81 80 84 80 67 78 79 74 66 61 48 53 58 63 65 63 62 64 64 64
34 34 37 40 42 36 36 51 54 58 56 55 55 52 53 55 50 50 52 69 76 82 88 92 93 85 75 74 82 74 73 67 62 62 68 70 75 64 65 66 64 66 67
35 37 38 39 34 35 50 52 56 59 60 60 64 60 56 56 53 50 50 51 54 67 92 95 89 83 81 79 69 69 74 81 84 68 77 74 67 69 67 66 66 65 65
35 39 40 38 39 49 48 49 52 60 65 65 62 59 55 43 62 64 62 57 58 58 61 71 84 85 83 68 77 86 90 95 89 73 76 81 68 71 66 58 66 67 68
49 41 35 36 41 44 48 48 53 64 65 61 59 61 65 67 67 59 65 81 82 84 83 76 76 69 67 67 74 82 80 79 77 70 69 89 71 72 66 67 69 70 70
36 36 37 36 39 53 45 42 55 64 63 67 63 65 67 69 62 56 66 86 83 79 64 60 60 64 65 64 61 66 85 89 87 75 70 79 78 82 77 74 67 69 63
39 38 36 36 43 41 37 38 45 61 67 67 70 71 67 57 58 59 63 70 77 71 71 79 72 67 62 68 65 69 82 95 94 92 75 91 89 90 90 89 84 70 73

GFSMA_sfc_rhum_054.txt.gz
RH
96 94 97 98 98 96 94 94 77 61 44 35 33 32 37 42 67 80 96 79 73 64 59 52 50 50 48 47 48 49 50 51 53 54 56 57 58 58 58 57 59 59 59
87 88 91 90 93 92 87 76 65 54 40 36 32 31 34 40 65 83 92 87 70 60 53 48 44 42 42 42 46 50 50 52 55 56 57 55 57 59 58 59 60 60 60
78 79 84 90 84 78 69 58 45 43 40 36 35 33 33 34 46 75 84 80 74 62 45 40 37 37 36 39 42 44 47 52 54 55 55 58 59 58 61 60 60 59 59
68 81 84 82 74 66 56 51 46 45 45 42 38 38 39 40 40 75 73 69 64 58 46 36 33 33 36 38 40 45 44 48 52 54 56 58 58 59 60 59 60 59 59
76 80 80 79 69 60 54 46 48 44 44 42 37 36 45 48 43 46 66 59 59 58 50 37 38 35 33 34 38 42 44 44 49 50 56 58 58 59 59 59 59 58 58
80 79 78 68 58 54 50 45 42 47 45 41 29 38 49 53 47 50 47 39 49 44 44 38 39 38 32 31 33 37 42 43 45 49 51 55 57 58 58 58 58 58 58
75 73 67 58 53 48 47 39 45 39 43 47 42 45 47 48 46 47 50 45 44 39 37 36 38 39 38 32 33 36 38 41 43 47 50 54 57 57 57 58 58 57 57
75 76 60 53 48 48 44 43 45 50 47 47 42 54 45 40 46 42 53 46 44 41 35 32 35 35 38 43 45 36 35 37 42 46 49 52 55 56 57 58 57 57 56
79 78 66 61 56 52 48 44 48 47 49 48 44 46 52 44 47 41 46 44 39 43 42 42 37 38 38 41 46 48 44 38 42 47 51 52 54 55 57 58 57 57 56
82 78 70 66 69 66 48 52 51 56 56 47 49 39 48 43 34 29 39 44 44 36 41 46 45 42 42 49 48 49 48 45 43 47 50 53 55 57 58 58 58 56 56
88 78 69 65 69 71 56 54 56 54 54 54 53 50 46 50 47 43 37 46 47 45 45 47 47 49 46 49 56 54 47 47 49 52 55 57 58 58 59 58 58 57 58
91 80 64 70 73 64 64 61 47 46 49 47 51 49 50 48 51 52 54 55 54 50 49 48 48 50 50 50 41 48 48 50 53 55 58 60 59 60 59 59 58 56 56
83 77 70 67 68 58 50 50 56 60 50 48 44 49 51 50 53 52 54 55 57 58 54 53 51 52 39 52 55 48 50 52 53 57 62 63 60 58 58 59 58 58 56
77 72 63 58 57 47 52 57 63 64 55 54 44 47 53 52 52 54 55 58 64 66 63 51 53 52 54 54 53 52 59 55 55 57 60 61 59 58 58 58 57 57 56
66 64 60 53 50 50 51 57 57 50 48 46 45 45 53 57 60 60 62 64 65 69 67 60 58 53 56 58 59 53 60 58 57 58 59 59 58 58 58 57 56 58 70
56 59 54 48 49 47 47 46 43 39 39 46 46 43 49 56 57 62 64 66 72 72 77 67 58 60 58 51 55 52 56 59 61 62 61 60 59 58 57 58 63 60 58
49 44 40 42 42 41 39 38 41 34 36 39 42 44 49 51 57 62 66 67 69 74 77 66 68 65 72 69 63 64 63 60 61 63 63 62 61 59 57 58 57 60 61
41 41 37 38 39 40 32 34 37 42 47 44 43 48 49 42 56 60 66 66 69 70 76 73 74 79 77 74 75 72 64 57 64 66 66 62 59 58 59 60 61 63 65
35 34 34 33 32 32 31 31 33 36 40 46 51 52 52 57 61 66 68 70 72 60 77 80 76 80 83 82 80 74 80 76 64 62 60 60 60 62 64 63 62 62 62
38 39 38 35 33 34 44 50 55 62 66 56 54 56 56 58 59 61 62 66 65 75 79 82 81 87 93 85 83 81 75 67 66 53 57 60 64 64 65 65 65 65 66
38 40 44 53 61 65 61 67 71 69 59 53 58 56 57 58 55 53 55 69 74 78 83 92 90 98 95 81 79 76 76 70 67 67 70 74 75 80 71 68 66 66 68
59 64 77 77 63 52 65 63 59 58 56 58 64 62 58 55 58 56 55 53 54 71 95 98 98 95 87 84 78 80 78 86 87 70 85 73 68 69 68 68 68 67 66
65 70 56 49 60 64 56 52 60 59 64 64 63 64 59 51 67 68 66 60 62 61 60 70 85 87 89 83 81 90 91 96 85 76 76 81 69 71 67 60 66 67 68
75 73 70 67 66 55 51 51 59 63 66 65 67 67 72 73 72 65 70 83 84 83 80 75 84 82 79 75 79 82 77 81 78 72 70 89 70 73 66 66 68 69 70
60 58 46 41 52 56 48 47 60 67 63 64 65 68 72 75 66 60 70 89 84 82 67 61 61 64 67 64 61 71 88 91 87 76 70 80 81 80 76 73 67 71 66
82 63 52 43 43 43 44 38 48 65 64 63 68 70 67 62 61 62 67 78 83 73 72 80 73 63 62 68 66 72 85 96 94 93 82 95 89 88 90 90 78 80 67

GFSMA_sfc_rhum_057.txt.gz
RH
99 99 98 98 98 98 97 97 90 63 47 39 36 37 39 63 67 88 97 81 75 64 58 53 51 49 46 46 49 51 52 54 56 57 58 56 57 58 58 58 60 60 60
98 98 98 98 98 98 97 94 76 55 41 36 33 35 40 63 77 90 95 89 73 61 54 48 43 42 41 42 46 47 49 54 56 57 56 58 59 58 60 60 59 59 59
95 95 97 98 97 96 90 75 54 44 42 37 36 33 34 46 74 87 88 84 75 64 47 41 39 38 39 40 42 46 46 51 54 55 57 59 58 59 58 59 59 59 59
86 94 94 95 89 85 75 58 50 47 46 42 39 41 42 42 57 83 80 75 66 60 46 38 35 35 35 36 40 43 45 44 49 51 55 58 58 58 58 58 58 58 58
79 85 88 92 80 72 63 51 51 47 45 42 38 41 48 50 53 67 71 63 62 58 51 38 37 35 33 34 37 40 42 43 46 48 52 54 57 58 58 58 58 57 57
77 81 89 84 72 65 59 51 47 48 45 41 32 41 53 56 51 62 66 48 60 51 47 42 40 40 36 31 33 36 41 42 44 47 48 52 55 57 57 57 57 57 57
79 78 82 76 66 58 50 44 46 40 42 47 46 48 54 53 49 52 50 47 46 41 37 36 39 40 40 41 38 37 38 40 40 44 48 50 53 56 56 56 56 56 56
84 81 80 70 61 57 47 44 45 49 46 49 44 54 50 46 50 48 58 48 47 44 36 35 36 36 40 44 49 45 46 41 41 45 48 51 53 55 55 56 56 57 56
87 83 81 69 58 52 52 57 51 46 50 48 48 51 54 47 52 43 51 47 43 44 43 41 40 39 40 44 50 54 52 48 47 48 50 52 53 54 55 56 57 57 57
94 92 88 75 71 80 74 76 66 63 52 45 50 42 49 48 37 31 43 47 44 37 40 45 45 44 45 53 54 54 49 50 50 53 55 56 57 58 58 58 58 58 55
94 92 88 83 78 80 80 74 78 68 50 55 54 52 49 50 42 37 35 44 48 47 46 46 48 48 46 50 52 54 49 51 54 55 57 57 59 61 61 60 59 58 56
96 92 85 86 83 80 73 75 73 64 53 57 52 50 50 46 51 47 50 54 53 48 49 49 49 51 51 51 43 50 50 52 54 57 60 62 62 62 61 61 60 59 57
96 90 83 86 83 80 71 62 63 58 59 55 46 48 51 48 54 53 54 56 54 58 56 53 52 54 42 56 59 50 52 54 56 59 63 65 63 61 61 62 61 60 58
92 86 85 81 77 64 61 61 63 60 56 54 44 46 53 50 51 54 52 58 61 68 67 52 54 55 55 58 56 53 63 56 58 60 63 64 62 61 60 60 60 59 57
86 85 81 74 64 58 54 56 56 50 46 48 47 48 51 56 56 57 62 63 62 62 68 61 59 57 58 61 61 61 64 61 60 60 61 61 61 60 59 59 58 57 58
79 78 72 60 53 53 50 48 46 44 42 48 48 45 48 54 57 59 62 65 70 68 73 70 62 63 61 52 61 60 65 62 62 63 63 62 62 61 60 59 59 61 58
72 66 61 53 48 46 40 38 39 41 46 50 49 48 50 49 55 62 66 70 73 77 79 69 70 66 71 71 66 69 70 68 67 65 66 65 64 62 59 59 59 58 60
64 57 49 43 41 39 35 36 37 42 49 55 53 48 47 42 53 57 61 67 72 73 77 72 78 79 79 75 77 81 66 59 66 66 69 66 62 61 62 62 62 61 63
45 44 43 44 39 39 38 40 42 42 44 51 59 64 58 53 55 62 64 70 72 61 77 84 77 84 85 86 87 85 84 79 68 65 63 63 63 64 66 64 63 63 62
43 42 41 38 38 39 45 52 59 66 68 64 62 60 56 57 59 59 59 66 65 76 81 82 79 88 91 86 95 90 80 74 72 57 61 64 66 66 63 64 66 67 67
41 44 49 60 69 74 72 80 82 86 80 58 54 54 56 59 54 56 60 73 76 80 82 91 91 97 97 94 87 78 85 78 76 73 74 80 79 77 70 68 67 67 68
67 72 79 83 86 80 87 82 70 59 56 57 60 60 60 56 64 60 59 57 57 75 96 98 97 98 93 90 81 85 85 91 89 78 91 76 72 71 67 68 68 69 68
85 90 89 82 88 87 82 80 68 65 72 64 61 65 61 54 72 72 69 63 65 63 62 74 88 87 87 83 85 92 91 95 88 72 78 82 70 73 66 60 67 68 68
93 95 96 98 99 89 74 72 64 59 60 62 64 71 74 75 78 69 74 85 85 83 80 76 85 81 83 80 88 87 83 81 80 75 75 90 72 73 65 67 69 69 70
98 99 97 85 73 67 55 57 60 62 59 63 65 70 74 78 70 62 73 89 83 83 68 62 62 66 68 65 62 71 90 93 88 78 72 80 85 80 74 70 64 70 67
99 93 81 76 65 54 52 42 52 63 64 65 71 71 68 66 64 63 67 78 86 74 74 84 71 64 63 68 69 74 88 96 94 92 85 97 86 92 93 91 91 79 66

GFSMA_sfc_rhum_060.txt.gz
RH
98 99 99 98 98 98 97 98 92 65 54 44 41 40 52 65 68 91 97 83 75 65 56 54 53 48 47 49 52 52 53 57 58 59 56 58 60 59 60 60 59 59 59
98 99 99 99 98 98 98 97 84 54 43 36 37 40 48 68 85 92 95 92 74 61 54 49 46 44 43 45 45 47 50 54 56 57 57 59 58 59 58 58 58 59 59
95 98 99 99 98 98 96 90 64 47 44 37 35 35 45 69 84 90 92 87 78 66 50 44 42 40 41 41 44 45 46 48 50 53 56 58 58 58 57 57 58 58 58
94 97 98 98 98 98 97 80 56 50 48 44 41 41 42 46 78 89 87 76 69 60 50 41 38 37 36 37 39 41 42 44 45 48 51 54 56 57 57 56 56 57 57
90 94 97 97 95 94 87 66 55 50 50 45 40 44 52 49 68 74 80 66 68 58 54 45 42 37 34 34 36 38 41 42 43 45 50 50 53 56 56 55 56 56 56
85 91 96 96 89 85 76 59 51 49 48 43 32 43 56 56 58 79 71 58 65 53 52 46 41 41 41 34 34 36 39 41 41 43 45 49 51 53 56 55 55 55 55
86 86 90 93 85 77 68 51 50 44 46 46 48 52 56 57 52 58 63 54 53 48 42 40 41 42 41 42 43 41 43 43 41 43 46 48 51 53 54 56 55 54 55
90 85 87 88 82 76 62 49 48 50 46 52 46 54 48 48 55 52 60 50 53 48 39 37 39 39 44 47 51 46 46 45 45 47 47 50 52 54 54 54 55 56 56
90 88 88 89 78 69 69 65 63 51 54 49 49 53 56 52 55 48 56 56 50 49 46 42 41 42 44 51 59 61 50 48 49 50 52 54 56 56 56 57 56 57 56
92 90 90 89 83 80 79 80 74 76 76 68 60 43 44 46 47 38 46 49 47 41 44 48 46 46 49 55 50 51 49 50 52 54 56 57 57 58 59 58 58 58 57
92 94 90 91 85 84 88 80 82 78 78 73 68 71 57 46 40 36 33 45 51 50 49 48 50 50 48 53 55 56 50 51 53 56 58 59 60 61 61 60 60 59 57
97 96 94 88 85 86 86 85 81 74 66 66 63 58 57 50 45 44 39 47 48 43 51 53 52 53 54 54 45 50 52 53 56 59 62 63 63 63 63 63 61 60 59
99 98 93 90 88 88 85 83 78 79 70 64 55 54 52 48 53 50 46 51 46 55 57 57 56 56 46 57 61 50 54 55 56 60 64 67 64 63 63 63 63 61 60
96 96 95 94 93 88 84 78 76 71 58 55 44 48 51 52 49 49 50 52 53 62 60 46 51 57 57 59 56 54 65 58 58 60 63 64 63 62 62 62 61 60 59
96 95 94 91 87 78 73 72 68 60 47 48 47 49 54 57 58 56 56 55 51 52 58 55 50 51 58 62 60 64 68 65 61 60 60 61 61 61 61 60 59 58 58
94 94 91 86 80 70 61 54 48 42 42 50 52 49 53 54 57 62 65 66 66 58 63 65 60 57 57 50 59 62 69 63 64 64 62 62 63 62 62 60 59 59 57
90 86 78 73 65 55 48 44 42 42 46 48 51 52 61 64 76 72 72 65 66 68 75 70 68 65 65 63 61 71 73 76 74 66 65 64 65 63 62 61 61 60 59
71 69 59 52 46 39 37 37 39 46 50 57 59 61 64 61 70 65 66 67 62 70 76 78 72 74 76 72 76 82 66 59 68 67 68 66 64 64 64 64 61 63 63
58 50 45 42 41 40 40 44 52 58 58 66 71 76 76 74 71 66 62 72 76 60 75 79 80 83 85 86 87 86 88 84 71 68 65 66 65 67 67 66 64 62 63
52 49 44 42 45 47 52 59 67 75 78 82 80 75 72 70 70 66 58 61 64 73 77 82 84 90 89 86 95 94 86 80 74 63 66 68 67 67 66 65 66 67 67
58 52 56 60 66 69 73 84 88 89 90 90 92 92 92 82 60 57 62 71 74 77 84 96 92 96 98 95 91 82 86 81 80 79 77 79 79 79 76 71 68 68 69
66 72 77 83 90 88 87 86 88 92 93 90 86 64 59 59 72 65 57 57 61 78 95 98 97 96 94 95 93 86 87 92 88 75 89 74 69 71 69 69 70 70 69
85 91 91 90 94 92 89 90 87 91 92 81 63 63 57 54 71 74 71 65 68 64 64 78 94 93 90 84 85 92 92 95 89 76 79 83 70 73 67 61 68 68 68
92 94 97 98 99 97 92 85 83 75 62 62 63 69 74 75 77 70 74 85 85 84 82 78 88 85 87 83 85 86 84 82 79 75 80 92 70 72 65 67 70 69 70
100 100 100 100 96 91 82 81 77 62 59 60 62 71 74 76 69 64 76 91 89 82 66 62 63 67 68 66 64 75 91 93 88 78 73 82 85 84 73 70 63 69 65
99 96 95 95 90 90 74 60 64 62 65 70 72 72 69 67 64 62 67 81 86 77 77 83 76 66 66 71 71 77 90 98 94 93 88 94 93 90 96 90 92 79 63

GFSMA_sfc_rhum_063.txt.gz
RH
78 79 78 74 75 76 72 76 68 52 56 37 33 39 42 40 41 47 55 83 76 64 57 55 51 47 49 51 51 52 56 57 57 56 58 59 60 59 59 58 58 59 58
74 79 80 80 75 74 72 71 64 48 44 32 30 29 36 41 48 62 63 61 75 64 55 50 46 43 44 46 47 48 52 53 54 55 58 58 58 58 58 58 57 57 57
75 75 77 82 76 72 72 71 58 39 34 29 28 28 35 41 52 60 62 56 56 68 54 46 44 43 41 42 43 46 46 45 49 50 54 56 57 57 56 56 56 56 56
76 76 77 79 76 76 72 69 56 41 36 32 30 28 29 41 49 56 59 51 48 41 48 43 42 37 38 37 40 40 42 43 43 47 49 51 52 56 56 55 55 55 55
75 74 75 75 77 78 76 69 53 43 41 37 34 32 33 33 46 53 53 49 47 43 38 45 44 40 35 34 36 38 41 42 42 44 48 48 51 53 55 56 55 54 55
74 77 75 74 78 79 76 67 56 42 39 37 23 30 37 37 42 52 50 42 45 41 40 43 34 36 43 38 36 38 40 43 41 42 44 47 50 52 54 55 56 55 55
76 79 77 73 76 78 73 65 53 45 40 34 36 38 39 41 38 46 49 42 45 39 34 30 27 26 27 42 42 41 45 44 43 44 45 47 50 52 54 55 54 55 54
79 80 77 78 78 76 72 61 50 46 40 38 37 40 40 37 40 39 43 40 39 36 32 29 27 29 31 30 40 45 44 43 45 47 48 50 52 55 55 55 55 55 55
80 80 77 80 76 74 75 66 55 54 47 42 39 40 47 44 41 38 42 41 38 38 32 31 30 31 30 33 41 49 49 49 50 51 53 55 56 57 57 57 56 56 56
84 84 80 82 83 84 79 77 67 61 67 61 49 39 42 40 40 42 36 39 38 36 35 33 30 32 34 36 45 48 47 49 50 53 55 57 57 59 59 58 58 57 57
88 86 83 82 82 82 81 77 77 68 66 67 66 56 43 38 33 36 42 46 39 38 35 32 31 31 35 36 39 45 48 50 52 56 58 61 61 62 62 61 60 59 58
94 90 88 86 86 82 80 78 78 72 67 66 59 59 54 53 41 39 39 46 48 41 38 36 36 34 36 37 38 47 50 51 54 57 61 63 63 63 63 63 62 60 60
98 96 93 91 88 84 82 79 81 80 75 74 63 55 51 45 44 57 52 50 41 38 42 41 37 36 34 37 40 47 50 53 55 58 64 65 64 63 64 64 64 63 61
92 90 93 90 85 83 83 82 85 82 80 80 67 49 50 44 42 50 51 44 48 47 45 42 44 42 37 36 42 49 40 56 57 60 62 63 62 62 62 62 62 61 61
91 91 91 90 87 84 82 83 84 75 69 61 60 61 64 52 54 49 55 49 53 55 48 44 48 46 42 40 41 38 41 52 60 59 60 62 61 62 61 61 60 60 59
87 90 90 89 88 84 80 79 74 58 50 50 51 50 55 52 62 64 70 76 80 80 74 53 48 48 52 39 43 43 44 59 59 62 62 62 62 62 61 61 60 60 61
87 86 85 82 77 74 66 59 51 45 44 45 48 52 60 68 73 75 81 82 84 75 82 64 48 44 45 44 43 44 49 48 48 61 64 62 63 63 62 62 62 62 61
80 76 73 65 60 55 45 43 40 41 44 55 62 65 69 68 82 83 87 86 81 73 62 56 49 48 49 49 49 53 51 47 48 55 65 66 64 64 65 64 64 62 63
67 60 53 50 44 41 40 42 48 54 58 64 71 77 84 89 96 99 95 84 81 64 70 73 60 54 54 55 56 56 57 56 51 61 63 64 65 67 67 65 64 63 63
48 47 44 46 49 51 56 59 64 71 76 82 86 88 95 97 98 93 88 83 77 74 70 66 60 65 62 59 66 67 61 52 52 50 57 63 67 64 65 66 66 67 68
61 61 64 67 68 71 74 81 86 91 94 98 100 100 97 91 91 80 69 72 68 62 63 74 74 71 71 64 62 60 61 58 59 59 57 52 51 52 54 60 62 65 67
82 81 86 84 84 82 85 87 88 94 95 95 89 87 85 76 83 80 67 58 57 63 84 80 83 75 68 64 61 61 68 77 77 51 57 58 53 54 52 51 62 67 68
95 96 93 91 92 91 90 91 93 96 93 89 73 59 59 64 75 66 64 61 63 64 65 68 70 65 65 58 74 88 81 82 75 60 61 67 54 55 51 47 63 66 67
98 99 100 100 99 97 92 84 86 79 59 66 81 75 66 63 62 60 61 74 74 69 65 60 60 59 61 68 71 78 70 66 63 57 56 81 56 55 50 49 62 67 69
100 100 100 100 98 92 83 82 65 57 59 62 62 60 61 61 65 60 66 84 66 60 56 61 64 69 67 64 63 66 79 81 81 63 56 65 63 64 61 59 50 62 63
100 99 100 99 91 92 82 81 59 53 59 61 61 59 65 63 62 60 61 64 66 56 62 71 58 53 56 58 70 62 74 94 90 84 59 77 70 72 81 54 56 54 51

GFSMA_sfc_rhum_066.txt.gz
RH
48 50 50 46 46 45 46 49 49 48 48 42 36 37 37 34 32 30 28 78 77 64 58 56 52 50 51 52 51 54 56 56 57 57 59 59 59 59 59 59 59 59 59
48 52 56 57 49 47 46 48 48 46 46 38 34 31 32 31 30 34 33 54 76 66 56 52 48 45 48 47 48 50 52 51 53 54 58 58 58 58 57 57 58 58 57
54 55 53 57 59 47 46 48 50 46 41 37 34 28 28 28 32 36 38 41 55 70 59 49 45 44 43 44 43 44 46 44 47 48 51 54 55 57 57 56 56 56 56
54 55 54 54 54 55 50 50 51 47 42 36 32 28 27 31 30 32 38 38 39 36 52 50 46 40 39 39 40 40 41 41 42 44 47 50 50 53 56 56 55 55 55
51 53 52 52 52 60 57 53 52 49 47 40 34 30 28 28 32 31 34 38 39 36 33 51 51 42 37 36 35 36 38 40 40 40 45 46 49 52 53 55 56 55 54
52 55 52 51 51 62 63 60 55 50 47 43 30 29 30 28 28 33 34 34 36 38 34 35 36 33 41 37 36 37 38 42 41 42 44 45 48 51 53 55 55 56 55
55 58 55 53 52 57 64 63 58 55 50 42 36 37 33 31 30 31 34 33 35 34 31 32 26 23 29 42 39 38 42 40 41 43 46 48 49 52 54 55 55 55 55
63 61 62 58 55 58 60 65 61 58 52 42 47 46 48 36 31 29 33 33 32 32 30 28 24 24 25 24 34 41 40 42 46 48 49 52 55 57 58 56 56 56 56
71 67 68 67 67 61 62 65 64 62 59 46 41 48 53 54 37 33 33 34 33 34 30 28 27 25 24 24 38 45 46 45 46 48 50 53 55 57 57 57 57 57 56
84 74 73 69 72 73 68 71 68 61 60 55 43 34 40 35 38 40 34 34 33 32 34 31 27 27 27 29 39 48 46 46 48 50 53 56 57 59 60 59 59 58 57
86 86 78 76 74 74 73 72 76 67 66 61 56 48 41 36 32 44 40 38 37 35 33 33 28 27 28 30 33 41 45 47 50 53 55 58 60 62 61 61 60 60 59
88 90 89 87 83 81 77 74 77 74 72 68 64 55 49 49 44 38 37 37 37 37 35 35 39 37 31 29 32 46 46 47 50 53 57 60 61 62 63 64 63 62 60
89 90 90 90 90 86 82 78 78 82 79 76 70 63 54 46 46 44 49 52 46 38 37 35 40 34 29 37 32 47 40 50 52 54 59 63 62 62 63 64 65 63 62
82 81 85 88 90 88 85 82 83 83 82 82 72 64 53 51 53 49 50 56 50 54 67 63 52 45 41 42 40 48 39 42 52 58 60 61 62 62 62 64 64 63 62
77 77 83 89 90 89 87 87 88 85 80 82 78 66 63 66 62 64 63 57 59 59 54 53 58 45 49 48 48 40 34 43 51 58 59 60 61 62 62 62 62 61 60
70 78 87 89 88 86 86 87 90 84 82 77 77 75 72 63 62 69 74 80 81 81 82 75 79 76 76 59 52 42 36 48 54 55 60 62 62 62 62 61 60 60 60
74 78 82 85 87 86 82 81 75 72 72 77 71 77 76 73 74 71 75 78 89 91 94 97 97 89 66 56 40 40 42 40 38 49 54 58 60 63 63 62 62 62 61
72 74 77 78 76 74 66 59 53 50 52 55 60 64 70 68 82 86 88 92 95 98 95 94 74 71 59 55 61 55 42 37 41 48 56 61 65 65 65 65 64 64 62
65 65 63 58 54 50 52 46 48 55 58 61 67 73 76 81 93 98 99 98 98 98 88 77 70 63 61 51 49 46 46 45 38 48 49 54 58 62 64 66 64 64 63
46 46 46 45 48 50 54 57 64 72 79 81 86 86 90 94 98 100 100 94 82 72 63 64 56 54 52 50 54 54 48 43 42 39 47 52 58 59 61 62 64 65 66
61 62 64 63 68 70 71 80 84 89 93 98 99 100 99 98 95 86 75 66 63 65 64 72 66 58 59 51 50 48 49 45 48 49 48 45 43 45 46 50 52 56 58
83 82 86 84 85 84 84 87 89 94 94 93 94 93 92 82 79 79 73 69 61 62 75 75 76 63 53 47 46 47 57 69 75 50 49 50 45 46 45 43 52 58 63
95 96 95 93 95 95 94 93 93 98 96 92 87 83 78 68 73 58 60 61 59 62 63 61 60 52 51 46 66 85 74 81 74 53 52 59 47 48 44 38 52 57 61
100 100 100 100 100 100 99 98 92 80 72 75 71 68 59 56 55 58 55 62 65 60 55 49 51 48 48 53 61 74 64 59 56 50 50 73 50 50 45 44 55 59 61
100 100 100 100 100 99 89 81 70 75 82 75 61 52 53 50 58 62 59 80 58 51 45 53 61 66 68 66 62 62 74 74 75 62 54 60 57 61 58 56 48 55 58
100 98 100 95 78 77 80 76 56 49 47 47 49 49 60 60 60 60 57 55 57 45 55 65 50 46 47 49 59 58 67 87 89 84 55 75 70 70 80 55 55 52 51

GFSMA_sfc_rhum_069.txt.gz
RH
44 41 39 40 44 43 42 47 45 44 46 42 37 38 39 38 36 35 38 62 79 67 59 56 54 52 54 54 54 58 56 57 57 59 60 60 60 60 59 58 59 59 59
43 45 46 45 43 42 41 43 45 45 45 43 38 37 37 36 33 34 34 60 79 71 59 55 50 49 51 49 50 54 52 52 52 55 57 57 58 58 58 58 57 58 58
45 46 48 60 57 43 41 43 44 44 44 42 38 34 34 32 33 35 37 53 63 73 65 52 49 47 48 47 47 47 48 45 47 48 50 52 53 55 56 56 56 56 56
45 49 50 49 54 54 45 45 47 50 47 44 41 37 33 33 32 34 37 38 53 49 60 58 50 47 45 42 44 43 42 41 42 43 46 48 49 52 53 55 56 56 55
45 49 50 49 46 55 55 49 50 50 51 48 45 39 36 37 37 32 34 38 42 44 45 61 61 53 43 41 39 39 41 40 39 40 42 45 47 50 52 53 54 54 55
46 50 50 49 48 53 68 56 55 52 50 50 41 38 40 40 41 41 37 34 38 44 41 46 49 44 48 41 38 38 38 41 41 40 43 46 47 49 52 53 54 54 54
49 52 53 51 51 53 63 63 58 58 57 52 52 46 47 42 39 38 40 37 39 43 39 38 40 35 42 46 43 38 41 37 38 41 44 47 50 52 54 56 55 55 55
56 54 56 58 54 55 56 67 66 66 59 55 56 56 63 50 42 37 37 37 38 40 37 36 36 32 35 37 47 43 37 39 44 46 48 50 52 54 55 58 57 56 56
65 64 62 62 62 59 61 63 68 70 69 60 52 60 70 68 52 42 38 39 36 39 38 37 35 33 33 37 49 50 49 44 43 44 47 51 53 56 57 58 58 57 57
77 77 73 69 71 71 66 65 65 68 66 68 57 51 57 49 59 56 45 39 38 36 42 42 35 36 36 40 50 53 50 44 44 47 50 53 55 58 59 59 58 59 58
76 84 84 83 79 83 78 77 73 73 69 68 66 69 56 54 47 57 54 50 43 40 41 39 35 34 34 39 47 52 47 44 44 49 52 54 57 60 61 60 60 61 60
69 78 84 87 89 86 87 85 83 82 78 75 67 66 66 69 64 65 66 57 55 45 45 43 41 38 39 40 41 52 48 44 47 50 54 56 57 60 62 63 63 62 62
77 82 83 88 92 91 89 87 87 88 85 85 79 76 70 72 62 60 66 66 60 47 46 42 41 40 33 41 44 47 46 45 48 54 58 58 57 60 62 63 64 64 63
63 75 87 90 90 90 92 93 93 92 90 90 88 84 81 72 68 64 68 67 65 66 72 75 64 64 57 47 43 47 46 49 45 49 56 59 58 59 61 63 64 64 63
65 73 87 89 91 93 93 94 96 96 96 94 94 87 81 85 85 85 89 93 94 95 92 81 66 63 70 73 73 68 62 62 58 50 56 58 60 61 63 63 63 62 62
56 67 76 89 91 91 93 95 97 95 97 94 92 90 91 90 91 94 90 91 93 91 89 83 88 90 87 77 79 79 70 61 53 52 53 54 56 60 61 62 62 62 61
63 66 68 74 82 86 87 88 84 83 84 85 84 85 85 85 92 91 91 92 93 95 96 98 95 95 94 89 77 62 51 46 45 49 49 52 57 60 62 63 63 63 62
63 67 68 73 75 77 74 74 76 74 79 81 82 81 84 76 84 92 94 95 96 97 93 96 96 94 93 83 70 69 58 41 43 46 52 54 58 59 61 63 63 63 63
51 51 52 55 54 58 52 51 56 60 66 71 73 79 84 87 94 98 99 98 98 97 97 96 86 67 67 66 62 53 53 50 42 46 45 48 53 56 60 63 65 66 66
50 51 51 54 55 56 60 65 68 76 81 85 89 90 92 95 98 99 98 97 92 89 82 76 68 67 62 59 65 64 60 55 50 38 46 51 53 54 54 55 56 58 59
61 61 66 69 71 75 75 83 86 90 94 98 99 100 98 95 92 84 79 77 73 71 68 79 76 72 75 66 61 60 58 55 57 60 61 57 56 55 54 52 52 53 53
78 80 86 86 86 84 84 87 89 92 93 94 97 99 91 86 82 82 81 83 79 72 85 86 89 76 64 59 58 60 74 80 82 65 66 64 57 58 55 54 52 53 56
94 96 96 96 96 95 96 96 97 99 96 98 98 94 79 73 78 67 61 58 59 58 60 68 71 64 61 56 84 92 82 82 80 68 64 69 59 60 56 45 53 55 58
99 98 100 100 100 99 97 97 97 100 98 95 93 84 65 55 56 64 61 69 72 68 66 56 63 57 57 62 70 77 77 72 67 64 64 80 64 65 58 56 57 59 60
100 100 100 94 89 85 81 83 83 86 86 87 82 71 57 51 60 62 67 85 69 62 44 46 53 60 64 67 66 73 85 85 78 75 69 76 76 75 71 67 62 60 57
100 92 97 78 71 76 70 62 51 46 51 49 53 51 61 63 61 62 62 61 66 55 62 73 66 57 53 55 54 66 79 86 88 91 81 91 86 85 94 75 74 71 66

GFSMA_sfc_rhum_072.txt.gz
RH
66 60 65 67 72 74 72 73 74 67 67 62 56 55 55 55 50 57 71 85 80 68 61 58 56 56 57 56 59 58 58 58 60 61 61 61 61 59 60 60 59 59 59
65 66 62 64 68 67 65 68 68 69 67 66 56 54 55 52 48 48 66 86 82 74 62 58 54 55 55 53 56 56 53 54 54 56 56 57 58 58 58 58 58 57 57
63 65 70 73 70 63 60 64 65 67 67 64 61 54 54 51 48 47 75 90 84 77 70 57 53 52 53 52 52 53 49 48 49 49 51 51 52 53 56 56 56 56 56
61 66 71 79 74 76 66 69 70 74 72 71 65 59 52 51 48 50 54 80 78 69 72 66 56 51 51 51 48 48 46 44 45 44 46 47 47 50 51 53 55 55 56
58 69 73 73 74 77 77 69 72 77 77 73 64 62 52 55 50 45 51 54 77 72 68 69 66 62 54 47 48 46 46 43 41 40 42 43 44 47 50 52 54 54 55
60 69 72 71 68 79 82 79 75 78 76 75 52 54 56 55 55 56 51 48 56 60 64 66 69 59 58 48 46 44 44 44 42 41 42 44 45 47 49 52 54 54 55
63 68 70 73 70 74 81 79 81 78 82 76 72 66 64 55 51 52 56 54 54 54 58 60 57 54 56 50 46 45 44 45 40 41 43 45 47 51 54 56 56 56 56
74 68 71 72 79 80 82 79 76 81 80 81 80 73 74 68 58 48 52 51 53 57 52 53 54 50 55 60 58 47 46 38 42 46 47 47 49 51 53 55 57 57 57
90 86 81 81 84 81 88 83 86 83 77 84 70 77 90 86 65 57 48 56 52 60 54 48 48 40 47 54 55 53 46 49 44 44 44 46 50 52 54 55 57 58 57
85 90 92 88 90 91 87 94 87 90 92 84 90 62 76 69 70 65 56 50 52 50 55 53 46 41 40 60 56 60 54 46 42 42 45 48 50 52 55 56 57 57 58
90 90 89 96 91 90 90 89 94 89 90 89 80 93 80 80 72 74 68 59 55 54 55 48 44 41 39 55 65 62 54 44 42 45 46 50 52 55 56 59 60 60 59
94 93 92 91 92 96 96 96 94 95 96 87 81 85 89 89 82 85 86 75 68 60 55 49 48 44 46 47 46 56 52 45 44 47 50 52 53 56 58 59 62 61 61
88 92 94 95 96 96 95 96 97 97 96 93 86 87 91 93 87 84 84 80 73 65 73 71 57 51 42 56 63 63 64 61 58 50 53 56 58 58 59 61 62 62 62
85 87 92 94 95 96 97 96 98 98 97 96 96 97 96 88 86 86 85 84 90 91 90 86 89 92 93 91 84 70 60 55 56 61 64 61 63 60 60 61 62 62 63
81 93 91 95 95 96 97 98 99 99 99 98 98 98 92 92 90 90 90 90 92 98 96 97 97 94 93 92 87 80 78 71 66 71 63 57 56 57 60 60 61 62 62
83 88 90 93 93 93 95 96 98 97 97 98 96 94 95 94 94 95 96 96 98 98 99 96 96 96 93 87 84 84 78 75 67 57 53 52 53 53 56 60 61 62 62
85 86 83 77 87 88 90 88 89 88 90 92 92 92 93 90 96 96 96 96 98 97 99 99 98 97 97 94 80 74 67 59 54 55 50 51 53 56 58 61 62 62 62
66 68 67 68 67 65 73 76 77 80 83 85 86 88 91 85 94 94 95 96 96 97 97 97 96 95 93 87 80 75 63 52 56 48 51 52 51 51 55 57 60 62 63
59 57 57 56 58 58 56 60 65 72 78 80 82 84 88 90 96 98 99 99 98 93 95 91 93 89 85 77 83 78 70 64 50 48 46 47 51 55 57 57 59 59 59
71 70 69 68 68 71 74 76 81 87 91 92 93 94 94 95 97 99 98 97 90 90 86 82 80 81 72 68 74 72 77 68 66 49 57 56 57 56 54 54 56 57 56
81 76 77 79 79 84 83 89 88 92 94 98 99 98 98 93 91 94 95 86 82 79 81 89 85 82 90 74 73 70 69 78 76 73 78 76 74 68 67 62 57 56 56
88 85 91 90 87 83 84 87 89 92 92 96 98 98 98 98 97 90 84 78 76 82 88 97 98 90 80 74 70 88 92 96 96 81 82 73 78 76 69 73 60 57 56
93 97 97 96 95 88 88 88 88 95 96 97 98 100 98 91 91 88 67 56 61 64 66 76 84 80 76 68 85 94 88 97 95 81 88 77 78 77 68 57 60 60 59
98 98 98 100 100 97 88 87 89 98 97 99 98 96 92 76 72 77 72 78 78 76 73 62 75 72 67 74 82 86 92 90 89 85 84 94 82 77 70 78 65 63 64
97 100 93 92 90 91 76 77 88 96 95 93 87 81 68 64 60 61 77 88 78 67 45 42 46 55 61 64 68 91 96 98 95 86 83 92 91 93 75 73 74 66 60
99 89 97 91 78 86 60 55 64 79 77 73 65 68 61 66 62 62 73 78 77 66 78 80 78 72 63 63 50 72 94 96 89 94 92 96 96 98 96 94 86 74 81

GFSMA_sfc_rhum_075.txt.gz
RH
70 79 88 93 97 97 96 97 97 94 90 83 73 71 68 65 70 74 90 88 82 72 64 60 60 60 60 60 61 61 60 62 63 62 62 62 61 60 60 60 60 60 59
65 68 78 80 86 86 87 83 84 86 83 77 67 63 63 59 57 68 84 95 84 77 66 61 59 59 59 59 61 59 58 57 59 58 58 59 59 59 59 59 58 58 57
68 70 72 74 75 76 74 79 79 80 80 74 71 63 62 57 54 62 74 96 89 82 73 62 58 58 58 58 60 57 55 54 53 54 53 53 54 54 55 56 56 56 56
68 74 79 76 71 72 72 74 78 80 80 80 74 67 63 59 55 56 84 95 93 80 78 71 62 57 57 56 57 57 53 51 51 49 50 49 49 51 51 52 53 53 53
66 73 77 83 80 83 81 74 79 81 85 81 74 69 62 60 56 51 70 92 88 83 82 78 73 67 63 56 54 54 52 49 48 46 47 46 45 47 48 50 51 52 52
66 72 78 80 84 86 89 85 79 86 84 80 61 63 65 61 62 62 59 68 83 78 75 76 80 76 68 58 52 52 53 49 46 44 44 45 46 47 48 50 52 53 53
63 67 74 80 81 84 80 88 83 82 90 83 76 74 70 65 60 60 60 60 66 71 71 70 68 65 65 63 56 50 50 50 47 44 44 46 48 50 53 54 53 55 55
80 65 72 73 83 86 91 89 88 92 90 84 82 76 74 68 65 56 56 56 60 63 63 62 57 51 56 64 62 55 50 50 44 44 47 50 50 50 52 54 54 55 56
93 92 88 85 82 84 88 88 89 92 89 93 74 74 90 85 78 66 56 54 57 68 60 57 53 49 51 61 63 63 55 46 44 48 48 48 49 51 52 54 55 57 57
94 95 95 95 93 94 94 94 92 91 96 94 97 72 83 81 74 74 73 72 66 61 63 60 54 49 51 60 63 62 54 50 46 44 46 48 48 49 52 54 57 58 58
93 92 94 95 96 96 95 96 96 97 96 93 94 96 92 93 79 84 85 83 71 69 67 61 53 46 48 58 64 61 56 48 43 43 46 48 50 50 53 55 58 59 59
97 95 95 93 95 96 96 97 97 97 95 93 92 93 94 93 89 92 92 88 82 78 72 64 57 51 58 64 63 67 57 50 53 61 64 68 68 62 56 59 60 60 59
91 96 96 96 96 93 93 95 97 98 98 97 96 92 85 86 94 88 90 92 90 91 93 92 90 89 82 92 93 87 88 88 85 81 77 70 64 61 66 66 64 62 62
97 96 96 96 95 95 97 97 98 98 98 99 98 99 95 94 95 94 91 91 94 92 92 90 92 95 94 96 94 91 93 89 86 84 80 73 68 64 62 60 62 63 62
88 94 96 96 97 97 97 97 99 99 99 99 99 99 97 96 96 95 95 95 94 99 95 96 96 96 98 97 94 94 93 88 87 81 71 72 67 58 56 57 58 60 61
92 92 92 95 95 95 93 96 98 98 97 98 97 95 95 95 96 96 97 97 98 97 98 96 97 97 96 92 92 93 89 84 76 72 67 57 56 54 54 56 59 60 61
79 87 90 88 89 81 84 87 86 88 90 92 92 93 93 91 96 96 97 97 98 98 100 100 97 96 97 95 84 83 78 72 66 62 56 54 52 54 56 56 57 59 60
61 64 67 69 67 72 77 76 79 80 84 87 88 90 91 87 95 94 95 96 97 98 98 99 96 96 94 89 81 78 66 54 59 55 53 53 52 50 52 56 58 59 58
69 68 66 69 72 72 74 78 76 78 81 84 86 89 92 92 96 99 99 99 97 94 95 93 94 90 86 82 81 74 72 78 59 55 48 48 53 56 58 58 56 56 58
81 83 84 84 86 88 87 89 90 93 90 91 92 92 94 95 98 98 98 97 93 94 93 90 79 83 79 74 78 79 81 73 68 54 55 57 58 59 60 59 58 58 58
91 88 88 86 88 86 85 94 91 94 96 98 98 97 97 91 87 88 91 97 96 96 94 92 87 86 89 76 76 75 73 79 76 76 80 78 76 78 78 70 63 62 61
90 89 88 85 84 80 82 85 92 95 94 95 97 98 98 99 93 92 97 95 83 90 92 96 98 92 82 81 79 85 89 97 94 81 86 84 81 81 81 82 67 61 61
97 97 94 89 91 89 84 86 88 96 97 98 98 98 92 84 89 92 78 67 62 63 68 86 89 88 81 75 85 95 88 97 95 88 91 90 85 86 81 64 66 64 64
98 98 100 100 100 93 86 85 89 96 96 96 96 95 92 92 85 80 80 82 79 79 75 66 82 77 74 75 85 87 91 91 91 90 90 98 91 86 85 80 69 65 63
98 98 97 95 94 90 72 75 89 94 93 92 88 85 79 74 61 64 80 84 80 70 48 47 49 56 61 63 69 94 96 97 96 90 88 95 95 90 84 87 82 66 66
97 99 98 91 75 85 60 63 80 85 83 82 83 75 59 69 61 60 78 83 80 71 85 84 79 73 67 70 61 77 94 96 98 98 91 97 99 97 96 94 89 76 88

GFSMA_sfc_rhum_078.txt.gz
RH
86 96 97 98 98 98 97 98 98 98 96 94 89 86 80 78 82 86 98 89 82 75 67 64 62 61 62 63 62 61 62 62 62 64 64 62 62 61 61 61 60 60 60
76 86 92 95 98 98 97 97 97 97 96 92 87 80 78 71 78 80 94 96 86 80 69 63 62 62 62 62 62 61 61 62 61 61 61 61 60 60 60 59 59 58 58
72 77 82 89 92 94 95 95 94 92 94 87 85 73 71 68 66 72 83 97 93 86 77 64 62 61 61 61 62 60 59 58 58 58 57 57 57 58 57 57 57 56 56
68 74 75 81 82 87 88 89 89 91 91 91 86 79 71 67 61 65 74 96 97 91 83 75 67 61 62 60 62 60 57 55 54 54 53 52 53 53 53 54 54 53 53
69 71 77 77 78 80 82 79 85 88 92 90 86 79 72 70 64 55 77 91 96 94 92 84 80 73 68 60 58 59 57 54 53 51 51 50 49 50 50 51 52 53 52
71 72 80 82 84 83 87 86 83 90 89 87 72 71 75 68 68 68 66 85 96 91 84 84 88 80 76 67 59 57 56 53 51 48 48 48 47 49 50 51 53 53 53
70 73 78 82 88 83 77 89 87 83 93 90 82 80 75 71 66 69 69 70 91 87 81 74 79 77 73 73 65 56 55 54 51 48 47 47 49 50 52 54 53 54 54
79 74 77 79 84 91 93 94 91 93 91 90 85 79 78 76 70 63 66 63 65 82 83 72 70 67 67 72 71 67 58 53 52 47 45 47 50 52 52 53 54 55 56
94 88 84 88 90 89 88 90 93 92 88 97 89 88 89 88 85 72 67 65 65 75 78 76 70 63 60 62 67 69 65 54 50 44 46 48 49 51 53 53 54 55 56
96 95 95 94 92 96 95 94 93 94 96 96 98 90 90 86 84 87 77 86 75 66 69 70 67 63 56 64 65 69 64 54 43 45 44 44 48 51 53 57 57 57 58
96 96 95 97 98 98 96 95 96 96 94 92 95 97 96 93 81 83 82 90 90 86 79 81 85 88 85 88 84 68 55 59 64 62 65 63 70 74 72 63 60 62 61
97 95 94 96 96 97 97 97 97 97 97 96 95 95 92 96 92 91 92 90 88 86 82 83 84 87 88 88 85 88 81 74 77 82 82 82 83 83 83 83 74 67 64
95 95 96 97 98 97 96 96 97 98 98 99 98 98 95 92 95 95 94 95 93 94 94 92 92 92 88 94 89 87 83 85 86 86 86 86 84 86 83 77 75 71 66
99 98 98 97 96 96 97 97 98 98 98 99 99 99 98 96 97 96 96 98 98 95 95 92 93 96 96 96 94 89 92 87 87 87 84 83 83 82 76 71 65 63 61
91 96 97 97 96 96 95 97 99 99 98 98 99 98 98 97 96 95 97 97 96 100 97 98 96 96 98 98 95 97 96 91 87 85 85 81 77 76 69 59 58 58 59
94 94 95 95 95 91 91 96 98 96 94 97 97 95 95 95 95 96 96 95 96 97 98 96 99 98 97 95 95 95 92 90 86 84 78 75 72 62 56 56 58 58 59
79 85 86 82 86 92 90 86 86 88 90 91 92 93 93 92 96 96 96 96 98 98 100 99 97 96 98 96 90 92 88 85 78 79 72 60 56 54 56 56 55 56 58
65 67 65 67 73 78 86 81 80 82 85 88 89 90 91 87 95 94 95 96 98 97 97 98 96 96 95 94 88 85 74 58 62 57 55 54 54 52 52 56 59 59 59
78 78 79 82 83 85 87 92 92 95 88 87 90 91 91 90 96 98 99 98 96 92 94 93 97 92 90 83 82 75 73 78 63 58 50 50 53 56 57 60 60 59 59
89 90 90 92 93 95 94 95 96 97 96 97 96 93 93 94 96 98 96 95 90 91 91 92 92 94 88 80 81 80 83 76 70 56 57 57 58 60 61 62 61 61 61
95 94 94 94 93 89 86 97 92 91 92 94 97 97 96 89 84 85 93 97 97 98 97 92 89 86 95 77 82 86 81 86 80 84 83 79 79 82 81 73 69 65 66
90 85 82 88 81 78 84 88 94 93 95 97 98 98 94 94 87 86 86 83 83 93 98 99 99 95 88 83 81 84 88 96 94 84 88 86 87 86 83 84 70 66 62
95 97 97 94 92 84 84 86 89 97 98 98 97 98 94 80 83 86 75 68 69 63 70 89 90 91 88 81 88 95 91 97 96 88 93 96 89 88 83 68 67 69 66
99 99 100 100 100 91 84 85 90 96 97 98 98 94 90 88 84 85 88 87 85 85 75 73 88 86 80 78 86 88 92 92 91 88 92 99 92 89 84 78 72 64 60
99 99 95 94 92 88 71 75 87 92 91 90 86 84 81 83 66 68 78 84 78 70 57 63 60 60 61 62 72 92 98 97 94 91 91 95 94 96 93 91 84 64 62
99 97 97 91 76 86 66 69 79 80 86 83 82 70 60 71 60 60 78 82 81 75 84 87 80 70 72 78 72 80 94 96 98 97 92 96 92 98 97 94 89 84 80

GFSMA_sfc_rhum_081.txt.gz
RH
94 97 97 98 99 98 98 98 98 98 97 95 94 93 90 86 84 92 98 94 86 76 69 66 63 62 62 63 61 60 61 62 61 61 63 60 61 60 60 60 60 60 59
87 96 97 98 98 98 98 97 98 98 97 95 93 92 90 86 79 90 96 97 90 84 73 66 64 62 62 62 62 61 61 62 62 62 60 60 59 59 59 58 59 58 58
86 86 94 98 97 98 96 97 97 96 97 94 94 90 83 82 75 85 88 97 95 90 82 67 64 63 62 61 62 61 60 61 60 58 58 57 57 58 56 56 56 56 55
79 85 88 89 90 97 98 98 97 97 97 96 96 93 81 76 71 75 80 94 98 96 89 80 73 65 63 62 61 62 59 57 56 56 54 52 53 53 53 54 54 54 54
76 77 79 82 87 93 96 94 96 95 96 96 93 94 87 79 72 61 71 83 96 97 97 87 84 79 73 64 61 61 60 56 55 53 52 50 49 50 51 52 53 54 55
76 75 80 82 84 90 93 95 92 95 93 94 82 83 87 80 76 75 67 71 92 97 96 94 94 92 81 72 63 60 60 59 53 52 49 49 48 49 49 51 54 56 57
77 77 79 86 89 84 81 84 88 87 94 94 89 91 82 78 75 73 72 72 90 94 96 95 94 94 80 80 72 62 59 58 54 49 47 46 48 50 50 54 56 55 57
82 80 82 83 87 91 93 92 92 94 92 95 89 81 84 78 78 70 72 67 72 94 96 93 91 88 84 79 79 75 66 57 57 54 48 45 48 51 53 53 55 55 57
90 86 86 88 91 93 92 94 95 94 92 97 92 90 87 90 92 80 74 73 73 79 89 93 88 78 70 81 88 83 73 61 53 54 50 56 57 53 54 53 54 56 57
96 95 92 91 92 95 95 94 97 95 94 92 98 91 93 85 84 87 79 86 82 69 70 78 80 81 86 93 90 90 83 83 81 77 76 74 77 77 75 76 72 69 63
96 96 96 97 97 97 96 95 96 96 95 93 96 98 98 94 83 90 89 90 85 91 86 85 83 88 87 93 96 94 87 85 82 78 85 87 83 77 80 79 78 80 86
98 97 97 98 97 98 98 98 97 97 97 98 98 98 95 96 98 96 96 92 90 87 86 87 89 92 93 96 92 91 88 86 87 84 82 81 78 82 77 79 80 82 81
96 97 97 98 98 98 98 97 98 99 99 99 99 99 97 96 96 95 95 97 94 92 94 92 93 96 90 95 94 93 92 88 84 86 85 83 84 81 83 84 80 81 78
96 99 98 98 98 97 97 97 98 99 99 99 99 99 99 99 98 97 97 97 99 96 94 89 94 96 97 98 96 90 94 89 88 86 86 82 87 83 80 76 76 72 68
92 93 94 94 94 94 97 97 98 99 97 97 99 98 98 97 97 96 97 97 98 99 98 96 94 95 98 98 95 96 97 93 87 86 83 82 83 81 79 76 71 66 64
96 96 95 92 90 89 89 94 96 94 95 96 96 95 96 94 94 96 96 95 97 98 99 96 99 98 97 94 94 95 94 92 88 86 84 80 79 74 67 62 59 58 58
81 81 80 83 89 94 94 95 93 88 91 91 92 92 93 91 96 95 96 96 97 97 99 99 98 96 98 97 93 95 92 93 91 80 80 74 69 60 57 57 57 56 57
71 71 72 77 83 88 92 89 90 83 89 88 89 90 92 86 94 93 95 96 97 96 95 99 97 97 96 95 92 93 81 68 67 61 58 56 56 56 55 55 58 60 60
85 85 86 89 91 93 95 96 96 88 87 88 89 90 91 91 97 98 98 98 98 92 95 93 96 93 90 85 88 85 77 72 61 60 55 52 52 54 56 58 61 63 62
92 95 94 94 95 95 96 97 96 95 95 97 97 96 96 96 96 96 96 95 92 95 95 96 94 94 86 80 81 81 79 79 73 58 60 60 58 61 63 64 63 63 64
95 96 95 94 94 91 90 92 90 91 92 96 98 96 95 88 82 86 93 97 96 96 92 92 90 86 86 82 84 85 81 85 81 87 87 81 81 83 82 74 71 67 66
90 91 93 86 86 79 85 91 89 91 94 98 98 95 90 86 84 78 77 76 82 93 98 98 96 95 91 89 87 86 90 97 94 86 90 89 87 86 83 84 69 64 64
96 98 94 86 89 82 83 87 92 98 96 97 99 98 91 80 85 86 74 72 72 68 75 89 90 91 89 85 89 96 91 98 96 90 92 95 91 88 83 70 70 68 69
99 100 100 100 100 86 84 86 89 95 97 96 95 93 87 86 86 83 88 90 90 75 76 77 88 88 86 80 84 86 92 93 92 87 93 99 93 90 86 82 72 67 60
100 99 95 92 92 89 71 73 82 90 89 90 84 86 83 86 66 68 78 85 78 71 63 68 67 64 66 65 69 84 98 98 93 89 91 96 96 96 95 94 84 67 66
96 93 94 91 79 88 69 70 76 76 84 81 78 70 64 71 60 59 79 81 81 76 85 89 82 71 77 84 78 84 95 96 98 97 92 100 99 98 97 90 89 80 79

GFSMA_sfc_rhum_084.txt.gz
RH
98 97 97 98 99 98 98 98 98 98 97 94 93 93 92 90 89 90 97 94 90 80 69 66 64 62 60 62 60 59 60 60 60 60 63 60 62 60 61 60 61 60 60
90 98 97 98 98 99 98 97 98 98 98 96 94 93 93 93 91 86 95 96 92 87 76 68 65 63 61 61 61 59 59 60 60 60 60 60 60 60 60 59 59 59 59
88 90 97 97 98 98 96 97 97 97 98 95 95 93 93 91 86 83 90 96 96 92 88 71 65 65 64 62 61 60 60 60 60 59 58 58 58 58 57 57 58 57 57
88 89 94 96 96 98 98 98 98 98 98 97 96 96 95 89 81 77 85 92 97 97 93 86 78 67 65 64 62 60 61 58 58 57 55 53 53 53 53 53 54 55 55
85 87 89 90 93 97 97 97 97 96 96 96 96 96 96 94 86 69 72 80 90 97 98 92 88 83 77 66 64 61 63 61 57 53 52 50 49 48 50 51 53 54 55
86 83 87 87 90 94 96 97 96 97 96 95 88 89 95 94 88 83 76 67 79 92 96 96 96 95 86 76 66 63 60 64 58 56 50 49 47 47 48 49 52 57 58
88 85 85 86 89 88 86 92 94 94 96 95 93 94 92 86 87 83 78 77 76 86 94 97 98 97 95 84 77 66 62 62 62 55 51 45 46 47 49 52 54 54 55
91 89 87 89 91 92 93 94 93 94 94 97 93 89 88 80 85 81 81 74 74 83 94 95 96 95 95 92 88 82 71 65 74 67 60 61 55 52 52 52 53 52 53
91 89 89 90 93 92 93 95 95 94 95 97 92 91 93 93 87 78 67 77 77 82 88 94 91 88 86 85 84 88 83 81 83 84 77 73 76 73 69 75 77 77 71
96 92 90 91 93 96 96 95 96 95 94 94 98 91 93 87 94 92 85 83 85 70 69 81 87 86 84 91 88 90 89 84 82 84 84 84 84 83 79 78 77 78 81
97 97 97 97 96 97 95 95 97 98 97 97 98 99 98 96 89 93 95 93 82 88 88 90 89 87 86 93 96 94 86 85 82 82 84 86 85 82 79 80 82 81 81
97 97 97 98 98 98 97 97 96 97 98 98 97 97 96 97 98 97 98 96 95 92 84 92 94 96 95 94 90 90 89 86 81 83 84 85 82 78 80 80 79 76 84
94 96 97 98 99 98 98 98 98 98 98 99 98 99 98 97 95 95 96 98 98 93 93 93 93 94 89 96 95 93 90 86 84 84 81 80 81 84 83 86 86 82 80
93 92 98 98 98 97 98 98 99 99 99 99 99 99 99 98 98 98 98 98 99 98 96 92 93 96 97 97 94 87 95 84 83 82 86 83 80 86 86 84 84 83 81
88 92 93 94 94 95 98 98 99 99 96 97 98 97 98 96 97 97 97 97 98 99 97 96 94 96 98 98 96 95 96 90 87 82 78 80 78 79 78 81 75 73 72
95 90 88 89 89 88 92 94 96 94 97 96 96 94 96 95 96 96 96 95 96 98 99 96 98 97 96 93 93 93 92 89 86 82 80 80 77 78 73 70 68 64 62
81 80 82 85 86 88 89 92 93 89 91 92 92 92 93 91 95 95 97 97 97 98 100 99 98 96 97 96 94 94 91 92 90 81 78 77 74 70 63 59 57 56 56
79 79 80 84 88 93 94 94 94 93 91 89 90 90 91 86 93 93 94 95 96 95 96 99 96 97 96 94 92 93 81 68 73 66 60 57 56 56 56 55 56 58 59
90 90 91 94 96 96 96 97 95 86 86 87 88 89 90 90 94 96 96 96 96 94 96 96 99 93 90 88 91 85 78 74 60 58 56 56 55 55 55 57 58 61 62
95 96 96 96 96 97 97 96 94 92 93 94 94 94 95 95 96 96 96 95 92 96 94 96 98 95 87 81 81 78 74 75 75 60 62 63 58 62 62 62 62 63 65
96 95 95 95 95 94 89 91 91 91 93 96 96 94 94 87 84 87 93 95 94 95 94 96 96 93 88 83 78 86 81 82 81 87 87 80 80 80 79 74 71 66 65
94 93 93 89 86 85 88 88 88 93 94 94 95 90 85 84 81 76 73 72 82 91 98 98 99 96 91 90 89 87 91 97 92 88 92 88 87 84 81 81 68 65 66
96 97 93 87 88 86 86 93 92 98 98 97 96 93 89 85 85 87 75 79 74 70 76 88 89 90 89 87 89 96 91 97 96 90 93 92 90 86 81 71 71 68 67
99 99 100 100 100 90 84 86 90 95 95 94 93 91 88 88 86 81 88 90 82 73 81 79 88 88 87 83 82 84 91 93 94 89 93 99 93 89 84 86 75 68 66
100 100 95 92 92 91 78 76 81 89 89 90 85 85 86 84 63 69 77 84 79 70 66 70 68 65 68 66 71 87 91 99 95 88 93 96 96 97 93 91 80 65 65
96 89 94 92 80 88 67 68 73 74 85 78 73 71 64 74 56 59 78 78 78 76 89 87 79 73 83 85 79 86 96 96 98 97 91 99 99 97 97 90 86 79 80

GFSMA_sfc_rhum_087.txt.gz
RH
72 74 76 78 80 79 75 76 73 71 72 68 64 62 60 57 57 56 58 90 90 83 69 67 64 62 61 63 61 59 60 62 60 62 62 62 62 62 61 62 61 61 60
67 73 74 76 78 78 76 73 71 71 71 70 66 62 62 63 62 62 56 59 89 89 80 70 66 64 63 62 62 60 60 60 61 62 60 62 61 61 61 61 61 60 60
67 67 70 72 71 72 75 76 74 73 73 71 68 61 59 60 62 60 58 58 64 92 89 75 69 66 65 63 62 62 61 60 61 60 60 59 59 59 58 58 58 58 58
70 66 64 66 66 70 73 75 74 74 74 70 66 63 63 64 61 57 55 54 61 63 79 88 82 70 66 65 63 60 64 62 62 59 57 55 54 54 54 54 55 56 56
72 70 67 64 65 70 72 74 75 74 71 70 70 65 64 64 62 60 57 54 56 64 64 81 91 88 82 69 64 63 64 65 62 60 57 54 52 50 50 51 53 54 56
74 74 72 70 70 73 73 76 75 75 71 68 68 67 64 63 64 64 58 55 52 56 59 66 67 70 89 81 70 65 64 68 64 61 57 57 51 50 49 48 52 57 56
77 77 75 73 73 73 69 68 70 72 71 72 72 66 64 61 62 61 60 58 57 56 55 57 61 64 66 87 81 70 66 64 69 63 59 58 64 58 54 50 54 54 53
81 80 77 77 74 73 72 71 72 74 73 74 68 72 74 63 60 61 58 58 57 55 56 60 61 63 67 79 82 84 78 66 69 74 62 68 69 65 61 72 65 64 67
82 82 81 78 80 79 83 78 80 79 80 86 78 84 90 88 72 64 58 55 54 53 55 58 61 72 68 72 83 83 83 77 76 80 76 73 73 75 75 76 76 72 75
81 81 81 80 80 85 83 86 84 82 82 84 90 87 83 79 90 84 74 67 70 55 57 55 56 60 68 76 82 90 87 83 77 78 81 83 78 78 77 77 76 73 74
88 88 85 83 83 85 83 84 86 85 85 86 89 94 92 91 86 95 97 92 73 76 70 66 76 73 73 73 80 87 88 86 81 80 81 81 81 77 77 77 76 76 79
87 89 91 90 89 87 86 85 85 87 87 88 87 90 90 93 96 94 96 94 90 84 74 75 76 76 80 85 83 87 88 84 82 79 76 76 81 78 77 75 81 82 85
78 83 88 90 93 92 91 89 90 92 92 93 92 90 89 89 90 88 91 95 94 89 87 86 81 77 77 84 84 90 90 85 81 79 76 77 81 85 80 80 80 84 86
83 84 86 90 91 90 90 91 93 95 95 97 96 96 96 94 95 96 93 96 95 93 88 86 78 80 89 89 86 85 82 86 83 80 82 78 80 77 77 76 78 79 78
82 84 85 87 90 95 96 97 97 97 96 95 93 93 92 91 92 91 90 88 92 96 88 91 81 83 89 94 94 90 88 88 85 81 77 77 77 78 75 77 72 70 70
79 80 83 86 86 89 92 94 95 92 93 93 92 88 88 87 86 87 88 89 89 92 97 91 89 89 89 91 90 89 89 88 85 82 79 78 75 76 72 70 68 64 62
68 71 73 77 81 84 85 83 84 83 85 87 84 86 88 85 89 88 88 84 86 90 98 98 93 88 91 88 87 85 84 81 77 80 78 75 72 69 66 60 57 57 56
68 70 72 77 79 80 79 78 80 80 80 81 81 82 84 81 85 83 83 86 88 86 89 96 91 90 91 88 86 85 75 64 63 60 60 56 55 55 56 56 56 57 58
75 76 77 81 83 83 81 79 77 77 78 78 80 82 84 82 87 89 90 91 87 82 83 82 90 81 78 76 78 74 67 62 50 54 56 58 57 54 54 56 57 58 61
78 80 80 82 85 84 83 81 80 81 82 83 85 84 84 84 86 89 87 84 79 78 80 81 82 83 77 73 68 64 58 56 53 45 53 58 62 61 60 59 58 62 65
81 81 81 82 86 85 83 84 83 85 88 91 90 87 88 84 83 80 78 82 79 75 74 82 80 73 72 63 60 58 54 52 50 57 53 49 50 49 49 60 63 64 63
82 81 82 83 86 84 88 88 86 88 88 87 89 85 80 84 76 74 72 74 68 70 86 80 85 68 65 59 58 56 59 59 50 59 60 52 56 52 52 52 62 64 65
86 86 86 83 85 85 85 85 89 98 99 99 96 96 86 73 73 71 76 74 70 74 67 62 60 60 61 58 68 80 68 73 62 60 64 56 55 52 52 50 65 69 68
98 99 100 100 100 88 89 89 91 92 84 78 77 78 76 74 67 68 67 73 66 68 63 58 57 60 59 61 61 72 69 71 68 62 65 74 58 56 53 54 70 69 67
100 100 98 96 95 90 82 82 74 74 75 73 69 71 68 65 68 63 66 75 59 57 68 70 66 68 68 66 68 69 76 81 67 61 64 70 67 69 63 57 50 63 65
98 88 91 83 74 73 66 67 66 61 66 66 67 66 67 59 57 70 56 52 59 56 72 66 57 60 70 74 76 66 76 88 84 81 70 83 79 75 81 60 60 57 52

GFSMA_sfc_rhum_090.txt.gz
RH
46 48 49 50 52 52 51 53 51 50 52 50 44 38 38 39 40 40 42 86 86 84 75 69 66 63 62 63 61 60 61 62 61 64 62 63 63 63 63 60 60 61 63
43 49 50 52 52 51 49 50 48 47 48 48 47 41 39 42 45 46 43 45 83 86 83 72 69 66 64 64 64 62 61 62 62 63 61 62 62 62 61 61 61 61 61
51 52 46 49 49 47 47 50 51 50 47 45 46 42 37 40 46 46 46 44 49 91 88 80 72 69 67 65 64 65 64 63 63 62 62 61 61 60 59 58 58 58 58
54 54 52 47 44 48 50 51 50 50 49 48 46 47 47 44 44 45 46 45 47 45 76 87 84 77 69 68 66 65 67 66 66 64 62 58 57 56 55 55 56 56 56
54 55 53 51 46 51 52 53 52 52 54 54 53 50 49 49 48 46 46 46 47 50 47 76 89 91 85 72 67 64 68 68 66 64 61 58 56 56 54 54 54 54 56
55 58 55 54 52 53 55 56 58 56 54 52 52 51 50 50 49 49 47 45 46 49 49 50 51 57 92 85 74 66 66 72 68 66 63 59 55 54 52 51 53 57 54
56 59 57 56 57 59 57 56 56 60 59 57 59 55 54 50 50 48 47 46 46 49 47 46 47 47 51 87 83 76 68 66 74 69 63 61 57 57 54 51 52 52 54
63 61 61 61 60 62 62 61 60 62 58 56 60 62 66 52 48 48 46 47 47 46 46 48 48 48 50 51 64 85 82 73 71 78 71 65 64 66 61 54 62 59 60
72 74 68 65 68 67 68 66 65 70 67 68 65 69 80 76 62 52 52 47 46 46 48 50 49 52 54 54 72 84 85 82 74 73 76 66 72 70 66 69 67 70 70
72 72 70 68 68 71 72 74 71 72 71 72 76 68 67 70 82 89 67 56 52 51 58 50 49 51 54 59 74 83 86 85 76 72 75 75 78 74 74 73 73 73 71
73 76 74 73 72 70 72 71 74 70 69 73 74 78 82 86 83 93 94 74 66 61 58 57 62 61 62 61 65 79 86 84 79 77 76 74 86 75 76 75 75 73 73
73 75 78 79 79 75 73 71 71 73 73 75 76 79 81 81 82 87 94 88 84 75 65 60 62 63 63 68 74 86 86 85 80 77 76 74 82 84 79 74 78 80 79
69 73 76 81 87 88 83 80 80 82 81 83 81 85 78 75 75 76 84 81 85 78 76 71 66 65 65 68 74 85 87 86 85 79 77 88 87 81 77 74 74 75 77
60 68 69 75 76 81 80 84 90 92 90 93 90 89 86 90 91 91 91 90 90 85 77 73 69 72 81 84 82 85 76 87 86 86 84 82 80 80 78 75 75 72 71
68 70 72 72 74 80 89 91 96 95 94 94 93 93 91 87 85 86 90 90 90 77 75 79 75 77 86 88 91 83 85 86 85 82 82 80 77 77 78 72 70 69 68
68 70 72 73 75 79 85 90 92 91 93 94 93 89 86 82 82 83 85 83 85 88 91 83 87 82 83 84 85 83 83 84 83 81 79 77 77 75 74 70 68 64 61
59 62 66 67 70 74 80 85 86 84 87 87 80 76 78 79 84 84 85 78 78 81 89 95 90 82 81 77 71 71 73 71 66 74 72 69 67 65 64 60 57 57 57
56 58 60 62 65 70 72 75 77 76 74 73 74 75 78 77 79 77 74 77 80 80 85 93 88 83 82 78 72 74 66 56 57 60 60 58 57 57 57 56 57 58 58
57 59 61 64 66 68 66 66 67 68 68 69 71 72 73 74 80 84 82 84 81 77 78 80 85 73 70 65 66 62 56 52 42 49 52 53 55 54 53 56 57 58 59
59 60 62 65 69 68 68 67 66 68 69 70 73 74 75 76 78 80 79 77 71 70 72 75 77 77 66 62 60 56 53 46 44 37 45 52 58 58 61 59 58 59 64
62 64 65 68 72 74 71 74 74 75 78 80 80 75 76 78 77 72 71 74 72 68 67 79 78 68 69 61 56 50 46 42 41 45 41 38 41 41 42 51 58 63 61
67 66 70 72 76 75 87 83 78 79 80 84 86 82 80 79 76 75 74 68 60 64 74 73 77 61 53 48 47 46 49 51 45 48 48 42 45 43 43 43 54 63 64
73 76 77 77 80 81 85 86 85 94 99 100 99 96 78 68 70 67 71 69 71 67 59 48 46 42 46 45 63 74 59 61 50 47 54 50 44 43 43 39 55 67 69
89 93 100 99 94 84 82 87 89 89 79 74 71 64 59 55 55 54 51 61 60 54 51 42 45 47 48 51 53 69 60 57 56 51 55 70 47 49 44 45 60 70 68
100 100 99 94 90 87 84 86 74 67 65 61 57 58 58 58 63 62 60 66 51 62 68 68 69 70 68 67 61 59 72 72 61 52 54 62 59 63 56 52 44 61 64
100 93 96 88 83 81 80 72 54 48 48 51 53 54 58 50 68 56 42 44 50 47 55 54 52 58 61 70 70 59 66 92 81 80 64 78 77 73 84 56 54 52 48

GFSMA_sfc_rhum_093.txt.gz
RH
40 38 41 46 49 49 54 51 47 46 48 45 42 34 34 35 37 40 42 85 83 80 78 71 68 64 64 64 61 61 62 61 62 64 63 63 63 62 60 59 60 61 60
39 44 45 46 46 46 45 46 45 45 45 44 43 39 35 37 39 43 46 54 81 82 82 76 72 68 66 65 64 62 62 62 62 62 62 61 61 61 60 60 61 61 61
42 45 43 47 46 44 41 44 45 46 43 41 42 39 36 34 42 45 47 46 59 86 83 80 74 72 69 67 67 68 66 65 64 64 62 60 60 58 58 57 56 57 58
48 50 50 44 42 44 46 48 48 48 47 47 45 44 45 42 41 42 45 47 52 47 81 85 84 77 74 71 67 68 68 67 66 65 63 61 59 57 55 54 54 55 56
49 51 51 48 41 47 50 52 51 49 52 52 53 50 51 53 51 45 47 48 49 54 53 85 88 89 87 76 70 67 69 71 69 67 65 61 58 56 54 52 52 53 54
50 54 52 51 48 51 52 54 55 54 54 52 49 51 54 54 55 54 49 46 48 52 53 56 68 70 91 86 78 68 65 71 72 71 67 63 59 56 53 50 51 53 54
53 55 55 52 53 55 54 53 56 59 62 60 64 64 60 55 55 54 54 50 49 51 51 52 54 54 64 87 86 80 73 68 69 75 70 66 61 57 56 55 53 55 53
65 59 60 60 56 59 59 58 60 65 65 65 68 68 74 62 59 54 55 51 50 52 52 51 50 52 57 59 78 86 84 80 73 69 77 68 67 61 63 58 54 60 58
76 72 66 63 64 64 68 68 68 72 72 68 66 73 82 80 71 62 60 56 51 53 53 52 52 54 56 59 71 77 85 83 79 75 71 76 70 64 68 65 64 62 66
83 89 88 80 71 76 76 76 70 71 75 78 81 70 72 71 82 81 70 64 58 55 59 57 59 57 60 68 74 86 86 84 80 76 71 73 83 72 73 70 69 68 72
87 89 88 88 85 78 78 73 76 74 74 77 77 86 81 82 82 91 93 83 72 65 60 62 62 64 66 70 74 82 86 84 80 76 73 73 74 80 81 74 80 69 74
81 82 82 83 83 79 77 78 76 76 75 75 77 82 87 89 90 91 94 87 84 78 67 65 67 67 68 72 78 83 85 84 78 76 75 78 83 80 84 83 77 76 76
84 83 83 86 90 90 88 83 81 82 83 84 82 85 86 85 82 81 82 86 90 84 80 73 70 70 70 76 81 88 87 82 81 78 82 85 81 80 80 79 80 76 74
57 60 68 70 73 80 89 92 96 95 93 94 91 93 93 93 89 92 90 88 96 94 89 80 73 79 83 88 86 88 89 87 84 83 83 83 81 78 78 76 72 69 68
62 65 68 68 69 72 78 90 97 98 98 98 98 96 93 91 89 90 92 93 95 94 95 84 86 82 86 88 88 84 87 86 84 82 82 80 78 78 73 71 69 68 65
65 67 68 70 72 76 80 85 93 94 96 98 96 95 94 91 88 90 90 89 92 96 90 88 89 85 83 82 84 83 82 81 81 78 77 77 76 74 72 68 65 61 59
59 62 63 65 67 71 80 87 89 90 92 93 90 89 88 82 88 85 89 86 88 91 98 98 93 84 85 81 75 76 74 72 68 69 69 66 64 63 62 60 59 59 59
54 57 58 61 63 67 70 78 83 84 84 83 80 81 84 78 82 82 84 83 86 86 91 95 89 87 86 77 72 74 64 56 58 62 64 63 63 62 60 59 58 57 56
54 55 58 61 62 65 65 66 69 70 73 72 76 76 78 80 83 89 88 92 90 84 88 90 89 76 73 70 74 69 62 61 43 48 47 49 50 52 53 55 56 57 60
55 57 58 61 64 64 64 64 65 67 70 72 76 76 77 79 84 87 86 85 79 81 82 87 86 85 80 72 75 72 69 60 57 38 46 51 49 55 57 56 55 57 60
58 60 61 63 66 70 68 70 70 72 77 81 82 79 80 80 78 72 75 80 79 79 80 88 87 83 86 80 74 65 63 58 61 60 59 54 56 60 59 54 57 57 58
64 63 66 67 71 70 84 78 76 79 80 82 86 83 80 80 76 73 71 70 70 78 86 95 95 90 70 66 63 62 70 79 76 66 67 62 60 62 58 61 60 58 62
70 74 77 74 77 79 83 83 82 97 100 100 100 97 82 74 75 74 70 69 68 66 63 67 67 58 61 57 86 86 73 82 72 68 70 72 62 62 60 44 52 60 65
84 89 100 98 94 83 83 86 93 94 88 86 83 77 71 67 62 61 58 73 69 63 59 43 60 58 64 65 71 82 74 69 69 67 69 90 67 69 64 64 60 63 69
100 100 100 96 93 89 83 86 81 78 77 72 64 59 58 57 64 57 71 75 69 74 66 69 70 68 65 65 67 74 91 90 86 70 72 81 83 86 80 74 67 58 62
100 98 100 93 84 86 84 80 68 60 58 58 62 64 54 60 58 54 64 60 62 65 68 73 75 68 70 75 69 72 88 97 95 95 86 93 84 94 97 80 74 73 71

GFSMA_sfc_rhum_096.txt.gz
RH
64 62 76 85 86 83 82 84 78 69 68 65 59 51 47 51 55 60 87 88 83 81 76 72 68 65 66 64 63 62 63 62 64 63 64 64 64 63 62 62 63 62 62
62 62 66 73 74 71 76 73 68 66 68 65 64 54 50 52 54 58 74 87 85 82 79 76 73 70 67 68 66 64 64 62 64 62 63 62 62 62 61 62 62 62 62
58 64 68 71 70 65 62 65 65 66 66 59 62 59 54 52 60 60 63 70 80 86 82 76 74 73 71 68 68 68 66 65 64 63 62 61 60 59 58 57 58 59 60
62 67 70 68 66 66 66 70 70 72 70 69 67 65 62 56 55 60 62 64 69 69 86 84 84 78 77 73 69 69 70 68 68 66 63 61 60 58 56 54 55 56 58
63 71 73 69 60 69 71 72 73 74 77 75 72 72 74 73 69 59 64 64 66 68 78 86 88 89 87 78 72 70 71 72 71 69 67 64 59 57 55 54 53 53 57
64 71 73 70 64 73 75 77 78 77 76 77 63 66 74 75 76 75 71 64 66 69 70 74 93 93 92 87 77 71 68 73 75 73 70 68 63 58 55 54 52 53 54
66 70 73 72 71 72 74 74 77 80 86 82 86 86 83 76 74 75 75 71 68 63 66 69 77 78 87 87 85 78 75 76 70 73 74 70 66 61 58 56 55 56 52
74 71 76 76 72 77 74 75 76 84 83 85 88 92 92 84 80 73 75 70 70 69 67 65 67 70 73 87 83 82 81 80 80 75 71 77 70 65 65 61 57 59 58
92 88 84 90 86 84 84 82 82 83 90 87 83 88 95 94 85 78 72 70 68 74 72 67 64 68 70 75 82 88 86 83 79 76 74 71 75 70 66 66 63 62 60
96 96 95 95 95 95 95 96 93 94 92 95 91 87 90 90 95 93 87 80 70 72 75 77 79 76 79 89 90 88 87 84 78 73 69 66 72 76 73 70 69 67 68
96 96 96 95 94 93 92 93 95 94 92 94 95 96 94 95 94 97 97 95 90 81 82 81 81 84 82 88 90 91 84 82 77 74 68 70 74 75 76 76 76 79 73
97 97 95 97 96 94 94 96 94 94 96 93 94 94 94 96 98 98 99 95 95 91 88 86 82 90 92 95 83 88 83 82 76 72 68 74 78 78 76 88 84 78 76
86 92 93 97 97 96 94 93 93 91 91 89 90 92 92 92 91 92 93 95 97 95 96 91 92 97 83 94 96 91 90 83 79 76 80 80 81 80 81 81 80 78 76
79 80 81 81 82 88 94 96 98 98 97 97 95 96 97 97 95 93 92 95 99 98 96 90 96 97 92 93 89 89 92 87 85 83 82 81 80 80 79 77 73 69 67
71 76 79 80 82 84 87 91 98 98 98 98 98 98 98 98 97 97 96 95 96 98 99 93 98 90 94 93 90 88 89 85 84 82 82 81 80 76 74 72 70 67 64
79 81 80 84 86 90 92 93 97 97 99 99 98 97 97 96 96 96 96 95 96 97 97 95 96 92 89 90 87 86 87 83 80 79 78 76 75 74 71 68 64 62 61
72 74 74 76 80 85 91 94 95 96 98 97 95 94 94 92 95 95 95 94 96 96 99 100 96 90 90 89 86 84 79 80 74 70 68 65 64 64 63 63 63 62 62
69 71 71 74 75 78 85 88 89 92 93 94 90 90 92 90 94 92 92 92 94 94 96 98 95 93 92 84 80 87 66 58 61 66 66 66 65 63 61 61 60 58 56
66 70 73 76 78 78 79 82 84 85 85 85 86 85 86 88 91 93 95 96 96 94 95 95 98 85 81 78 80 80 77 68 49 52 47 48 51 51 52 54 55 55 60
71 73 73 76 79 79 79 78 77 80 81 83 85 85 86 89 93 95 95 94 92 95 94 95 92 91 87 84 88 89 80 72 66 44 47 48 44 50 50 50 52 54 59
73 74 74 78 82 81 80 88 86 90 91 91 89 86 90 88 86 85 91 91 91 93 96 97 94 94 95 92 90 76 78 72 75 70 72 67 66 68 69 54 57 55 56
79 78 82 84 88 78 79 79 82 93 93 94 95 94 87 83 77 75 74 73 77 91 93 96 98 95 88 81 75 75 84 94 86 82 81 77 71 71 70 74 58 58 60
87 92 93 88 86 86 82 82 91 98 100 100 100 98 88 84 84 86 72 72 70 67 69 82 87 76 73 72 87 90 82 90 87 82 82 84 75 72 73 53 54 58 60
91 97 100 96 95 87 83 89 92 99 97 94 91 86 90 83 81 68 80 81 80 80 74 57 72 78 79 77 82 87 83 82 82 80 80 94 89 83 83 83 58 58 66
100 100 100 97 95 94 86 86 88 88 88 84 75 72 70 71 61 60 79 86 83 83 69 68 69 66 65 66 68 87 96 96 95 83 89 91 94 94 91 89 82 52 54
100 100 100 96 87 92 83 82 78 75 74 75 77 72 63 69 64 60 79 76 88 88 86 88 80 81 83 77 68 82 95 98 98 97 93 96 97 97 97 92 88 86 83

GFSMA_sfc_rhum_099.txt.gz
RH
91 93 96 97 96 96 96 97 95 88 81 70 66 54 52 56 62 85 94 90 87 83 75 73 69 68 67 65 64 64 63 63 66 65 65 65 64 63 63 64 64 63 62
71 83 89 91 95 91 92 91 89 80 78 76 71 60 53 54 58 69 87 91 88 84 81 75 73 70 68 68 66 65 65 63 65 63 63 63 62 61 61 62 62 62 63
70 72 84 91 88 84 84 83 76 74 72 67 69 68 60 58 61 64 74 83 87 90 83 74 74 74 72 70 69 68 67 66 65 64 63 62 60 59 57 57 58 60 59
65 72 76 78 75 74 72 76 76 77 76 75 71 69 69 61 63 66 69 74 79 75 87 83 83 77 75 74 71 71 71 70 69 67 65 62 61 59 56 55 56 57 59
67 72 77 72 70 75 76 75 80 81 82 81 78 79 79 77 68 61 71 70 73 78 83 86 89 88 87 78 73 70 72 73 72 71 69 67 62 59 56 54 54 55 59
68 74 77 75 68 78 80 82 81 84 83 83 70 72 80 80 82 82 75 68 72 74 78 84 94 93 92 85 80 72 69 71 76 75 73 70 66 61 58 57 56 56 55
71 75 80 77 73 75 76 75 80 83 86 87 86 87 84 80 79 82 81 79 76 69 74 81 93 90 84 89 84 81 80 77 72 75 78 74 70 65 61 59 57 58 55
75 77 78 80 78 76 76 78 82 88 88 89 89 94 94 87 90 83 85 79 78 69 71 70 74 76 89 90 93 86 83 79 76 75 74 77 76 70 65 67 61 61 60
95 90 86 86 88 84 84 85 84 86 91 93 90 90 96 96 93 85 79 74 70 74 77 75 76 74 86 94 93 91 86 82 75 71 70 70 74 77 68 70 64 62 62
96 97 97 97 97 96 95 96 94 93 94 97 96 93 95 92 92 90 87 76 75 78 87 87 87 85 89 92 90 88 86 82 76 72 68 64 70 72 76 73 71 67 65
92 95 97 98 98 98 97 98 97 98 98 97 97 98 98 97 93 95 95 92 82 89 90 90 91 94 90 88 94 91 83 80 76 72 68 67 71 74 72 76 74 75 77
96 96 96 97 97 97 95 96 97 97 96 95 96 97 97 97 98 98 99 96 95 88 85 84 87 98 98 96 89 89 86 80 76 72 71 72 73 73 72 80 80 87 81
89 94 95 97 97 97 93 96 97 97 97 98 97 96 94 93 93 94 96 97 97 96 96 97 98 97 88 97 97 94 93 88 82 78 78 76 79 81 79 78 80 80 79
87 91 93 92 93 94 95 96 98 98 98 98 97 97 97 98 97 96 94 96 99 99 95 92 98 96 91 93 91 89 92 88 85 82 80 80 83 82 81 79 77 74 71
76 84 84 85 88 90 90 93 97 98 99 98 99 98 98 98 98 97 96 94 94 99 99 96 97 91 94 92 89 88 92 85 83 84 83 80 78 76 75 73 71 68 66
82 84 86 89 91 92 93 94 97 96 98 99 99 99 98 98 98 98 98 98 97 96 98 94 97 95 92 92 87 88 89 85 81 80 79 77 75 74 71 68 66 63 63
77 79 79 82 86 90 92 94 95 96 98 98 97 98 97 95 97 98 97 95 97 97 99 100 96 93 94 91 88 85 84 81 75 71 69 68 66 66 65 65 65 64 64
74 74 76 80 82 83 88 92 94 96 97 98 96 96 97 94 95 94 94 93 96 96 97 99 96 94 92 88 86 84 66 62 68 68 68 68 67 66 64 63 61 59 57
71 71 76 81 82 82 84 86 91 91 93 90 90 91 91 92 95 96 96 96 97 94 94 95 98 88 84 81 81 77 74 62 53 55 52 52 53 53 54 56 56 57 62
75 77 82 82 85 84 86 85 86 86 85 86 88 88 90 91 93 94 95 94 94 97 95 93 93 91 86 81 86 85 80 76 65 48 50 48 46 49 49 50 53 55 59
76 81 83 85 88 84 83 91 90 91 90 90 90 87 90 90 89 88 91 96 95 96 98 96 96 92 92 92 92 80 87 78 75 74 72 70 70 72 69 56 58 57 56
85 86 90 89 90 83 79 81 84 94 94 95 95 92 89 85 79 76 76 78 88 95 96 98 98 97 94 92 81 77 82 92 86 84 78 70 76 73 75 79 61 58 58
92 94 95 90 91 92 80 81 89 96 98 100 100 97 92 86 84 84 76 74 74 74 79 90 93 92 81 77 81 88 81 91 88 83 79 82 83 75 82 62 54 56 58
93 96 100 99 94 91 82 88 92 98 98 95 93 90 90 90 86 82 77 81 84 79 68 61 75 74 76 82 78 82 79 83 86 82 83 94 94 87 89 86 59 56 61
100 100 96 98 96 94 86 86 93 96 97 96 86 81 77 80 72 69 81 84 87 88 69 70 66 65 66 67 75 86 96 96 95 86 92 91 96 95 94 94 82 56 56
100 99 100 97 91 93 85 84 81 81 83 75 73 70 69 68 62 66 83 84 87 93 90 81 88 84 83 76 72 86 94 97 98 98 93 95 98 98 96 92 91 87 87

GFSMA_sfc_rhum_102.txt.gz
RH
98 98 99 99 98 98 97 97 96 92 92 88 75 62 58 70 85 93 97 92 87 82 75 72 70 69 66 66 65 65 64 66 65 66 66 65 64 64 64 63 62 62 62
97 95 97 98 98 97 97 97 97 96 93 86 76 68 58 60 70 90 94 94 90 87 82 75 73 71 70 68 66 66 65 67 64 65 64 64 62 62 62 62 62 62 61
89 94 94 98 97 96 93 95 93 84 85 77 81 76 66 62 64 71 86 90 90 91 86 75 73 76 73 72 70 69 68 66 67 65 63 62 60 59 58 59 59 59 60
75 83 95 96 93 92 92 91 85 83 80 78 76 74 73 68 64 69 75 81 85 83 88 84 83 78 75 75 72 73 72 71 70 68 66 64 61 59 56 56 56 58 61
70 78 84 88 82 85 82 82 84 83 85 84 80 81 83 79 71 61 70 73 79 82 84 86 88 88 87 80 72 72 72 75 74 72 70 68 64 61 58 57 56 57 58
72 78 81 76 77 82 82 85 83 88 86 84 74 77 86 86 86 84 78 74 76 78 81 84 93 95 92 84 79 75 72 71 78 77 75 72 68 63 60 60 58 59 58
72 76 80 81 76 79 79 80 83 83 88 89 88 88 90 86 84 86 88 86 83 76 74 88 96 95 90 89 85 84 81 79 74 78 79 77 74 68 63 61 61 60 58
75 78 82 83 81 76 77 78 81 89 87 89 89 95 94 88 92 90 90 87 86 75 69 71 80 91 96 97 93 86 83 77 74 73 74 80 80 75 68 64 62 62 60
89 89 89 88 88 82 86 90 92 92 93 96 93 89 96 96 95 93 92 89 81 79 74 76 84 86 85 96 94 92 85 81 74 70 68 70 73 76 76 69 68 64 65
96 96 96 97 96 98 96 96 96 96 98 98 98 96 96 95 96 94 89 81 76 77 83 85 93 89 90 91 89 88 85 83 76 72 68 66 68 71 72 75 72 67 68
95 96 98 99 99 99 99 99 99 99 98 98 98 99 99 99 98 99 97 93 81 83 88 84 84 88 90 91 96 90 84 80 76 73 69 67 69 71 70 71 76 71 71
98 97 98 98 99 99 96 95 96 97 97 98 97 97 95 98 99 99 99 98 94 88 84 84 88 90 97 97 90 94 90 84 76 74 73 70 70 75 73 72 71 76 79
92 95 95 95 94 94 95 95 95 96 96 96 95 94 94 91 95 96 97 98 98 94 92 93 92 93 91 98 97 94 92 88 82 78 76 79 81 79 78 82 87 89 82
88 89 95 92 90 90 92 91 95 98 97 97 93 95 97 97 96 97 96 97 100 99 96 94 98 98 96 96 92 91 92 88 86 81 80 84 83 81 81 80 79 79 78
89 92 91 91 90 92 93 94 98 97 98 99 99 99 99 98 98 98 96 94 94 99 98 98 98 92 94 92 89 90 92 85 84 84 82 80 78 78 77 76 74 72 69
89 90 91 90 92 93 92 94 96 96 97 98 99 99 99 98 98 98 98 97 97 97 99 96 98 96 93 91 89 90 90 86 83 81 79 78 76 74 72 70 68 66 65
85 88 83 89 90 91 92 95 96 96 97 98 98 98 98 97 99 98 98 98 98 98 98 100 97 95 96 93 90 88 84 80 79 73 70 70 69 68 68 68 68 67 66
82 76 85 87 87 86 87 92 95 95 98 98 97 98 98 98 98 96 97 96 97 96 97 99 97 97 94 91 90 83 70 64 73 68 68 69 69 68 68 67 65 62 61
80 80 82 83 82 83 85 86 89 94 94 95 95 95 95 95 97 97 97 97 97 96 94 96 98 89 86 86 87 78 68 62 58 60 59 60 58 58 60 60 60 62 62
83 85 85 84 88 89 90 90 90 92 92 90 91 92 92 94 95 96 97 96 94 97 95 94 94 92 87 84 86 83 80 71 68 51 54 51 48 50 51 53 55 57 58
86 86 88 89 89 86 86 92 92 92 92 92 91 88 90 92 92 90 94 96 95 96 98 97 96 93 93 92 90 84 84 83 78 75 70 68 70 72 70 58 56 57 56
90 90 91 90 90 86 79 80 86 93 93 94 94 90 89 89 86 83 83 85 88 96 98 98 100 96 92 88 84 81 87 92 84 81 73 70 76 74 76 76 62 60 58
92 94 94 92 91 92 81 79 87 96 98 98 99 97 91 85 85 87 78 78 80 80 83 92 94 92 93 85 85 88 81 88 83 82 75 84 82 79 83 66 57 56 58
94 96 100 99 96 92 83 84 88 97 98 96 94 92 90 87 85 78 76 83 84 73 74 77 91 89 78 80 78 79 78 81 84 83 82 96 94 86 91 88 62 55 58
96 98 96 97 97 94 86 86 90 96 98 97 91 85 84 82 78 71 79 88 91 89 69 69 69 68 70 70 75 80 89 88 93 87 90 88 96 94 93 95 83 61 63
99 98 99 99 94 95 87 84 84 87 93 87 76 74 81 74 73 69 77 82 88 93 89 88 91 84 78 73 70 75 88 93 97 98 92 95 98 97 95 92 92 89 87

GFSMA_sfc_rhum_105.txt.gz
RH
98 98 98 98 98 98 97 97 95 89 90 90 85 78 66 79 89 97 98 93 88 81 73 70 69 67 67 66 65 65 66 66 66 66 65 64 63 64 63 62 62 62 62
98 98 98 98 98 98 97 97 97 96 95 94 87 78 65 67 80 93 96 95 93 87 82 75 72 71 69 68 66 66 65 67 66 65 65 63 61 62 62 62 62 62 62
98 97 98 99 98 98 96 97 96 94 94 89 89 85 78 67 68 77 92 94 92 93 87 76 74 75 73 71 71 70 68 69 67 66 64 62 60 58 58 59 59 60 62
96 98 98 98 97 97 97 97 96 93 88 84 81 79 78 76 68 70 79 88 89 87 88 85 84 78 77 75 74 74 72 71 71 69 67 64 62 59 57 58 58 60 61
84 92 96 97 95 97 96 94 92 87 88 87 83 82 84 83 74 64 75 78 82 87 88 85 89 88 88 78 74 73 70 76 75 73 70 68 65 61 59 59 57 60 59
74 82 86 90 91 93 92 89 87 90 88 86 76 79 86 86 87 89 82 77 82 82 86 80 90 94 92 85 80 78 73 73 79 79 75 72 69 65 61 61 59 60 59
71 79 83 82 84 85 85 86 87 86 89 91 90 87 86 84 90 91 92 91 87 83 81 81 89 90 97 91 87 83 80 76 77 76 79 78 74 70 66 62 62 62 60
78 78 83 86 80 82 82 85 85 90 85 89 89 95 94 88 93 92 96 91 91 82 79 76 86 89 93 98 93 86 82 76 72 70 73 76 75 78 71 67 65 64 63
85 84 85 91 91 87 87 88 89 87 92 96 92 90 97 95 97 95 94 95 94 93 86 85 85 85 83 93 94 92 84 82 75 70 69 69 70 73 75 73 68 67 66
92 91 92 93 94 97 95 93 94 96 97 98 99 99 99 97 98 97 94 86 82 82 86 87 87 82 81 86 89 87 84 82 76 73 70 67 67 67 71 74 75 71 68
97 96 97 99 99 99 99 99 99 99 99 99 99 99 99 100 98 99 98 97 88 88 86 84 85 84 82 88 93 93 84 80 75 74 70 67 66 68 67 66 68 76 70
99 98 98 98 98 99 99 98 98 98 98 99 98 98 96 97 99 99 99 98 94 91 89 88 87 88 94 97 93 93 91 88 76 73 74 70 71 75 76 74 68 74 75
99 98 98 98 98 96 97 95 92 92 94 98 97 96 95 94 94 94 97 97 99 98 97 96 92 90 91 97 97 93 92 88 82 77 81 83 84 78 79 83 74 71 89
95 94 95 92 91 92 93 92 94 95 94 95 97 96 96 96 96 94 88 92 100 99 98 94 98 95 97 96 93 90 94 88 86 82 80 83 83 82 80 82 86 86 85
89 92 93 92 93 93 94 96 98 99 98 99 99 99 98 98 98 98 98 97 96 99 98 98 98 97 97 94 90 92 94 86 84 84 82 81 80 79 77 76 75 74 73
92 93 92 92 92 93 93 93 95 95 97 97 99 99 98 98 98 99 99 98 98 97 99 97 98 97 94 93 90 90 90 89 84 81 80 80 77 74 72 71 70 69 67
92 91 91 93 92 92 91 94 95 96 97 97 97 97 97 97 99 99 99 99 99 98 99 100 99 97 97 94 92 90 84 84 82 76 74 73 72 70 69 70 70 69 69
81 89 89 89 89 87 87 91 94 94 96 97 97 97 98 98 98 98 98 98 98 98 97 99 98 99 96 93 90 89 78 65 76 73 71 72 72 71 70 70 68 66 65
85 80 88 88 88 88 89 90 90 92 95 96 96 97 97 96 98 98 97 98 97 97 95 97 99 94 93 94 90 77 71 65 63 73 70 69 66 65 65 64 64 63 66
79 88 89 89 90 90 91 92 92 93 94 94 94 94 95 96 97 96 97 96 97 98 96 95 96 94 90 88 89 84 80 67 64 51 56 55 54 55 56 56 57 59 60
88 89 90 91 90 88 89 93 94 94 95 94 93 93 94 92 91 91 96 97 97 98 98 98 97 94 97 97 94 87 86 74 70 74 69 68 69 69 71 60 58 58 55
91 91 92 91 91 88 80 79 86 96 94 95 96 94 92 87 86 84 85 85 89 96 98 100 100 97 92 92 88 84 84 82 82 82 69 71 73 71 74 77 64 60 59
92 94 96 95 93 93 82 81 84 96 97 99 99 97 92 84 86 88 83 82 81 82 85 93 95 93 92 86 86 88 80 83 80 84 71 74 80 76 80 68 62 58 57
93 97 99 97 97 92 83 79 86 95 96 96 96 94 93 89 86 82 78 82 78 71 78 88 92 90 89 88 83 84 79 81 83 83 78 95 89 80 86 86 69 57 57
96 96 96 98 99 95 86 84 87 95 96 97 93 87 88 86 83 78 81 86 82 85 68 71 73 72 70 74 75 77 87 85 91 84 86 86 93 92 89 90 82 63 64
98 98 99 96 98 97 87 85 88 87 95 92 85 76 85 82 82 74 74 81 86 90 90 90 93 86 82 77 68 74 85 88 97 96 89 92 95 94 96 91 91 88 86

GFSMA_sfc_rhum_108.txt.gz
RH
99 99 98 98 98 97 96 95 93 88 89 89 88 84 69 82 91 97 98 94 89 80 72 70 69 68 68 67 66 67 68 67 65 65 64 64 64 64 63 64 64 63 63
97 98 98 98 98 98 97 96 95 94 95 95 92 86 71 72 83 93 97 95 93 88 82 74 72 71 69 68 66 66 68 67 66 64 64 63 63 63 63 63 63 63 64
96 97 98 98 98 98 96 97 96 96 96 93 92 90 87 73 70 82 94 95 93 93 88 79 75 76 74 75 72 70 69 70 68 66 64 61 59 60 60 61 61 63 64
97 98 98 98 98 98 98 98 97 96 95 93 88 82 83 81 73 71 78 90 92 89 89 86 83 80 76 75 70 72 73 71 71 70 68 64 62 59 59 58 59 62 62
97 98 97 97 97 98 98 96 97 94 94 90 85 83 84 85 80 66 72 78 86 90 92 87 89 86 86 80 74 73 68 77 75 73 71 68 64 61 59 59 58 61 60
93 97 98 97 97 98 98 97 95 94 90 88 80 80 87 89 91 90 84 77 83 83 87 82 82 90 90 82 79 76 74 72 75 80 76 74 70 66 62 62 60 61 60
80 87 91 94 97 96 94 94 92 91 94 94 92 88 87 86 92 94 94 94 92 89 90 86 88 93 98 89 86 82 77 75 73 75 77 79 77 72 67 63 64 62 62
77 78 85 87 90 92 90 90 89 94 92 94 92 92 91 86 94 92 97 94 92 88 90 91 93 96 91 92 90 84 80 74 71 68 68 72 74 77 74 76 66 65 65
85 85 87 90 88 89 92 91 92 90 93 97 93 94 97 96 97 91 89 92 93 93 91 89 94 92 86 92 89 88 82 80 75 70 69 68 69 69 71 76 72 69 67
89 88 88 92 94 97 97 95 95 96 98 98 99 99 99 98 99 97 93 88 84 84 90 91 90 90 85 88 85 85 81 79 76 72 68 67 66 66 66 68 73 74 70
95 95 95 98 98 99 99 98 98 99 98 98 98 99 99 99 99 100 99 98 93 91 91 91 92 90 86 91 92 94 88 84 74 71 69 67 65 66 67 66 65 73 74
99 98 98 98 99 99 99 99 99 99 98 99 98 98 98 98 99 99 100 98 97 93 93 93 93 95 94 93 92 92 91 86 75 69 71 70 72 72 72 71 73 66 73
100 99 99 99 99 98 98 98 98 98 98 99 98 99 98 97 96 97 98 96 99 97 96 96 96 95 92 97 97 94 93 90 83 79 80 82 83 82 80 82 79 70 70
98 98 98 97 96 96 96 94 95 95 93 96 95 97 98 98 98 98 97 98 98 100 99 93 98 97 96 96 95 92 94 90 86 80 80 82 82 82 81 83 85 88 90
95 97 95 94 94 94 95 96 98 99 98 99 99 98 99 98 98 98 98 98 98 97 98 98 98 95 97 96 93 94 95 86 84 84 81 80 82 79 76 77 85 86 84
93 94 95 95 95 95 94 94 95 95 95 97 98 98 94 98 98 98 99 99 99 98 98 96 98 97 96 94 91 92 93 91 83 82 81 79 78 76 73 72 72 72 73
94 94 94 94 94 93 93 94 95 95 95 96 96 94 96 95 98 98 98 99 99 100 99 100 99 98 98 97 95 90 88 87 85 78 76 74 74 73 72 72 72 71 70
93 93 92 92 92 91 91 91 92 94 95 96 97 97 95 97 97 97 98 99 99 98 98 99 99 99 98 95 93 90 74 69 81 76 74 74 75 75 74 73 72 70 69
90 91 91 91 90 91 90 92 92 92 94 96 97 97 97 97 98 98 98 99 98 98 96 97 99 96 96 96 94 82 74 75 71 80 74 74 72 70 68 67 67 69 71
87 89 90 89 91 91 92 93 93 94 94 95 95 95 95 96 98 98 98 97 97 98 96 97 97 96 93 95 91 86 81 69 64 55 61 56 62 60 62 61 64 68 66
91 90 92 92 91 90 92 93 94 95 94 94 94 94 93 91 90 91 97 96 97 98 99 99 98 95 97 99 97 91 88 74 69 68 66 67 70 69 74 59 62 59 57
93 92 93 92 92 89 82 80 89 94 94 94 95 94 93 88 89 83 83 84 90 97 98 100 100 98 95 95 94 90 86 84 82 75 64 70 70 70 70 79 61 58 57
94 96 98 96 94 93 82 82 87 96 98 96 97 96 94 87 87 88 82 82 82 83 86 94 96 94 94 91 90 92 85 86 80 79 66 72 77 72 76 67 65 61 59
95 99 99 100 98 92 83 80 83 94 94 94 96 96 96 94 88 89 82 84 81 76 76 87 94 92 88 87 85 88 81 78 78 77 75 90 84 77 82 82 72 60 59
97 97 96 96 98 95 85 83 89 94 93 94 95 87 88 89 82 83 83 87 81 82 74 72 75 75 73 81 78 79 84 83 83 81 82 84 91 90 85 84 81 58 58
100 99 99 96 93 98 88 82 88 88 91 91 90 78 73 86 81 80 77 80 85 84 87 85 83 87 88 81 71 80 86 88 95 95 85 90 94 92 95 89 88 84 83

GFSMA_sfc_rhum_111.txt.gz
RH
84 81 80 78 76 74 68 67 61 60 59 58 56 54 50 57 62 63 62 92 89 78 71 69 68 68 67 67 67 68 67 66 64 64 64 64 64 63 64 64 64 64 63
78 78 80 78 76 71 69 62 58 59 62 64 63 56 46 49 54 64 62 63 92 87 81 73 72 70 69 68 67 66 68 66 65 64 63 63 63 63 63 63 64 64 64
77 76 74 75 71 72 72 71 70 73 72 70 68 62 60 51 47 51 62 62 65 93 88 80 78 77 75 72 70 70 70 70 69 68 65 62 62 61 62 61 62 64 64
72 74 71 73 74 75 74 77 77 75 72 68 66 60 57 59 54 49 52 57 62 59 77 85 82 77 73 73 71 71 73 72 72 70 68 65 62 61 61 60 61 63 64
77 76 75 74 77 80 79 78 79 74 74 71 66 60 58 58 58 53 50 52 58 63 60 78 87 87 84 77 73 69 67 74 75 73 72 69 65 61 61 61 61 62 62
82 81 79 78 78 81 80 81 78 76 70 68 65 63 64 64 66 66 56 53 54 59 60 64 70 71 88 81 76 72 70 70 72 78 76 74 71 67 62 63 62 62 61
80 83 81 81 82 80 78 78 77 78 77 72 70 68 69 71 72 82 73 64 66 65 63 62 64 64 74 90 84 77 73 72 71 72 76 79 81 74 69 64 65 63 63
75 76 78 81 83 83 81 79 76 76 73 75 74 83 79 76 83 79 80 72 71 71 77 78 81 88 90 74 76 82 77 71 68 66 66 68 73 75 76 71 67 67 66
81 81 79 82 81 81 83 82 81 76 82 86 81 83 92 94 96 92 87 88 90 88 84 87 85 87 85 89 82 80 80 78 72 68 66 66 67 68 71 73 74 72 68
82 83 85 83 85 89 87 88 88 91 94 94 94 92 89 86 97 93 90 86 82 83 89 91 88 87 83 90 87 84 81 79 74 70 66 65 65 64 65 66 70 75 73
82 86 89 88 95 96 96 96 97 96 94 91 91 95 96 97 97 99 99 97 94 94 86 90 92 91 90 95 94 89 89 85 74 70 66 64 63 64 65 68 66 65 74
98 93 95 95 94 94 96 96 96 96 93 92 90 87 93 96 96 98 99 97 94 92 91 90 94 94 90 86 90 93 90 88 75 66 67 69 73 74 74 73 71 71 66
98 98 97 98 97 95 95 93 96 97 95 92 88 91 87 86 92 93 97 95 95 87 92 93 93 85 82 80 88 93 93 90 80 76 76 79 80 81 81 80 80 76 69
98 98 97 94 93 91 90 90 90 88 86 89 86 85 87 87 87 87 89 86 89 87 90 86 85 82 81 84 89 94 86 92 86 80 79 79 80 80 82 83 86 86 74
96 93 92 91 86 87 86 87 91 94 89 92 94 94 95 94 93 93 95 98 98 96 93 88 87 84 84 88 96 88 95 94 86 82 80 81 80 79 78 81 86 87 85
90 88 86 85 88 86 83 85 86 84 85 90 88 89 86 84 84 86 88 91 93 93 92 88 86 87 86 89 89 89 93 94 88 81 80 80 79 77 75 74 79 85 87
83 83 83 82 81 80 80 80 82 82 81 83 85 84 80 78 86 85 87 89 95 98 97 99 94 93 97 94 95 92 92 86 86 80 76 76 74 75 76 74 73 74 74
81 81 78 76 75 76 74 73 76 78 80 82 84 84 78 83 85 84 84 88 93 95 100 99 96 97 95 92 89 90 78 75 82 78 74 75 75 76 77 76 76 73 72
78 76 74 74 74 74 73 73 73 75 77 80 82 83 84 84 87 87 88 90 92 94 98 97 98 95 96 95 95 87 78 79 76 83 75 75 75 75 74 71 70 72 74
75 75 74 75 76 76 76 76 76 75 78 79 82 81 81 83 86 87 89 90 91 92 94 96 96 96 93 94 90 90 86 76 69 58 64 65 68 70 69 69 70 72 69
76 76 76 77 78 80 78 79 80 80 80 81 82 80 82 84 85 83 87 87 88 92 95 98 98 96 98 99 98 92 92 86 77 69 65 66 66 64 64 62 64 62 62
80 78 80 79 82 82 83 86 82 81 84 84 85 82 80 82 81 82 82 82 84 89 96 98 100 98 94 94 96 94 90 86 85 65 60 65 62 57 56 60 60 58 56
83 86 84 81 83 84 84 85 86 85 89 89 92 91 85 79 80 76 78 79 80 83 86 88 93 91 91 87 93 94 86 84 83 73 60 63 58 53 57 54 65 61 61
96 96 98 94 89 84 82 79 86 86 82 81 85 86 84 82 80 81 80 80 82 77 82 75 90 87 88 86 87 90 84 79 74 70 65 77 60 54 59 60 78 63 60
99 99 93 95 94 86 83 82 88 84 82 80 80 78 78 82 80 82 82 83 78 80 74 82 78 77 77 82 80 82 84 85 80 72 70 61 69 67 66 64 66 64 59
99 96 96 89 94 89 87 83 87 81 81 78 77 73 73 72 84 81 78 70 74 78 83 81 80 80 81 79 74 75 84 97 89 86 72 77 78 77 84 72 73 71 70

GFSMA_sfc_rhum_114.txt.gz
RH
58 57 58 58 52 50 48 45 42 44 44 42 42 41 40 43 45 44 43 88 87 75 71 70 70 69 68 68 68 67 67 65 64 64 63 64 63 64 65 64 64 64 63
52 52 53 54 52 48 44 43 41 41 43 41 42 40 36 38 40 45 42 52 90 87 78 73 71 70 70 69 68 68 68 67 66 64 63 63 63 63 63 63 64 64 64
54 54 51 52 49 45 44 43 42 42 45 48 48 44 45 42 39 39 40 42 54 93 87 82 76 76 73 72 70 70 70 71 70 68 66 62 62 63 63 61 63 64 64
53 52 51 49 46 45 44 44 43 48 52 54 53 50 48 48 44 42 41 41 47 44 78 86 83 78 75 74 73 74 73 74 74 72 70 66 63 63 63 62 62 63 64
49 49 47 46 48 53 56 57 59 56 60 59 56 51 48 47 48 43 44 42 43 48 47 82 87 88 84 76 72 69 68 73 77 76 74 71 67 63 62 63 62 63 63
48 50 50 53 56 60 59 61 61 61 58 57 52 52 50 51 51 50 47 43 42 47 48 49 52 60 86 81 77 72 68 67 74 79 77 75 73 69 64 64 64 65 64
58 59 57 59 61 62 61 62 64 67 67 62 57 52 53 54 56 56 55 58 55 54 52 49 51 56 64 89 83 77 72 70 70 72 75 78 77 76 71 66 66 64 64
64 63 64 65 64 64 66 66 67 72 64 57 58 61 61 59 60 59 63 65 68 67 65 80 72 70 81 74 76 84 80 73 69 67 69 70 72 76 76 74 68 68 66
70 71 67 71 70 74 76 70 67 68 66 69 71 67 70 68 68 69 67 77 78 74 80 83 84 88 84 86 83 81 82 80 76 69 69 68 68 69 71 72 74 71 70
69 73 78 73 72 76 76 76 74 78 91 90 84 77 76 75 75 72 70 66 68 78 87 86 90 81 83 91 89 92 90 81 78 73 68 67 66 66 66 66 67 72 75
70 74 73 69 76 80 89 92 93 91 85 80 82 86 88 85 82 92 98 96 93 97 92 80 86 90 86 88 93 94 92 85 83 75 69 66 65 64 65 67 67 67 67
90 87 87 86 88 94 94 86 79 83 84 83 80 82 81 86 90 93 97 93 92 90 89 86 88 86 90 91 90 91 90 92 91 75 67 66 70 74 74 75 75 73 68
91 94 92 96 96 96 93 81 79 90 93 93 88 81 76 73 70 75 79 78 84 89 88 79 77 86 86 82 84 90 92 94 92 77 74 78 80 80 78 79 80 78 73
96 96 97 97 96 93 83 89 93 91 90 88 83 80 72 71 77 82 84 79 78 65 66 68 66 70 72 73 79 92 87 95 92 84 79 79 78 81 82 82 83 87 82
99 99 98 96 95 87 81 80 81 78 74 80 80 82 83 84 87 85 86 90 86 81 73 57 70 71 72 76 81 81 84 96 90 83 83 82 80 79 81 84 85 86 89
99 98 95 89 85 80 77 75 77 77 78 79 79 76 75 77 72 74 77 78 80 90 83 67 72 74 74 77 83 78 80 94 91 88 88 84 79 77 76 80 83 87 88
92 88 84 79 77 75 72 71 71 69 68 72 72 70 70 66 68 69 75 76 83 84 93 91 85 81 91 86 86 85 91 87 86 86 82 79 75 76 76 76 79 82 87
78 76 73 71 67 66 63 63 64 62 62 64 67 66 65 67 68 73 70 75 84 81 97 98 92 91 91 87 87 90 84 77 82 81 78 75 76 77 77 78 78 76 78
71 68 64 65 63 61 58 55 55 57 59 61 65 66 69 69 74 78 77 83 82 83 85 95 94 92 92 93 96 89 82 87 85 89 80 78 77 77 76 75 74 76 76
66 64 60 59 60 57 56 57 56 59 61 64 69 68 68 69 70 73 75 73 77 83 85 94 94 94 88 91 91 92 90 84 84 75 80 78 74 74 73 71 75 77 74
62 61 60 59 59 60 60 62 62 63 65 68 73 68 72 78 82 78 72 75 78 81 82 95 98 94 96 98 97 95 96 92 85 82 80 77 73 68 68 72 73 71 66
62 61 62 63 65 65 85 78 70 68 68 68 71 70 68 78 74 79 83 83 82 81 91 95 99 98 92 92 96 97 93 94 96 76 79 75 62 63 65 62 61 57 58
67 68 67 67 70 73 86 83 79 72 75 77 78 78 72 67 73 65 70 75 74 80 82 87 95 87 89 84 94 98 92 91 92 77 69 71 62 61 59 46 63 59 58
78 79 82 76 80 77 85 84 82 73 69 69 70 71 69 66 67 72 71 74 72 67 72 79 78 82 85 82 88 93 90 84 77 71 71 90 64 57 53 49 75 64 63
93 90 83 78 78 78 85 85 78 69 71 68 65 64 65 67 74 79 80 85 68 67 68 84 84 86 81 81 85 88 92 91 86 79 71 76 72 66 58 53 58 67 63
93 83 84 80 77 71 85 83 77 64 67 64 64 60 74 67 76 82 77 72 71 62 69 74 74 76 78 80 78 79 91 100 94 90 77 86 79 72 83 66 66 64 62

GFSMA_sfc_rhum_117.txt.gz
RH
47 68 69 69 52 47 46 46 42 43 42 39 38 38 40 41 42 45 57 88 84 75 70 70 69 69 69 68 68 67 66 64 63 62 63 64 64 65 64 65 65 64 65
46 59 67 61 51 47 44 42 42 42 42 39 39 37 36 39 39 43 46 67 88 86 77 72 71 70 69 69 68 69 68 67 65 64 62 62 63 63 63 64 65 65 65
50 52 51 50 48 46 41 40 39 40 42 42 43 40 39 36 38 40 44 48 70 92 88 80 76 74 73 72 70 70 71 71 70 68 65 63 62 63 62 61 64 64 65
49 51 51 49 46 43 42 43 42 47 51 55 53 52 49 50 44 41 43 42 49 50 83 87 85 80 77 74 73 73 72 74 75 73 71 68 64 63 63 61 62 63 64
49 50 48 46 43 44 43 46 47 49 59 58 57 53 53 52 49 44 42 43 46 51 51 86 88 87 86 79 74 72 71 76 80 77 75 73 69 65 63 64 63 63 63
48 47 46 44 44 51 54 58 58 58 57 56 53 51 53 56 53 52 45 43 44 48 52 56 69 70 88 81 78 76 74 68 73 81 81 78 75 72 67 64 65 64 64
45 46 45 48 51 56 56 56 59 64 67 63 63 60 56 52 53 54 54 53 53 57 54 57 63 70 74 87 85 84 77 72 72 71 72 74 76 77 74 69 66 66 65
50 49 54 55 56 59 61 61 64 71 71 66 64 66 68 64 59 58 60 63 64 72 77 81 82 78 82 85 90 85 83 82 75 70 69 70 70 72 74 76 72 69 67
63 62 63 62 63 63 68 69 71 74 73 69 63 72 72 77 71 66 67 71 77 79 82 84 81 86 88 92 88 87 89 89 89 79 71 70 69 69 68 72 73 75 73
69 72 72 71 73 80 77 77 73 75 82 91 81 76 76 74 85 80 70 66 65 69 78 84 88 88 88 91 91 92 92 90 86 80 74 70 68 66 65 64 65 68 74
70 75 77 80 82 82 79 79 82 89 88 86 83 83 82 84 78 87 86 92 90 87 84 91 90 92 89 90 93 92 91 87 84 82 82 71 66 65 66 68 71 71 70
81 81 79 81 83 83 85 90 97 92 82 82 79 80 84 86 87 86 92 86 87 74 79 80 82 85 83 82 88 91 89 86 86 84 84 80 66 71 73 74 75 77 74
90 90 89 90 88 91 87 96 98 92 86 87 84 84 82 80 76 74 80 86 86 77 83 82 82 81 81 82 85 90 89 88 92 84 82 78 83 81 77 75 76 78 78
88 86 88 91 97 97 96 97 94 90 94 96 89 87 83 80 81 81 85 88 89 79 72 68 74 76 81 82 82 90 84 93 94 90 88 89 84 82 80 80 81 82 86
93 93 94 95 94 94 96 95 94 94 92 88 85 84 80 82 82 83 84 88 91 85 77 67 79 76 78 80 84 81 83 94 90 88 85 85 85 84 85 83 84 84 88
99 98 99 98 99 99 98 93 89 81 85 87 87 82 79 79 78 78 83 79 84 90 86 70 80 80 79 77 85 83 86 94 92 90 89 88 87 85 81 81 83 86 86
98 98 98 98 97 96 92 85 81 79 79 80 78 74 73 69 75 76 80 80 80 90 95 86 92 86 86 87 86 89 94 92 93 88 85 83 79 78 76 78 81 85 86
97 95 96 94 91 87 79 75 73 71 70 71 71 70 68 66 72 73 75 76 86 88 96 95 93 93 91 86 86 92 88 80 88 87 82 80 78 78 79 80 79 79 87
92 90 84 84 78 73 69 65 62 60 60 61 66 68 68 69 72 83 84 86 83 83 90 98 96 92 93 94 96 90 85 90 84 92 84 82 82 80 78 78 79 80 78
86 78 74 68 66 62 60 58 57 58 61 62 69 68 67 69 72 74 79 78 78 81 80 83 96 96 93 91 95 95 94 88 89 80 88 87 83 79 76 76 80 81 79
75 70 64 61 60 62 59 62 65 66 69 72 77 70 76 80 84 82 76 78 79 81 82 93 94 96 97 99 99 96 98 96 93 92 91 86 81 81 81 77 79 75 71
69 65 65 64 66 60 81 75 70 71 71 72 74 72 68 81 77 77 83 83 87 86 87 89 99 99 96 95 98 98 97 99 99 90 90 87 74 79 72 76 66 66 66
70 70 70 69 72 78 83 80 76 75 79 82 83 83 75 66 77 68 77 77 79 78 80 86 89 88 95 88 95 99 97 97 97 87 85 89 72 73 69 58 65 62 59
79 80 81 78 84 85 85 82 82 80 76 74 72 73 72 70 70 74 73 80 80 75 73 76 84 80 83 86 91 94 95 91 81 77 77 94 78 74 67 63 64 62 60
88 86 81 82 84 89 89 85 78 75 78 74 66 66 67 69 77 78 82 92 79 74 72 80 78 79 82 84 86 92 96 96 94 86 76 84 79 79 74 69 81 70 65
90 86 84 78 78 79 89 87 80 67 73 68 68 64 75 68 78 81 81 78 87 76 77 81 77 78 77 79 81 85 97 100 98 95 85 90 92 90 94 80 84 85 80

GFSMA_sfc_rhum_120.txt.gz
RH
84 72 78 74 77 76 75 76 73 64 63 57 53 52 55 57 60 73 90 88 82 77 71 70 70 69 69 68 68 67 66 65 64 63 64 64 66 66 66 66 66 65 65
78 71 75 81 77 66 67 67 64 62 63 58 55 53 51 56 56 64 83 92 87 84 77 71 70 70 69 68 69 69 68 67 65 64 62 62 64 65 64 65 65 65 65
71 70 68 79 75 60 60 59 58 59 60 60 58 53 51 51 53 56 72 84 90 91 88 76 74 73 73 71 70 70 71 71 70 68 66 64 64 65 63 63 65 65 64
64 70 64 72 62 64 61 62 62 64 70 71 74 66 67 64 61 56 55 69 81 78 90 89 87 82 78 76 74 73 72 75 75 74 72 70 65 64 64 61 63 64 63
64 61 62 63 62 64 63 60 65 68 79 78 73 73 70 71 65 56 61 58 61 68 83 87 89 89 87 80 77 74 75 78 80 81 79 75 72 67 63 63 62 64 63
62 66 66 63 62 66 70 73 71 77 77 79 64 65 75 72 72 71 66 57 60 61 62 75 82 85 90 83 77 77 74 69 73 75 76 81 80 74 70 66 66 66 66
59 62 64 58 65 72 77 75 79 81 87 84 84 83 79 72 73 74 76 77 77 77 81 87 90 89 90 90 87 86 83 78 73 71 70 71 73 75 74 74 68 67 67
62 59 61 61 71 76 77 77 82 90 90 87 86 87 87 85 81 77 86 84 91 90 89 90 91 93 96 95 92 86 84 79 80 82 82 72 71 70 69 70 75 72 69
67 68 72 69 76 79 82 84 87 88 93 92 82 90 89 94 90 88 90 92 91 94 94 92 89 91 93 94 90 88 87 82 82 81 78 75 72 67 66 66 67 75 75
69 80 79 80 84 89 90 91 88 91 94 96 91 87 91 92 96 94 89 88 88 87 92 95 94 92 92 94 90 90 91 90 84 79 76 73 70 65 65 64 66 68 71
78 87 86 91 93 95 93 94 97 96 93 95 94 95 94 93 88 96 96 96 95 96 96 96 95 96 93 95 96 93 88 89 85 81 78 77 74 65 65 71 72 72 75
92 92 91 92 94 95 96 96 96 95 96 94 93 93 95 96 96 95 96 92 96 93 94 96 96 96 96 95 92 91 88 86 84 84 81 77 75 71 74 74 74 75 74
96 95 91 93 95 95 96 96 97 97 95 96 94 95 94 94 88 86 86 87 93 87 93 94 96 96 93 95 94 90 89 86 88 88 81 78 76 81 80 78 75 75 75
93 95 96 96 96 95 96 96 98 97 96 97 96 95 93 91 89 92 93 95 97 89 93 89 95 95 95 94 92 89 94 90 92 91 84 79 85 84 82 80 80 80 80
93 94 96 97 97 97 97 96 98 98 98 97 97 95 91 92 94 95 95 96 97 96 94 90 96 92 95 94 91 87 88 93 90 90 90 89 88 87 86 86 84 84 84
96 96 98 97 98 98 98 98 99 97 96 95 94 90 90 94 92 93 94 90 90 97 95 93 98 95 92 88 93 88 92 94 93 90 89 88 86 83 81 82 82 84 85
98 98 97 98 98 98 99 98 98 96 95 92 90 88 90 88 93 93 93 91 87 92 98 95 96 93 93 95 90 92 94 93 95 90 87 84 80 80 80 81 82 85 87
98 97 98 98 98 98 98 98 97 93 89 91 92 89 88 80 86 90 94 93 91 91 98 96 94 96 95 92 94 95 89 82 90 92 84 82 81 80 83 81 80 84 90
98 98 98 98 98 98 98 96 93 88 88 87 88 86 85 83 90 94 93 94 93 86 92 97 97 95 95 97 97 92 87 91 86 90 88 81 82 84 80 79 82 83 84
98 97 96 96 92 90 86 82 80 78 78 80 81 82 81 83 87 90 90 91 90 93 90 90 93 98 95 94 97 98 96 89 91 84 91 91 88 82 80 78 81 83 83
92 88 84 84 81 80 73 76 76 80 84 87 87 84 88 86 86 87 87 93 91 92 89 88 88 98 98 98 99 98 99 97 93 93 96 94 93 92 87 82 81 78 74
91 85 81 83 79 67 80 81 79 83 85 88 87 83 84 83 82 79 84 84 89 94 93 97 97 95 86 94 98 98 98 99 99 93 97 97 90 90 79 84 76 72 67
91 91 91 82 83 84 82 81 83 83 88 90 90 90 84 78 82 84 80 78 79 79 82 93 92 88 97 95 97 98 98 98 98 92 93 96 79 82 75 64 71 63 64
93 93 94 92 92 88 84 83 86 90 90 88 87 88 84 85 85 82 84 89 89 88 85 84 92 93 93 93 94 95 97 95 86 83 89 97 80 81 76 68 70 68 64
94 93 94 96 96 96 88 86 85 88 87 87 80 80 79 80 81 78 90 93 91 88 76 81 80 77 78 82 86 96 99 98 98 91 80 88 84 85 81 78 79 70 65
96 95 93 93 92 97 90 85 82 83 88 84 81 79 77 77 82 80 93 91 93 88 85 86 86 82 82 82 79 90 98 100 99 98 88 91 92 92 93 84 84 85 92